[[{"header":{"parameterUnit":"m.s-1","parameterCategory":1,"la1":30.6,"la2":29.2853,"lo1":-89.7004,"lo2":-87.6739,"dy":0.0162,"dx":0.0183,"nx":112,"ny":82,"refTime":"2023-03-28T06:00:00:Z","depth":0,"parameterNumber":2,"parameterNumberName":"U-component_of_WINDS"},"data":[0.0,0.0,0.0,0.0,0.0,0.0,0.0,0.0,0.0,0.0,0.0,0.0,0.0,0.0,0.0,0.0,0.0,0.0,0.0,0.0,0.0,0.0,0.0,0.0,0.0,0.0,0.0,0.0,0.0,0.0,0.0,0.0,0.0,0.0,0.0,0.0,0.0,0.0,0.0,0.0,0.0,0.0,0.0,0.0,0.0,0.0,0.0,0.0,0.0,0.0,0.0,0.0,0.0,0.0,0.0,0.0,0.0,0.0,0.0,0.0,0.0,0.0,0.0,0.0,0.0,0.0,0.0,0.0,0.0,0.0,0.0,0.0,0.0,0.0,0.0,0.0,0.0,0.0,0.0,0.0,0.0,0.0,0.0,0.0,0.0,0.0,0.0,0.0,0.0,0.0,-1.2872,-1.6133,-2.0279,-2.3009,-2.3421,-2.2828,-2.0634,-1.6258,0.0,0.0,0.0,0.0,0.0,0.0,0.0,0.0,0.0,0.0,0.0,0.0,0.0,0.0,0.0,0.0,0.0,0.0,0.0,0.0,0.0,0.0,0.0,0.0,0.0,0.0,0.0,0.0,0.0,0.0,0.0,0.0,0.0,0.0,0.0,0.0,0.0,0.0,0.0,0.0,0.0,0.0,0.0,0.0,0.0,0.0,0.0,0.0,0.0,0.0,0.0,0.0,0.0,0.0,0.0,0.0,0.0,0.0,0.0,0.0,0.0,0.0,0.0,0.0,0.0,0.0,0.0,0.0,0.0,0.0,0.0,0.0,0.0,0.0,0.0,0.0,0.0,0.0,0.0,0.0,0.0,0.0,0.0,0.0,0.0,0.0,0.0,0.0,0.0,0.0,0.0,0.0,0.0,0.0,0.0,0.0,0.0,0.0,0.0,0.0,0.0,0.0,0.0,0.0,-1.3219,-1.8836,-2.1874,-2.3275,-2.2875,-2.2231,-2.003,-1.5759,0.0,0.0,0.0,0.0,0.0,0.0,0.0,0.0,0.0,0.0,0.0,0.0,0.0,0.0,0.0,0.0,0.0,0.0,0.0,0.0,0.0,0.0,0.0,0.0,0.0,0.0,0.0,0.0,0.0,0.0,0.0,0.0,0.0,0.0,0.0,0.0,0.0,0.0,0.0,0.0,0.0,0.0,0.0,0.0,0.0,0.0,0.0,0.0,0.0,0.0,0.0,0.0,0.0,0.0,0.0,0.0,0.0,0.0,0.0,0.0,0.0,0.0,0.0,0.0,0.0,0.0,0.0,0.0,0.0,0.0,0.0,0.0,0.0,0.0,0.0,0.0,0.0,0.0,0.0,0.0,0.0,0.0,0.0,0.0,0.0,0.0,0.0,0.0,0.0,0.0,0.0,0.0,0.0,0.0,0.0,0.0,0.0,0.0,0.0,0.0,0.0,0.0,0.0,-1.1048,-1.4346,-1.9553,-2.1309,-2.2261,-2.2665,-2.21,-1.9892,-1.5544,-1.5417,0.0,0.0,0.0,0.0,0.0,0.0,0.0,0.0,0.0,0.0,0.0,0.0,0.0,0.0,0.0,0.0,0.0,0.0,0.0,0.0,0.0,0.0,0.0,0.0,0.0,0.0,0.0,0.0,0.0,0.0,0.0,0.0,0.0,0.0,0.0,0.0,0.0,0.0,0.0,0.0,0.0,0.0,0.0,0.0,0.0,0.0,0.0,0.0,0.0,0.0,0.0,0.0,0.0,0.0,0.0,0.0,0.0,0.0,0.0,0.0,0.0,0.0,0.0,0.0,0.0,0.0,0.0,0.0,0.0,0.0,0.0,0.0,0.0,0.0,0.0,0.0,0.0,0.0,0.0,0.0,0.0,0.0,0.0,0.0,0.0,0.0,0.0,0.0,0.0,0.0,0.0,0.0,0.0,0.0,0.0,0.0,0.0,0.0,0.0,0.0,0.0,0.0,-1.2977,-1.6029,-1.9503,-2.0605,-2.1379,-2.2179,-2.137,-1.9127,-1.5286,-1.4278,0.0,0.0,0.0,0.0,0.0,0.0,0.0,0.0,0.0,0.0,0.0,0.0,0.0,0.0,0.0,0.0,0.0,0.0,0.0,0.0,0.0,0.0,0.0,0.0,0.0,0.0,0.0,0.0,0.0,0.0,0.0,0.0,0.0,0.0,0.0,0.0,0.0,0.0,0.0,0.0,0.0,0.0,0.0,0.0,0.0,0.0,0.0,0.0,0.0,0.0,0.0,0.0,0.0,0.0,0.0,0.0,0.0,0.0,0.0,0.0,0.0,0.0,0.0,0.0,0.0,0.0,0.0,0.0,0.0,0.0,0.0,0.0,0.0,0.0,0.0,0.0,0.0,0.0,0.0,0.0,0.0,0.0,0.0,0.0,0.0,0.0,0.0,0.0,0.0,0.0,0.0,0.0,0.0,0.0,0.0,0.0,0.0,0.0,0.0,0.0,0.0,0.0,-1.4969,-1.8206,-1.9104,-2.0675,-2.1431,-2.0979,-1.9186,-1.7042,-1.4623,-1.3036,0.0,0.0,0.0,0.0,0.0,0.0,0.0,0.0,0.0,0.0,0.0,0.0,0.0,0.0,0.0,0.0,0.0,0.0,0.0,0.0,0.0,0.0,0.0,0.0,0.0,0.0,0.0,0.0,0.0,0.0,0.0,0.0,0.0,0.0,0.0,0.0,0.0,0.0,0.0,0.0,0.0,0.0,0.0,0.0,0.0,0.0,0.0,0.0,0.0,0.0,0.0,0.0,0.0,0.0,0.0,0.0,0.0,0.0,0.0,0.0,0.0,0.0,0.0,0.0,0.0,0.0,0.0,0.0,0.0,0.0,0.0,0.0,0.0,0.0,0.0,0.0,0.0,0.0,0.0,0.0,0.0,0.0,0.0,0.0,0.0,0.0,0.0,0.0,0.0,0.0,0.0,0.0,0.0,0.0,0.0,0.0,0.0,0.0,0.0,0.0,0.0,0.0,-1.3836,-1.6722,0.0,-2.0034,-2.0676,-2.0769,-2.0092,-1.8287,-1.5056,0.0,0.0,0.0,0.0,0.0,0.0,0.0,0.0,0.0,0.0,0.0,0.0,0.0,0.0,0.0,0.0,0.0,0.0,0.0,0.0,0.0,0.0,0.0,0.0,0.0,0.0,0.0,0.0,0.0,0.0,0.0,0.0,0.0,0.0,0.0,0.0,0.0,0.0,0.0,0.0,0.0,0.0,0.0,0.0,0.0,0.0,0.0,0.0,0.0,0.0,0.0,0.0,0.0,0.0,0.0,0.0,0.0,0.0,0.0,0.0,0.0,0.0,0.0,0.0,0.0,0.0,0.0,0.0,0.0,0.0,0.0,0.0,0.0,0.0,0.0,0.0,0.0,0.0,0.0,0.0,0.0,0.0,0.0,0.0,0.0,0.0,0.0,0.0,0.0,0.0,0.0,0.0,0.0,0.0,0.0,0.0,0.0,0.0,0.0,0.0,0.0,0.0,-1.0973,-1.361,-1.6286,0.0,-1.936,-1.9898,-2.0458,-1.9904,-1.8131,-1.4901,0.0,0.0,0.0,0.0,0.0,0.0,0.0,0.0,0.0,0.0,0.0,0.0,0.0,0.0,0.0,0.0,0.0,0.0,0.0,0.0,0.0,0.0,0.0,0.0,0.0,0.0,0.0,0.0,0.0,0.0,0.0,0.0,0.0,0.0,0.0,0.0,0.0,0.0,0.0,0.0,0.0,0.0,0.0,0.0,0.0,0.0,0.0,0.0,0.0,0.0,0.0,0.0,0.0,0.0,0.0,0.0,0.0,0.0,0.0,0.0,0.0,0.0,0.0,0.0,0.0,0.0,0.0,0.0,0.0,0.0,0.0,0.0,0.0,0.0,0.0,0.0,0.0,0.0,0.0,0.0,0.0,0.0,0.0,0.0,0.0,0.0,0.0,0.0,0.0,0.0,0.0,0.0,0.0,0.0,0.0,0.0,0.0,0.0,0.0,0.0,0.0,0.0,-1.1491,-1.4976,-1.7601,-1.8141,-1.8706,-1.9246,-1.9761,-1.7969,-1.5956,0.0,0.0,0.0,0.0,0.0,0.0,0.0,0.0,0.0,0.0,0.0,0.0,0.0,0.0,0.0,0.0,0.0,0.0,0.0,0.0,0.0,0.0,0.0,0.0,0.0,0.0,0.0,0.0,0.0,0.0,0.0,0.0,0.0,0.0,0.0,0.0,0.0,0.0,0.0,0.0,0.0,0.0,0.0,0.0,0.0,0.0,0.0,0.0,0.0,0.0,0.0,0.0,0.0,0.0,0.0,0.0,0.0,0.0,0.0,0.0,0.0,0.0,0.0,0.0,0.0,0.0,0.0,0.0,0.0,0.0,0.0,0.0,0.0,0.0,0.0,0.0,0.0,0.0,0.0,0.0,0.0,0.0,0.0,0.0,0.0,0.0,0.0,0.0,0.0,0.0,0.0,0.0,0.0,0.0,0.0,0.0,0.0,0.0,0.0,0.0,0.0,0.0,0.0,-1.2082,-1.5519,-1.8156,-1.8714,-1.9253,-1.9418,-1.9085,-1.8454,-1.6694,-1.3239,0.0,0.0,0.0,0.0,0.0,0.0,0.0,0.0,0.0,0.0,0.0,0.0,0.0,0.0,0.0,0.0,0.0,0.0,0.0,0.0,0.0,0.0,0.0,0.0,0.0,0.0,0.0,0.0,0.0,0.0,0.0,0.0,0.0,0.0,0.0,0.0,0.0,0.0,0.0,0.0,0.0,0.0,0.0,0.0,0.0,0.0,0.0,0.0,0.0,0.0,0.0,0.0,0.0,0.0,0.0,0.0,0.0,0.0,0.0,0.0,0.0,0.0,0.0,0.0,0.0,0.0,0.0,0.0,0.0,0.0,0.0,0.0,0.0,0.0,0.0,0.0,0.0,0.0,0.0,0.0,0.0,0.0,0.0,0.0,0.0,0.0,0.0,0.0,0.0,0.0,0.0,0.0,0.0,0.0,0.0,0.0,0.0,0.0,0.0,0.0,0.0,0.0,-1.2613,-1.5672,-1.8181,-1.893,-1.9021,-1.897,-1.8703,-1.8447,-1.6662,-1.2984,0.0,0.0,0.0,0.0,0.0,0.0,0.0,0.0,0.0,0.0,0.0,0.0,0.0,0.0,0.0,0.0,0.0,0.0,0.0,0.0,0.0,0.0,0.0,0.0,0.0,0.0,0.0,0.0,0.0,0.0,0.0,0.0,0.0,0.0,0.0,0.0,0.0,0.0,0.0,0.0,0.0,0.0,0.0,0.0,0.0,0.0,0.0,0.0,0.0,0.0,0.0,0.0,0.0,0.0,0.0,0.0,0.0,0.0,0.0,0.0,0.0,0.0,0.0,0.0,0.0,0.0,0.0,0.0,0.0,0.0,0.0,0.0,0.0,0.0,0.0,0.0,0.0,0.0,0.0,0.0,0.0,0.0,0.0,0.0,0.0,0.0,0.0,0.0,0.0,0.0,0.0,0.0,0.0,0.0,0.0,0.0,0.0,0.0,0.0,0.0,0.0,0.0,-1.3009,-1.5605,-1.7852,-1.8845,-1.8307,-1.8024,-1.8335,-1.772,-1.5921,-1.28,0.0,0.0,0.0,0.0,0.0,0.0,0.0,0.0,0.0,0.0,0.0,0.0,0.0,0.0,0.0,0.0,0.0,0.0,0.0,0.0,0.0,0.0,0.0,0.0,0.0,0.0,0.0,0.0,0.0,0.0,0.0,0.0,0.0,0.0,0.0,0.0,0.0,0.0,0.0,0.0,0.0,0.0,0.0,0.0,0.0,0.0,0.0,0.0,0.0,0.0,0.0,0.0,0.0,0.0,0.0,0.0,0.0,0.0,0.0,0.0,-1.0427,0.0,0.0,0.0,0.0,0.0,0.0,0.0,0.0,0.0,0.0,0.0,0.0,0.0,0.0,0.0,0.0,0.0,0.0,0.0,0.0,0.0,0.0,0.0,0.0,0.0,0.0,0.0,0.0,0.0,0.0,0.0,0.0,0.0,0.0,0.0,0.0,0.0,0.0,0.0,0.0,0.0,-1.3066,-1.5973,-1.8207,-1.8734,-1.8048,-1.7137,-1.6141,-1.5273,-1.3723,-1.1148,-1.0821,0.0,0.0,0.0,0.0,0.0,0.0,0.0,0.0,0.0,0.0,0.0,0.0,0.0,0.0,0.0,0.0,0.0,0.0,0.0,0.0,0.0,0.0,0.0,0.0,0.0,0.0,0.0,0.0,0.0,0.0,0.0,0.0,0.0,0.0,0.0,0.0,0.0,0.0,0.0,0.0,0.0,0.0,0.0,0.0,0.0,0.0,0.0,0.0,0.0,0.0,0.0,0.0,0.0,0.0,0.0,0.0,0.0,0.0,0.0,0.0,-1.0836,0.0,0.0,0.0,0.0,0.0,0.0,0.0,0.0,0.0,0.0,0.0,0.0,0.0,0.0,0.0,0.0,0.0,0.0,0.0,0.0,0.0,0.0,0.0,0.0,0.0,0.0,0.0,0.0,0.0,0.0,0.0,0.0,0.0,0.0,0.0,0.0,0.0,0.0,0.0,0.0,-1.3707,-1.5963,-1.7564,-1.7571,-1.6918,-1.5806,-1.4209,-1.3416,-1.2059,-0.9996,-0.9505,0.0,0.0,0.0,0.0,0.0,0.0,0.0,0.0,0.0,0.0,0.0,0.0,0.0,0.0,0.0,0.0,0.0,0.0,0.0,0.0,0.0,0.0,0.0,0.0,0.0,0.0,0.0,0.0,0.0,0.0,0.0,0.0,0.0,0.0,0.0,0.0,0.0,0.0,0.0,0.0,0.0,0.0,0.0,0.0,0.0,0.0,0.0,0.0,0.0,0.0,0.0,0.0,0.0,-1.4572,-1.4927,-1.5357,-1.5571,-1.5637,-1.5449,-1.4073,-1.3731,-1.389,-1.0362,0.0,0.0,0.0,0.0,0.0,0.0,0.0,0.0,0.0,0.0,0.0,0.0,0.0,0.0,0.0,0.0,0.0,0.0,0.0,0.0,0.0,0.0,-1.5361,-1.6905,-1.8156,-1.8384,-1.6078,0.0,0.0,0.0,0.0,0.0,0.0,0.0,0.0,0.0,0.0,0.0,-1.4087,-1.5609,-1.645,-1.6033,-1.5206,-1.4078,-1.253,-1.1603,-1.0514,-0.9128,-0.8357,-0.7954,0.0,0.0,0.0,0.0,0.0,0.0,0.0,0.0,0.0,0.0,0.0,0.0,0.0,0.0,0.0,0.0,0.0,0.0,0.0,0.0,0.0,0.0,0.0,0.0,0.0,0.0,0.0,0.0,0.0,0.0,0.0,0.0,-0.6048,-0.636,0.0,0.0,0.0,0.0,0.0,0.0,0.0,0.0,0.0,0.0,0.0,0.0,0.0,-1.2285,-1.5279,-1.548,-1.6381,-1.8022,-1.9225,-1.9578,-1.9211,-2.0258,-2.047,-1.989,-1.7255,0.0,-1.5763,-1.3222,0.0,0.0,0.0,0.0,0.0,0.0,0.0,0.0,0.0,0.0,0.0,0.0,0.0,0.0,0.0,0.0,0.0,0.0,0.0,0.0,0.0,0.0,-1.9182,-2.0176,-2.0545,-2.0653,-2.0557,-1.7622,-1.4671,-1.351,-1.3249,-1.2382,0.0,0.0,0.0,0.0,0.0,0.0,-1.3055,-1.4573,-1.5416,-1.4529,-1.3015,-1.1804,-1.1009,-0.955,-0.8575,-0.8379,-0.823,-0.8256,-0.8487,-0.838,0.0,0.0,0.0,0.0,0.0,0.0,0.0,0.0,0.0,0.0,0.0,0.0,0.0,0.0,0.0,0.0,0.0,0.0,0.0,0.0,0.0,0.0,0.0,0.0,0.0,0.0,0.0,0.0,0.0,-0.6684,-0.6428,-0.7014,-0.6196,-0.5902,0.0,0.0,0.0,0.0,0.0,0.0,0.0,0.0,0.0,-1.3498,-1.3716,-1.5131,-1.785,-1.8093,-1.8945,-2.0318,-2.0979,-2.137,-2.1492,-2.2348,-2.2631,-2.2275,-2.0017,-1.8962,-1.8582,-1.4528,-1.3193,-1.3485,0.0,0.0,0.0,0.0,-0.8719,-0.9043,-0.9244,-1.0112,-1.1119,-1.1467,0.0,0.0,0.0,0.0,0.0,0.0,0.0,-1.5587,-1.6532,-1.8226,-1.9976,-2.1296,-2.1476,-2.1215,-2.1087,-1.9552,-1.7683,-1.5855,-1.5447,-1.4525,-1.1853,-1.2054,0.0,0.0,0.0,-1.2833,-1.2877,-1.363,-1.3661,-1.2305,-1.1509,-1.0412,-0.8843,-0.7988,-0.7328,-0.6749,-0.6835,-0.7359,-0.8437,-0.8477,-0.9101,0.0,0.0,0.0,0.0,0.0,0.0,0.0,0.0,0.0,0.0,0.0,0.0,0.0,0.0,0.0,0.0,0.0,0.0,0.0,0.0,0.0,0.0,0.0,0.0,0.0,0.0,0.0,0.0,-0.716,-0.7182,-0.8404,-0.7265,-0.6753,0.0,0.0,0.0,0.0,0.0,0.0,-1.2271,-1.2413,-1.3448,-1.5669,-1.6184,-1.7588,-1.9979,-1.9903,-2.0519,-2.1825,-2.1907,-2.2208,-2.2694,-2.3334,-2.3595,-2.3522,-2.1693,-2.09,-2.0557,-1.5957,-1.4136,-1.4127,-1.2649,-1.1601,-1.0857,-0.9947,-0.9969,-1.0425,-1.0425,-1.1109,-1.2157,-1.3121,-1.4301,-1.5436,-1.5947,0.0,0.0,0.0,0.0,-1.808,-1.9003,-1.9816,-2.0627,-2.1725,-2.1617,-2.1167,-2.0806,-2.0605,-1.9859,-1.7784,-1.7301,-1.6361,-1.3498,-1.2987,0.0,0.0,0.0,-1.2257,-1.2627,-1.2776,-1.2163,-1.0581,-1.0267,-0.9332,-0.7343,-0.7149,-0.6881,-0.6128,-0.6437,-0.7225,-0.8536,-0.9168,-1.012,-1.1526,0.0,0.0,0.0,0.0,0.0,0.0,0.0,0.0,0.0,0.0,0.0,0.0,0.0,0.0,0.0,0.0,0.0,0.0,0.0,0.0,0.0,0.0,0.0,0.0,0.0,0.0,0.0,0.0,0.0,-1.088,-1.0157,0.0,0.0,0.0,0.0,-1.1905,-1.1695,-1.2917,-1.6049,-1.5204,-1.6063,-1.9254,-1.871,-1.9408,-2.1549,-2.0653,-2.0895,-2.2364,-2.2495,-2.2594,-2.2694,-2.3334,-2.3595,-2.3522,-2.1693,-2.09,-2.0694,-1.8122,-1.6904,-1.6425,-1.4171,-1.3096,-1.2749,-1.2698,-1.2726,-1.2868,-1.3645,-1.4452,-1.5119,-1.5157,-1.6885,-1.891,-1.8892,-1.9239,0.0,0.0,-1.9395,-2.0808,-1.9679,-2.09,-2.2326,-2.1747,-2.117,-2.0756,-2.0731,-2.0238,-1.9673,-1.9008,-1.8763,-1.7561,-1.4328,0.0,-1.4754,-1.1695,-1.2529,-1.3111,-1.1988,-1.2097,-1.1581,-0.9759,-0.9034,-0.834,-0.7384,-0.7405,-0.7478,-0.7396,-0.8349,-0.901,-0.9073,-1.0842,-1.2315,-1.3364,-1.4055,0.0,0.0,0.0,0.0,0.0,0.0,0.0,0.0,0.0,0.0,0.0,0.0,0.0,0.0,0.0,0.0,0.0,0.0,0.0,0.0,0.0,0.0,0.0,0.0,0.0,0.0,0.0,0.0,-1.1906,-1.143,0.0,-1.2202,-1.2982,-1.3821,-1.4758,-1.5626,-1.6879,-1.8743,-1.8066,-1.822,-1.9379,-1.9375,-2.0017,-2.1376,-2.1428,-2.1776,-2.2417,-2.3428,-2.3712,-2.3374,-2.4414,-2.4896,-2.479,-2.3291,-2.2622,-2.2468,-2.0374,-1.8255,-1.6276,-1.5031,-1.4376,-1.4045,-1.3543,-1.3533,-1.3864,-1.4666,-1.5322,-1.6107,-1.8025,-2.0173,-2.1942,-2.1939,-2.2047,-2.2199,-2.2109,-2.2731,-2.3229,-2.2379,-2.2393,-2.2522,-2.186,-2.0927,-2.0112,-2.0112,-1.9949,-1.9482,-1.8469,-1.8526,-1.7855,-1.5248,-1.5193,-1.4718,-1.219,-1.2305,-1.2417,-1.1619,-1.1657,-1.1038,-0.9254,-0.8852,-0.8194,-0.676,-0.7303,-0.7626,-0.7504,-0.8368,-0.9376,-1.0557,-1.0927,-1.2553,-1.5491,-1.6036,-1.5965,0.0,0.0,0.0,0.0,0.0,0.0,0.0,0.0,0.0,0.0,0.0,0.0,0.0,0.0,0.0,0.0,0.0,0.0,0.0,0.0,0.0,0.0,0.0,0.0,0.0,0.0,-1.1488,-1.3998,-1.4119,-1.4428,-1.5467,-1.6493,-1.7357,-1.7948,-1.8838,-1.9565,-2.0028,-1.9665,-1.9434,-1.9287,-1.9696,-2.0502,-2.1664,-2.2008,-2.2584,-2.3365,-2.4478,-2.4776,-2.437,-2.5203,-2.5458,-2.5158,-2.4047,-2.3434,-2.3094,-2.1609,-1.9624,-1.7512,-1.6414,-1.5587,-1.4934,-1.4411,-1.4489,-1.5012,-1.5956,-1.6759,-1.7699,-2.0135,-2.1942,-2.3322,-2.3748,-2.4023,-2.424,-2.444,-2.4716,-2.4714,-2.364,-2.2895,-2.226,-2.1619,-2.0617,-1.9798,-1.9798,-1.9798,-1.9416,-1.8054,-1.7871,-1.7256,-1.5151,-1.4409,-1.3531,-1.1813,-1.1575,-1.1413,-1.0918,-1.0866,-1.0288,-0.8788,-0.851,-0.786,-0.6405,-0.7385,-0.8201,-0.8349,-0.9405,-1.0802,-1.2387,-1.2195,-1.3395,-1.6234,-1.6547,-1.6523,-1.6162,0.0,0.0,0.0,0.0,0.0,0.0,0.0,0.0,0.0,0.0,0.0,0.0,0.0,0.0,0.0,0.0,0.0,0.0,0.0,0.0,0.0,0.0,0.0,-1.2033,-1.35,-1.5187,-1.7255,-1.8245,-1.9312,-2.07,-2.1289,-2.1529,-2.143,-2.1069,-2.0576,-1.9996,-1.9975,-1.9746,-1.9336,-1.9707,-2.0851,-2.2715,-2.2527,-2.3342,-2.5259,-2.5512,-2.5637,-2.5736,-2.5719,-2.5309,-2.4568,-2.3928,-2.3241,-2.2415,-2.1784,-2.1099,-2.0225,-1.8383,-1.6765,-1.5488,-1.5468,-1.5792,-1.6397,-1.7854,-1.8967,-1.9991,-2.128,-2.2175,-2.2929,-2.4163,-2.4937,-2.529,-2.4769,-2.5059,-2.5055,-2.3168,-2.2237,-2.1597,-2.0954,-2.0271,-1.9798,-1.9798,-1.9798,-1.9371,-1.7907,-1.697,-1.5823,-1.4118,-1.2684,-1.1535,-1.0676,-1.0491,0.0,-0.994,-0.9897,-0.9494,-0.8425,-0.8031,-0.7395,-0.6461,-0.7808,-0.9124,-1.0099,-1.1665,-1.3124,-1.4492,-1.4631,-1.5012,-1.5558,-1.5723,-1.634,-1.7404,0.0,0.0,0.0,0.0,0.0,0.0,0.0,0.0,0.0,0.0,0.0,0.0,0.0,0.0,0.0,0.0,0.0,0.0,0.0,0.0,0.0,0.0,-1.4387,-1.4336,-1.4907,-1.5901,-1.7609,-1.9243,-2.0071,-1.9747,-2.1004,-2.1774,-2.1446,-2.1237,-2.1178,-2.1376,-2.0767,-2.0332,-2.0215,-2.0751,-2.1574,-2.2715,-2.4177,-2.5482,-2.6645,-2.792,-2.8456,-2.8504,-2.849,-2.7823,-2.6654,-2.5937,-2.4912,-2.3721,-2.2522,-2.1666,-2.0831,-1.9545,-1.8464,-1.7568,-1.7153,-1.7434,-1.8102,-1.8937,-2.0101,-2.1287,-2.1555,-2.2394,-2.3259,-2.3138,-2.3201,-2.3275,-2.3149,-2.2944,-2.2634,-2.2069,-2.1502,-2.1011,-2.0771,-2.0256,-1.9798,-1.9798,-1.9798,-1.9371,-1.7907,-1.697,-1.5997,-1.4811,-1.4278,-1.3935,-1.3566,-1.2949,-1.2282,-1.1602,-1.0962,-0.9916,-0.8312,-0.796,-0.7777,-0.7605,-0.8528,-0.9846,-1.1503,-1.2524,-1.3798,-1.5475,-1.5377,-1.5726,-1.6713,-1.7585,-1.8607,0.0,0.0,0.0,0.0,0.0,0.0,0.0,0.0,0.0,0.0,0.0,0.0,0.0,0.0,0.0,0.0,0.0,0.0,0.0,0.0,0.0,0.0,-1.4787,-1.6427,-1.7044,-1.7309,-1.7919,-1.918,-2.0543,-2.1251,-2.1105,-2.2023,-2.2347,-2.1692,-2.1565,-2.1447,-2.1155,-2.0757,-2.0478,-2.0303,-2.1169,-2.2082,-2.3028,-2.5106,-2.6761,-2.7979,-2.9074,-2.9765,-2.9987,-2.9743,-2.8781,-2.7357,-2.6692,-2.5526,-2.409,-2.3065,-2.2399,-2.186,0.0,0.0,0.0,0.0,-1.8437,-1.8798,-1.9333,-2.0332,-2.1348,-2.1297,-2.1929,-2.2668,-2.23,-2.2172,-2.2094,-2.1862,-2.1574,-2.1229,-2.0951,-2.0785,-2.0695,-2.0381,-2.0014,-1.9654,-1.9368,-1.9097,-1.8555,-1.7357,-1.6938,0.0,-1.5809,-1.4961,-1.4114,-1.339,-1.3165,-1.2677,-1.1674,-1.0972,-1.0188,-0.9165,-0.8657,-0.8491,-0.8613,-0.9655,0.0,0.0,0.0,-1.51,-1.6485,-1.6056,0.0,0.0,0.0,-1.9565,-2.1471,-2.233,0.0,0.0,-2.2566,-2.295,0.0,0.0,0.0,0.0,0.0,0.0,0.0,0.0,0.0,0.0,0.0,0.0,0.0,0.0,0.0,0.0,-1.5914,-1.7566,-1.9658,-2.0029,-2.0331,-2.1229,-2.1711,-2.2328,-2.3073,-2.3294,-2.2925,-2.1886,-2.1811,-2.1267,-2.0085,0.0,0.0,0.0,0.0,-2.2616,-2.3649,-2.582,-2.7694,-2.9392,-2.9788,-3.0281,-3.0896,-3.0099,-2.8808,-2.7166,-2.6616,-2.5453,-2.3866,-2.3351,-2.3078,-2.2905,-2.1265,-2.0146,-1.9458,-1.9329,-1.9066,-1.8893,-1.9304,0.0,0.0,-2.0696,-2.1064,-2.1506,-2.1506,-2.1506,-2.1376,-2.0832,-2.0696,-2.0586,-2.0104,-2.0326,-2.0564,-2.007,-1.9812,-1.9476,-1.888,-1.823,-1.7578,-1.6924,-1.7148,-1.7363,-1.7219,-1.5428,-1.3621,-1.2413,-1.2668,-1.2524,-1.1271,-1.076,-1.0479,-1.0418,-0.995,0.0,-0.9807,-1.1109,-1.2345,-1.3355,-1.5213,-1.6728,-1.7643,-1.6894,-1.6908,-1.7811,-1.8582,-2.0359,-2.3234,-2.6526,-2.9422,-3.1789,-2.6024,-2.5403,0.0,0.0,0.0,0.0,0.0,0.0,0.0,0.0,0.0,0.0,0.0,0.0,0.0,0.0,0.0,-1.58,-1.7853,-1.9536,-2.0322,-2.0752,-2.0918,-2.0787,-2.1466,-2.1811,-2.1231,-2.1811,-2.1886,-2.0934,-2.0857,-2.075,-2.0439,-2.0518,-2.0527,-2.0439,-2.2211,-2.3616,-2.4543,-2.7688,-3.0134,-3.1656,-3.1897,0.0,-3.2962,-3.1128,-2.9187,-2.7242,-2.666,-2.5213,-2.3288,-2.3175,-2.3078,-2.3002,-2.2222,-2.1312,-2.0422,-2.0422,-2.0044,-1.9604,-1.9703,-1.9834,-2.0003,-2.0003,-2.0093,-2.0181,-2.0181,-2.0181,0.0,-2.0055,-2.0003,-2.0167,-2.0983,-2.0916,-2.069,-2.074,-2.0425,-1.9876,-1.9066,-1.8751,-1.8633,-1.8585,-1.8663,-1.9017,-1.9849,-1.814,-1.6818,-1.7177,-1.5788,-1.4457,-1.3707,-1.2536,-1.1603,-1.103,-1.1647,-1.2391,-1.3044,-1.3522,-1.4411,-1.5791,-1.7298,-1.838,-1.8901,-1.8769,-1.9073,-2.0004,-2.201,-2.4587,-2.7656,-3.0211,-3.2912,-3.5633,-3.2225,-3.193,0.0,0.0,0.0,0.0,0.0,0.0,0.0,0.0,0.0,0.0,0.0,-1.1353,0.0,0.0,-1.5836,-1.6959,-1.8903,-2.0391,-2.084,-2.1094,-2.1064,-2.0625,-2.1001,-2.1155,-2.0644,-2.1011,-2.1078,-2.0644,-2.0566,-2.0566,-2.0566,-2.0566,-2.0566,-2.0566,-2.2489,-2.3895,-2.479,-2.8243,-3.0748,-3.2307,-3.2493,-3.2933,-3.3515,-3.1481,-2.9478,-2.77,-2.6798,-2.532,-2.3527,-2.2962,-2.256,-2.2284,-2.2008,-2.1732,-2.143,-2.092,-2.0263,-1.9687,-1.9795,-1.9579,-1.9319,-1.9695,-1.9798,-1.9798,-1.9798,-1.9798,-1.9861,-2.0162,-2.0238,-2.0426,-2.1267,-2.1493,-2.1375,-2.0734,-2.0676,-2.037,-1.9276,-1.9041,-1.9112,-1.9182,-1.9587,-2.0144,-2.0715,-2.0227,-1.9588,-1.9031,-1.7952,-1.6793,-1.5501,-1.52,-1.4744,-1.3885,-1.5191,-1.6057,-1.5981,-1.6484,-1.7415,-1.8887,-1.9131,-1.9683,-2.0619,-2.0538,-2.1498,-2.3676,-2.5722,-2.8298,-3.1511,-3.3998,-3.6145,-3.7886,-3.6486,-3.6157,0.0,0.0,0.0,0.0,0.0,0.0,0.0,0.0,-0.901,-1.0516,-1.1434,-1.2287,-1.3653,-1.5235,-1.6712,-1.7772,-1.9418,-2.0661,-2.1111,-2.1528,-2.162,-2.1242,-2.0966,-2.0789,-2.0644,-2.0789,-2.0789,-2.0644,-2.0566,-2.0605,-2.0684,-2.0693,-2.0732,-2.082,-2.2767,-2.4376,-2.5557,-2.8738,-3.1215,-3.2955,-3.2841,-3.3093,-3.3499,-3.115,-2.9348,-2.7917,-2.6407,-2.4958,-2.359,-2.2573,-2.1895,-2.1468,-2.1242,-2.1568,-2.2033,-2.1041,-2.0254,-1.9637,-1.9741,-1.9423,-1.898,-1.9592,-1.9798,-1.9823,-1.9936,-1.9962,-2.0087,-2.0665,-2.0882,-2.0953,-2.1506,-2.1983,-2.1977,-2.0794,-2.0926,-2.0996,-1.9663,-1.9475,-1.9618,-1.9901,-2.0637,-2.1266,-2.1654,-2.2347,-2.2228,-2.0267,-1.9746,-1.9068,-1.7552,-1.8055,-1.8137,-1.7379,-1.8923,-1.9756,-1.8918,-1.9449,-2.035,-2.1615,-2.0925,-2.111,-2.2499,-2.2498,-2.4137,-2.7626,-2.9334,-3.1752,-3.4841,-3.7245,-3.8706,-3.9208,-3.9208,-3.8819,-0.2663,-0.3862,-0.4614,-0.5314,-0.5409,-0.6237,0.0,0.0,-0.9304,-1.2004,-1.2905,-1.3443,-1.4065,-1.521,-1.6504,-1.8019,-1.9396,-2.0476,-2.1109,-2.2747,-2.3709,-2.3248,-2.2387,-2.1517,-2.0712,-2.1375,-2.1517,-2.0644,-2.0566,-2.0742,-2.1143,-2.1162,-2.1338,-2.1728,-2.3752,-2.5973,-2.832,-3.0583,-3.289,-3.5299,-3.4076,-3.3547,-3.3483,-3.0128,-2.8197,-2.7239,-2.4622,-2.3115,-2.2447,-2.1832,-2.1543,-2.1393,-2.0388,-2.0639,-2.1506,-2.0945,-2.0285,-1.9783,-1.9772,-1.9747,-1.9695,-1.9747,-1.9798,-1.9899,-2.0413,-2.0618,-2.069,-2.1242,-2.1393,-2.1518,-2.2071,-2.2272,-2.2176,-2.1788,-2.1747,-2.1584,-2.0624,-2.0422,-2.0812,-2.2115,-2.242,-2.3059,-2.474,-2.5145,-2.459,-2.2767,-2.1469,-2.0723,-2.0928,-2.0686,-2.0425,-2.0284,-2.1659,-2.2473,-2.2331,-2.2073,-2.211,-2.2704,-2.2655,-2.3108,-2.4425,-2.5063,-2.6936,-3.0411,-3.249,-3.4864,-3.7584,-3.9125,-3.9902,-3.9952,-3.9952,-3.9563,-0.0,-0.178,0.0,0.0,-0.4509,-0.6858,-0.7838,-0.8668,-0.9817,-1.2074,-1.3646,-1.4734,-1.5513,-1.6242,-1.7158,0.0,-1.9589,-2.0727,-2.2302,-2.3462,-2.403,-2.3556,-2.3369,-2.3188,-2.2819,-2.1824,-2.1231,-2.1375,-2.1104,-2.0697,-2.0205,-2.0809,-2.1396,-2.1768,-2.4216,-2.666,-2.9118,-3.1529,-3.3482,-3.5037,-3.4083,-3.3374,-3.2892,-2.9819,-2.7371,-2.5455,-2.3495,-2.2347,-2.1794,-2.1242,-2.0815,-2.0464,-1.9987,-2.0087,-2.0526,-2.0627,-2.0486,-2.0208,-2.0669,-2.0283,-1.9805,-2.0569,-2.0564,-2.0413,-2.0978,-2.1142,-2.1255,-2.1807,-2.2196,-2.2573,-2.315,-2.3527,-2.3567,-2.3003,-2.3192,-2.3511,-2.3147,-2.3067,-2.3369,-2.4457,-2.4528,-2.4653,-2.5444,-2.5875,-2.5884,-2.5102,-2.4015,-2.3134,-2.2688,-2.2965,-2.3478,-2.4036,-2.4155,-2.439,-2.4963,-2.426,-2.3945,-2.4095,-2.4025,-2.4672,-2.6165,-2.7451,-2.9859,-3.3501,-3.4957,-3.683,-3.9226,-3.9817,-4.007,-4.007,-4.007,-3.9918,0.1237,0.0,0.0,-0.066,-0.3526,-0.6595,-0.6534,-0.805,-0.9897,-1.1594,-1.3304,-1.471,-1.5337,-1.6249,-1.7253,-1.839,-1.9442,-2.094,-2.3171,-2.3893,-2.4154,-2.4127,-2.3897,-2.3871,-2.4243,-2.231,-2.1155,-2.1593,-2.0987,-2.0491,-2.0117,-2.0636,-2.1428,-2.2559,-2.5025,-2.7662,-3.0448,-3.2511,-3.4105,-3.5169,-3.3921,-3.287,-3.1907,-2.8873,-2.6139,-2.3683,-2.2705,-2.1907,-2.123,-2.0882,-2.0326,-1.9798,-1.9798,-1.9899,-2.0112,-2.0677,-2.0754,-2.0584,-2.1263,-2.0884,-2.0268,-2.1188,-2.1217,-2.0991,-2.1543,-2.1719,-2.1857,-2.2573,-2.3062,-2.3502,-2.4079,-2.4519,-2.4613,-2.3989,-2.4341,-2.4859,-2.5128,-2.5179,-2.5459,-2.6454,-2.6257,-2.6034,-2.6174,-2.638,-2.6533,-2.6533,-2.5873,-2.5146,-2.4397,-2.4992,-2.5664,-2.6383,-2.5873,-2.5791,-2.6769,-2.6195,-2.5824,-2.6077,-2.6183,-2.6866,-2.826,-2.9855,-3.2353,-3.5786,-3.6635,-3.8057,-4.007,-4.007,-4.007,-4.007,-4.007,-4.007,0.0,0.0,-0.1652,-0.1338,-0.2472,-0.4287,-0.6589,-0.7962,-0.9163,-1.0532,-1.1707,-1.2407,-1.2395,-1.426,-1.6108,-1.7172,-1.8937,-2.094,-2.3171,-2.3893,-2.4598,-2.563,-2.3666,-2.2767,0.0,-2.2907,-2.1593,-2.0712,-1.9687,-1.9891,-2.1734,-2.0801,-2.1635,-2.4629,-2.677,-2.9541,-3.3154,-3.3804,-3.4999,-3.6702,-3.3939,-3.1903,-3.0423,-2.6882,-2.4223,-2.2334,-2.2322,-2.1694,-2.0743,-2.0731,-2.0326,-1.9798,-1.9798,-2.015,-2.0756,-2.1255,-2.1129,-2.0765,-2.1305,-2.1481,-2.1468,-2.1481,-2.1481,-2.1568,-2.2121,-2.2284,-2.2523,-2.364,-2.3954,-2.4104,-2.4657,-2.4808,-2.482,-2.4755,-2.4755,-2.5065,-2.5883,-2.6069,-2.6476,-2.7905,-2.7471,-2.705,-2.7552,-2.7027,-2.6533,-2.6533,-2.6452,-2.6452,-2.6383,-2.6465,-2.6452,-2.6533,-2.6452,-2.6782,-2.7604,-2.767,-2.7986,-2.8798,-2.9476,-3.0247,-3.1008,-3.2357,-3.4262,-3.6702,-3.7422,-3.8525,-4.007,-4.007,-4.007,-4.007,-4.007,-4.007,0.0,0.0,-0.1991,-0.0725,-0.2003,-0.4178,-0.6557,-0.8005,-0.8979,-0.9352,-0.9925,-1.0536,-1.0882,-1.2076,-1.3669,-1.58,-1.7769,-1.9961,-2.2705,-2.345,-2.378,-2.3867,-2.3171,0.0,0.0,0.0,0.0,-2.0459,-1.9813,-1.9299,-1.9151,-2.1202,-2.3267,-2.5113,-2.7992,-3.0893,-3.3788,-3.4701,-3.5432,-3.5974,-3.2724,-2.9983,-2.7698,-2.5575,-2.3742,-2.2297,-2.192,-2.1343,-2.0693,-2.025,-1.9974,-1.9836,-2.0225,-2.0542,-2.0832,-2.1694,-2.192,-2.1832,-2.2385,-2.2347,-2.2096,-2.246,-2.2334,-2.2133,-2.2686,-2.3125,-2.3514,-2.3891,-2.4506,-2.5096,-2.5285,-2.5624,-2.5912,-2.5912,-2.5912,-2.6155,-2.6974,-2.6726,-2.683,-2.8406,-2.7576,-2.6876,-2.7577,-2.704,-2.6533,-2.6533,-2.6533,-2.6533,-2.6533,-2.6533,-2.6533,-2.6533,-2.6533,-2.685,-2.7604,-2.767,-2.8051,-2.8939,-3.0129,-3.1111,-3.1858,-3.3319,-3.514,-3.7438,-3.7694,-3.8557,-4.007,-4.007,-4.007,-4.007,-4.007,-4.007,0.0,-0.2342,-0.2556,-0.2576,-0.3077,-0.4216,-0.6669,-0.7709,-0.8189,-0.8288,-0.8739,-0.9288,-0.9725,-1.1023,-1.2699,-1.4819,-1.6782,-1.9121,-2.2135,-2.241,-2.2443,-2.2875,-2.2449,-2.17,0.0,0.0,0.0,-2.0382,-1.9396,-1.9108,-1.9779,-2.209,-2.4454,-2.6827,-2.9555,-3.2305,-3.4873,-3.537,-3.5117,-3.4114,-3.0932,-2.8142,-2.5675,-2.3782,-2.2496,-2.1694,-2.1107,-2.0648,-2.0326,-1.9962,-1.9798,-1.9861,-2.0439,-2.0844,-2.1066,-2.1983,-2.2435,-2.2661,-2.2952,-2.284,-2.2661,-2.2965,-2.2899,-2.2711,-2.3276,-2.3703,-2.4079,-2.4456,-2.5071,-2.5649,-2.585,-2.6189,-2.6533,-2.6533,-2.6533,-2.6714,-2.755,-2.7284,-2.7417,-2.9129,-2.8117,-2.7162,-2.8051,-2.7398,-2.6816,-2.7017,-2.7379,-2.7372,-2.6848,-2.6753,-2.6829,-2.703,-2.7042,-2.7575,-2.8746,-2.8611,-2.9094,-3.0529,-3.1492,-3.2328,-3.3001,-3.4203,-3.5675,-3.7322,-3.7632,-3.843,-3.9662,-3.9952,-4.007,-4.007,-4.007,-4.007,-0.1836,-0.1966,-0.316,-0.6017,-0.5215,-0.4399,-0.6794,-0.7122,-0.6996,-0.735,-0.7939,-0.8463,0.0,0.0,-1.316,-1.4389,-1.6332,-1.8696,-2.1607,-2.1062,-2.1073,0.0,0.0,0.0,0.0,0.0,0.0,-2.0771,0.0,-1.9335,-2.3339,-2.3667,-2.5495,-2.9504,-3.15,-3.3763,-3.6397,-3.5894,-3.4306,-3.1582,-2.8882,-2.6519,-2.4431,-2.1738,-2.0568,-2.0665,-1.9989,-1.9726,-1.9798,-1.985,-1.985,-1.9913,-2.0517,-2.1083,-2.1612,-2.2133,-2.2711,-2.3175,-2.3175,-2.3103,-2.3078,-2.314,-2.314,-2.3288,-2.3866,-2.4079,-2.433,-2.5322,-2.5636,-2.5799,-2.6395,-2.6533,-2.6533,-2.6533,-2.6533,-2.6714,-2.755,-2.767,-2.8247,-2.995,-2.8967,-2.8157,-2.8917,-2.8197,-2.7637,-2.8167,-2.8983,-2.9057,-2.7523,-2.7389,-2.7591,-2.8047,-2.8109,-2.8853,-3.0663,-3.0207,-3.092,-3.3317,-3.3529,-3.3829,-3.4442,-3.513,-3.5831,-3.6615,-3.7397,-3.8133,-3.8908,-3.9731,-4.007,-4.007,-4.007,-4.002,-0.4106,-0.2553,-0.0837,-0.1585,-0.402,-0.6355,-0.6744,-0.7047,-0.708,-0.663,-0.6568,-0.6817,0.0,0.0,0.0,-1.5207,-1.8308,0.0,-2.3363,-2.3472,0.0,-2.3319,0.0,-2.2461,-2.1624,-2.1302,0.0,0.0,-2.2257,-2.2268,-2.4525,-2.7087,-2.9326,-3.111,-3.2723,-3.4593,-3.6616,-3.653,-3.4855,-3.1582,-2.9787,-2.7345,-2.4445,-2.2621,-2.14,-2.0665,-2.049,-2.0167,-1.985,-2.0346,-2.056,-2.0651,-2.1602,-2.2029,-2.2234,-2.2736,-2.3288,-2.3778,-2.3778,-2.3502,-2.3215,-2.4117,-2.4117,-2.3879,-2.4443,-2.5184,-2.5799,-2.5636,-2.6201,-2.6791,-2.6527,-2.6533,-2.6533,-2.6533,-2.6533,-2.6714,-2.755,-2.767,-2.8247,-2.995,-3.0306,-3.0228,-2.9794,-2.9912,-3.0079,-3.0242,-3.046,-2.9941,-2.8113,-2.8505,-2.8686,-2.8157,-2.8109,-2.8853,-3.0663,-3.066,-3.1372,-3.3347,-3.3963,-3.4307,-3.4472,-3.513,-3.5831,-3.6615,-3.7397,-3.8133,-3.8908,-3.9731,-4.007,-4.007,-3.9489,-3.9209,-0.5442,-0.2925,-0.0,-0.0,-0.2044,-0.4433,-0.5984,-0.66,-0.668,-0.6149,-0.6089,0.0,0.0,0.0,0.0,0.0,0.0,0.0,-2.3248,-2.3718,-2.3926,0.0,-2.4393,0.0,-2.3395,-2.3908,-2.4881,0.0,-2.485,-2.4894,-2.7676,-3.0124,-3.2115,-3.3688,-3.4996,-3.5997,-3.667,-3.6423,-3.4704,-3.1582,-3.0198,-2.7765,-2.4445,-2.2704,-2.1499,-2.0665,-2.0382,-2.0207,-2.0258,-2.0646,-2.0944,-2.1331,-2.2479,-2.2684,-2.2507,-2.3341,-2.3628,-2.3653,-2.3916,-2.3791,-2.3653,-2.4544,-2.4456,-2.4142,-2.4921,-2.5774,-2.6508,-2.6364,-2.6967,-2.7519,-2.6967,-2.6816,-2.6753,-2.6584,-2.6782,-2.7162,-2.7604,-2.8252,-2.9084,-3.039,-3.116,-3.1489,-3.0912,-3.1098,-3.1417,-3.1681,-3.2078,-3.1791,-3.0275,-3.0006,-2.981,-2.949,-2.9111,-2.9602,-3.1447,-3.135,-3.2065,-3.4226,-3.4442,-3.4607,-3.4921,-3.5295,-3.5668,-3.6117,-3.7235,-3.7847,-3.7873,-3.9032,-3.9385,-3.9065,-3.8652,-3.8414,-0.526,-0.2828,-0.0,-0.0,-0.0176,-0.126,-0.4614,-0.583,-0.6164,-0.5837,0.0,-0.7089,-0.9953,0.0,-1.2835,-1.7035,0.0,-2.0196,-2.2879,-2.3621,-2.4354,-2.5447,-2.5893,-2.5973,-2.562,-2.6771,-2.8047,-2.943,-2.7533,-2.7981,-3.1772,-3.2956,-3.4445,-3.6398,-3.7318,-3.7415,-3.6561,-3.5992,-3.4333,-3.1725,-3.0323,-2.7955,-2.4735,-2.2666,-2.1533,-2.1074,-2.0293,-2.0426,-2.1169,-2.1189,-2.1464,-2.2088,-2.3284,-2.3212,-2.2669,-2.3857,-2.3819,-2.3265,-2.3828,-2.4054,-2.4192,-2.4745,-2.4607,-2.4406,-2.5498,-2.6214,-2.6779,-2.7256,-2.7795,-2.8084,-2.7544,-2.7523,-2.7468,-2.6987,-2.7504,-2.816,-2.8278,-2.9457,-3.0634,-3.1232,-3.194,-3.2443,-3.2227,-3.226,-3.2429,-3.2877,-3.3671,-3.3891,-3.3101,-3.1755,-3.1002,-3.1336,-3.0633,-3.0846,-3.2607,-3.2263,-3.2965,-3.5329,-3.4936,-3.4876,-3.5489,-3.5504,-3.5504,-3.5504,-3.689,-3.7279,-3.6615,-3.8044,-3.8414,-3.7822,-3.769,-3.7632,-0.1033,-0.053,-0.0,-0.0,-0.1322,-0.2594,-0.2543,-0.4612,0.0,0.0,0.0,-0.7007,-0.8882,-1.0097,0.0,-1.8304,0.0,0.0,0.0,0.0,-2.7311,0.0,0.0,0.0,0.0,0.0,0.0,0.0,-3.3135,-3.3754,-3.4534,-3.606,-3.682,-3.6553,-3.7381,-3.7134,-3.578,-3.5703,-3.4512,-3.2298,-3.0386,-2.8314,-2.6179,-2.4026,-2.3111,-2.3139,-2.2406,-2.2498,-2.3202,-2.3195,-2.3269,-2.3435,-2.4083,-2.3918,-2.3282,-2.4013,-2.409,-2.3866,-2.3966,-2.4293,-2.477,-2.5285,-2.5398,-2.5523,-2.6653,-2.7381,-2.7846,-2.7934,-2.836,-2.8662,-2.8109,-2.8569,-2.9083,-2.8978,-2.9685,-3.0627,-3.1282,-3.2179,-3.2951,-3.3069,-3.3654,-3.407,-3.4031,-3.4519,-3.4868,-3.4971,-3.5148,-3.5213,-3.5001,-3.4023,-3.3128,-3.2451,-3.2177,-3.2536,-3.3671,-3.3639,-3.4129,-3.5424,-3.5385,-3.5385,-3.5504,-3.5504,-3.5504,-3.5504,-3.6337,-3.6722,-3.6615,-3.7557,-3.7921,-3.7748,-3.71,-3.6783,-0.1566,-0.2744,-0.3315,-0.1945,-0.2231,-0.3033,-0.3723,0.0,0.0,0.0,0.0,-0.7156,-0.9234,0.0,0.0,0.0,0.0,0.0,0.0,0.0,0.0,0.0,0.0,0.0,0.0,0.0,0.0,0.0,-3.5702,-3.6718,-3.7105,-3.8309,-3.8652,-3.7815,-3.7479,-3.675,-3.5671,-3.4883,-3.3668,-3.196,-3.0637,-2.8962,-2.6995,-2.5649,-2.4664,-2.4121,-2.3753,-2.3837,-2.4241,-2.4201,-2.4436,-2.4746,-2.5345,-2.512,-2.4545,-2.523,-2.5141,-2.4682,-2.4589,-2.4931,-2.5422,-2.5542,-2.5799,-2.6201,-2.703,-2.7871,-2.8536,-2.8536,-2.9274,-3.0002,-2.946,-2.9984,-3.0649,-3.0337,-3.0999,-3.1968,-3.3103,-3.3728,-3.4113,-3.4472,-3.4801,-3.5011,-3.5011,-3.5295,-3.5504,-3.5504,-3.5504,-3.5504,-3.5504,-3.5067,-3.4394,-3.3449,-3.289,-3.2961,-3.3945,-3.4027,-3.4394,-3.5439,-3.5504,-3.5504,-3.5504,-3.5504,-3.5504,-3.5504,-3.6212,-3.6384,-3.6054,-3.6814,-3.6995,-3.66,-3.618,-3.6054,-0.3356,-0.5328,-0.6548,-0.445,-0.3686,-0.3895,-0.5444,-0.5962,0.0,0.0,-0.6227,-0.7163,-0.9589,0.0,0.0,0.0,0.0,0.0,0.0,0.0,0.0,0.0,0.0,0.0,0.0,0.0,0.0,0.0,-3.7065,-3.8293,-3.8871,-3.9376,-3.9206,-3.8231,-3.7021,-3.6007,-3.5268,-3.3951,-3.277,-3.1694,-3.0786,-2.9454,-2.7836,-2.6893,-2.5997,-2.5184,-2.5026,-2.5071,-2.5331,-2.515,-2.5398,-2.5869,-2.6393,-2.6164,-2.5589,-2.6265,-2.6153,-2.5604,-2.545,-2.5707,-2.612,-2.596,-2.6177,-2.6622,-2.7373,-2.8236,-2.9122,-2.9372,-3.0451,-3.1429,-3.1002,-3.1566,-3.2246,-3.2208,-3.2594,-3.3348,-3.4893,-3.4919,-3.491,-3.5627,-3.5619,-3.5504,-3.5504,-3.5504,-3.5504,-3.5504,-3.5504,-3.5504,-3.5504,-3.5504,-3.5213,-3.4394,-3.3671,-3.3533,-3.4245,-3.4312,-3.4691,-3.5439,-3.5504,-3.5504,-3.5504,-3.5504,-3.5504,-3.5504,-3.6054,-3.6054,-3.5504,-3.6054,-3.6054,-3.5504,-3.5504,-3.5504,-0.4684,-0.5277,-0.7005,-0.6486,-0.6142,-0.5904,-0.5806,0.0,0.0,0.0,-0.612,-0.6807,-0.8766,-0.7582,0.0,0.0,0.0,0.0,0.0,0.0,0.0,0.0,0.0,0.0,0.0,0.0,0.0,0.0,-3.793,-3.8874,-3.8958,-3.8487,-3.7515,-3.6027,-3.5298,-3.4483,-3.3696,-3.2918,-3.2444,-3.2412,-3.0501,-2.95,-2.9246,-2.7373,-2.6797,-2.7268,-2.662,-2.6695,-2.7285,-2.6688,-2.6449,-2.6497,-2.6572,-2.6164,-2.5589,-2.6265,-2.6422,-2.6284,-2.6282,-2.6519,-2.6799,-2.6788,-2.6631,-2.6759,-2.8001,-2.8878,-2.9707,-3.0988,-3.1926,-3.2451,-3.2396,-3.3087,-3.4167,-3.5717,-3.5604,-3.5601,-3.7184,-3.64,-3.5593,-3.6384,-3.5943,-3.5504,-3.5504,-3.5504,-3.5504,-3.5504,-3.5504,-3.5504,-3.5504,-3.5504,-3.5439,-3.5359,-3.5279,-3.5279,-3.5359,-3.5359,-3.5424,-3.5504,-3.5504,-3.5504,-3.5504,-3.5504,-3.5504,-3.5504,-3.5569,-3.5569,-3.5504,-3.5554,-3.5569,-3.5504,-3.5504,-3.5504,-0.7257,-0.7089,-0.7044,-0.679,-0.6746,-0.6764,-0.6535,0.0,0.0,-0.6996,-0.6768,-0.6745,-0.7375,-0.635,-0.6084,0.0,0.0,0.0,0.0,0.0,0.0,0.0,0.0,0.0,0.0,0.0,0.0,-3.6477,-3.7616,-3.7871,-3.7068,-3.7656,-3.7118,-3.5147,-3.4862,-3.3854,-3.2124,-3.2344,-3.1751,-3.0308,-2.9322,-2.8536,-2.8024,-2.6953,-2.6669,-2.693,-2.71,-2.7306,-2.7595,-2.729,-2.7186,-2.7186,-2.7186,-2.7006,-2.6828,-2.7506,-2.7744,-2.7781,-2.8026,-2.8243,-2.8344,-2.8206,-2.8109,-2.8092,-2.8383,-2.9547,-3.0909,-3.1419,-3.2486,-3.3449,-3.3449,-3.4507,-3.5773,-3.6415,-3.6753,-3.7071,-3.7648,-3.6935,-3.6275,-3.6554,-3.6006,-3.5504,-3.5504,-3.5504,-3.5504,-3.5504,-3.5504,-3.5504,-3.5504,-3.5504,-3.5504,-3.5504,-3.5504,-3.5504,-3.5504,-3.5504,-3.5504,-3.5504,-3.5504,-3.5504,-3.5504,-3.5504,-3.5504,-3.5504,-3.5504,-3.5504,-3.5504,-3.5504,-3.5504,-3.5504,-3.5504,-3.5504,-0.8904,-0.8623,-0.811,-0.7512,-0.7327,-0.7192,0.0,0.0,0.0,-0.7449,-0.7093,-0.6693,-0.6684,-0.5829,-0.5153,0.0,0.0,0.0,0.0,0.0,0.0,0.0,0.0,0.0,0.0,0.0,0.0,-3.6919,-3.7089,-3.6632,-3.5443,-3.5989,-3.5522,-3.3767,-3.3478,-3.2512,-3.0577,-3.1177,-3.0536,-2.8689,-2.8253,-2.774,-2.7219,-2.6687,-2.6616,-2.6878,-2.7357,-2.7625,-2.7625,-2.7625,-2.7625,-2.7625,-2.7625,-2.7625,-2.77,-2.8353,-2.8727,-2.8988,-2.9488,-2.9624,-2.9559,-2.9425,-2.9491,-2.9589,-2.9343,-3.0457,-3.1884,-3.2337,-3.3403,-3.4461,-3.4461,-3.5533,-3.6661,-3.6904,-3.7397,-3.7921,-3.8374,-3.7674,-3.6964,-3.6964,-3.6352,-3.5782,-3.5569,-3.5504,-3.5504,-3.5504,-3.5504,-3.5504,-3.5504,-3.5504,-3.5504,-3.5504,-3.5504,-3.5504,-3.5504,-3.5504,-3.5504,-3.5504,-3.5504,-3.5504,-3.5504,-3.5504,-3.5504,-3.5504,-3.5504,-3.5504,-3.5504,-3.5504,-3.5504,-3.5504,-3.5504,-3.5504,-0.889,-0.9586,-1.0494,-0.9382,-0.8272,-0.7481,0.0,0.0,0.0,-0.7037,-0.6773,-0.662,-0.7037,-0.605,-0.5236,-0.5378,-0.5304,0.0,0.0,0.0,0.0,0.0,0.0,0.0,0.0,0.0,0.0,-3.7764,-3.6456,0.0,-3.4721,-3.3282,-3.2105,-3.136,-3.0719,-2.9903,-2.9016,-2.9016,-2.8761,-2.8213,-2.7543,-2.7297,-2.7472,-2.6798,-2.6878,-2.7575,-2.7625,-2.7625,-2.7625,-2.7625,-2.7625,-2.7625,-2.7625,-2.7625,-2.77,-2.8353,-2.9011,-2.9669,-3.0283,-3.0396,-3.0315,-3.0269,-3.0657,-3.1147,-3.1147,-3.1622,-3.2492,-3.401,-3.4966,-3.5504,-3.5504,-3.6054,-3.6783,-3.7573,-3.7806,-3.8206,-3.9731,-3.8887,-3.7822,-3.7822,-3.7144,-3.6337,-3.5619,-3.5504,-3.5504,-3.5504,-3.5504,-3.5504,-3.5504,-3.5504,-3.5504,-3.5504,-3.5504,-3.5504,-3.5504,-3.5504,-3.5504,-3.5504,-3.5504,-3.5504,-3.5504,-3.5504,-3.5504,-3.5504,-3.5504,-3.5504,-3.5504,-3.5504,-3.5504,-3.5504,-3.5504,-3.5504,-0.8544,-0.8303,-0.7863,-0.7386,-0.7242,-0.7125,-0.6625,0.0,0.0,0.0,-0.6573,-0.62,-0.6631,-0.5726,-0.4927,-0.4975,-0.4799,0.0,0.0,0.0,0.0,0.0,0.0,0.0,0.0,0.0,-3.5612,-3.488,-3.3875,-3.301,-3.2359,-3.1344,-3.0707,-3.06,-2.986,-2.9002,-2.8117,-2.8337,-2.7786,-2.6401,-2.6459,-2.6481,-2.6498,-2.6759,-2.7103,-2.7505,-2.8012,-2.7993,-2.7625,-2.7625,-2.7625,-2.7625,-2.7625,-2.7859,-2.8353,-2.9026,-2.9669,-3.0372,-3.1495,-3.1529,-3.1235,-3.1664,-3.1945,-3.2182,-3.2626,-3.3232,-3.3962,-3.4916,-3.534,-3.5619,-3.6117,-3.6814,-3.7616,-3.8358,-3.8978,-3.9506,-4.002,-3.8887,-3.7822,-3.7822,-3.6768,-3.5782,-3.5569,-3.5504,-3.5504,-3.5504,-3.5504,-3.5504,-3.5504,-3.5504,-3.5504,-3.5504,-3.5504,-3.5504,-3.5504,-3.5504,-3.5504,-3.5504,-3.5504,-3.5504,-3.5504,-3.5504,-3.5504,-3.5504,-3.5504,-3.5504,-3.5504,-3.5504,-3.5504,-3.5504,-3.5504,-3.5504,0.0,-0.8109,-0.7673,-0.7349,-0.7103,0.0,0.0,0.0,0.0,0.0,0.0,0.0,0.0,0.0,0.0,0.0,0.0,0.0,0.0,0.0,0.0,0.0,0.0,0.0,0.0,0.0,-3.4647,-3.3186,-3.2269,-3.136,-3.0255,-2.9206,-2.8516,-2.8214,-2.8438,-2.8009,-2.6893,-2.6804,-2.6155,-2.4983,-2.5152,-2.5555,-2.6147,-2.6885,-2.7447,-2.7853,-2.8288,-2.814,0.0,-2.7625,-2.7625,-2.7655,-2.7859,-2.8218,-2.8712,-2.9609,-3.0178,-3.0687,-3.2048,-3.2243,-3.2018,-3.2677,-3.3051,-3.3426,-3.4364,-3.4753,-3.4951,-3.5385,-3.5504,-3.5668,-3.6384,-3.7203,-3.7978,-3.8745,-3.9489,-4.007,-4.007,-3.9102,-3.8149,-3.7863,-3.6768,-3.5846,-3.5569,-3.5718,-3.5831,-3.5569,-3.5718,-3.5831,-3.5569,-3.5504,-3.5504,-3.5504,-3.5504,-3.5504,-3.5504,-3.5504,-3.5504,-3.5504,-3.5504,-3.5504,-3.5504,-3.5782,-3.5782,-3.5504,-3.5782,-3.5782,-3.5504,-3.5504,-3.5604,-3.5894,-3.5619,-3.5504,0.0,0.0,0.0,0.0,0.0,0.0,0.0,0.0,0.0,0.0,0.0,0.0,0.0,0.0,0.0,0.0,0.0,0.0,0.0,0.0,0.0,0.0,0.0,0.0,0.0,-3.1459,-3.3732,-3.2154,-3.1192,-2.9895,-2.8183,-2.6671,-2.5456,-2.4637,-2.6413,-2.6773,-2.5532,-2.4626,-2.4171,-2.4054,-2.399,-2.4824,-2.6451,-2.7259,-2.7917,-2.8559,-2.8559,-2.8189,-2.7625,-2.7625,-2.7625,-2.7634,-2.8278,-2.8592,-2.8816,-2.9998,-3.0522,-3.0836,-3.2138,-3.2587,-3.2691,-3.335,-3.404,-3.4829,-3.6122,-3.6054,-3.5619,-3.5619,-3.5683,-3.5846,-3.6554,-3.7322,-3.8092,-3.8799,-3.9558,-4.007,-4.007,-3.9437,-3.8635,-3.7921,-3.716,-3.6384,-3.5668,-3.6165,-3.6446,-3.5668,-3.6165,-3.6322,-3.5619,-3.5504,-3.5504,-3.5504,-3.5504,-3.5504,-3.5504,-3.5504,-3.5504,-3.5504,-3.5504,-3.5504,-3.5504,-3.6228,-3.6275,-3.5504,-3.6165,-3.6228,-3.5554,-3.5504,-3.5894,-3.6615,-3.5831,-3.5504,-0.6262,0.0,-0.7169,-0.6895,0.0,0.0,0.0,0.0,0.0,0.0,0.0,0.0,0.0,0.0,0.0,0.0,0.0,0.0,0.0,0.0,0.0,0.0,0.0,0.0,0.0,-3.0607,-3.0594,-2.8784,-2.67,-2.5197,-2.4484,-2.2684,-2.1945,-2.2592,-2.3781,-2.4472,-2.4506,-2.3871,-2.3989,-2.4862,-2.5314,-2.6299,-2.7862,-2.8934,-2.9297,-2.918,-2.918,-2.8591,-2.7625,-2.7625,-2.7625,-2.764,-2.7754,-2.8442,-2.9385,-2.9684,-3.0746,-3.2168,-3.2976,-3.326,-3.338,-3.4038,-3.4743,-3.5385,-3.5682,-3.6054,-3.6446,-3.7055,-3.7235,-3.7397,-3.8173,-3.8509,-3.8854,-3.961,-3.9952,-4.007,-4.007,-3.8995,-3.8035,-3.7806,-3.716,-3.6554,-3.6384,-3.698,-3.7279,-3.6446,-3.6492,-3.6322,-3.5619,-3.5504,-3.5504,-3.5504,-3.5504,-3.5504,-3.5504,-3.5504,-3.5504,-3.5504,-3.5504,-3.5504,-3.5504,-3.6228,-3.6275,-3.5504,-3.5668,-3.5943,-3.6337,-3.5782,-3.5894,-3.6615,-3.5831,-3.5504,-0.5746,-0.5945,-0.6146,-0.5992,-0.5752,-0.5464,0.0,0.0,0.0,0.0,0.0,0.0,0.0,0.0,0.0,0.0,0.0,0.0,0.0,0.0,0.0,0.0,0.0,0.0,0.0,-2.7906,-2.6479,-2.372,-2.2551,-2.1541,-2.0486,-1.9889,-2.0043,-2.1146,-2.2603,-2.3484,-2.3795,-2.4171,-2.4798,-2.5666,-2.6566,-2.7777,-2.9264,-2.9909,-2.992,-2.9361,-2.9088,-2.8448,-2.7625,-2.7625,-2.7625,-2.7685,-2.8263,-2.8936,-2.9654,-3.0253,-3.1345,-3.2617,-3.326,-3.3903,-3.4472,-3.4831,-3.5238,-3.5582,-3.5885,-3.6523,-3.7144,-3.7219,-3.7515,-3.7978,-3.869,-3.8635,-3.8707,-3.985,-3.9833,-3.9662,-4.002,-3.9156,-3.8302,-3.8302,-3.7674,-3.716,-3.716,-3.7515,-3.7515,-3.6722,-3.6615,-3.6322,-3.5619,-3.5504,-3.5504,-3.5504,-3.5504,-3.5504,-3.5504,-3.5504,-3.5504,-3.5504,-3.5504,-3.5504,-3.5504,-3.6228,-3.6384,-3.6006,-3.5668,-3.5831,-3.6615,-3.5831,-3.5894,-3.6615,-3.5831,-3.5504,-0.5645,-0.5678,-0.5711,-0.5711,-0.5305,-0.4927,0.0,0.0,0.0,0.0,0.0,0.0,0.0,0.0,0.0,0.0,0.0,0.0,0.0,0.0,0.0,0.0,0.0,0.0,-2.4798,-2.3895,-2.1969,-1.8536,-1.8592,-1.8154,-1.6836,-1.762,-1.8898,-2.0615,-2.2553,-2.3758,-2.4136,-2.5355,-2.6272,-2.6958,-2.8104,-2.9394,-3.0629,-3.0712,-3.0408,-2.9681,-2.9045,-2.8446,-2.7925,-2.7925,-2.7925,-2.7993,-2.9131,-2.9748,-3.0027,-3.1091,-3.212,-3.3093,-3.3864,-3.4893,-3.5861,-3.5861,-3.591,-3.6133,-3.6631,-3.744,-3.7978,-3.7188,-3.7557,-3.8318,-3.8924,-3.8652,-3.8486,-3.9799,-3.961,-3.9262,-3.9952,-3.9489,-3.8908,-3.8908,-3.8302,-3.7822,-3.7822,-3.7822,-3.7515,-3.6722,-3.6615,-3.6322,-3.5619,-3.5504,-3.5504,-3.5504,-3.5504,-3.5504,-3.5504,-3.5504,-3.5504,-3.5504,-3.5504,-3.5554,-3.5668,-3.6165,-3.6508,-3.6615,-3.5894,-3.5831,-3.6615,-3.5831,-3.5894,-3.6615,-3.5831,-3.5504,-0.5344,-0.5524,-0.5711,-0.5711,-0.5645,-0.5511,0.0,0.0,0.0,0.0,0.0,0.0,0.0,0.0,0.0,0.0,0.0,0.0,0.0,0.0,0.0,0.0,0.0,-2.3393,-1.9442,-1.8841,-1.793,-1.5944,-1.4649,-1.4359,-1.5302,-1.5257,-1.7268,-2.1712,-2.3649,-2.5639,-2.7905,-2.758,-2.8225,-2.9853,-3.0568,-3.1373,-3.2147,-3.2134,-3.1765,-3.115,-3.0467,-2.9852,-2.9265,-2.9265,-2.9265,-2.9295,-2.9505,-3.0273,-3.132,-3.1468,-3.3095,-3.5395,-3.6695,-3.7282,-3.7472,-3.7472,-3.7847,-3.8286,-3.7748,-3.8596,-3.9558,-3.8799,-3.9139,-3.9782,-3.9901,-3.985,-3.9799,-4.002,-4.002,-3.9952,-4.007,-3.9489,-3.8908,-3.8908,-3.8302,-3.7822,-3.7822,-3.7822,-3.7515,-3.6722,-3.6615,-3.6322,-3.5619,-3.5504,-3.5504,-3.5504,-3.5504,-3.5504,-3.5504,-3.5504,-3.5504,-3.5504,-3.5504,-3.5782,-3.6384,-3.5943,-3.5943,-3.6615,-3.5894,-3.5831,-3.6615,-3.5831,-3.5894,-3.6615,-3.5831,-3.5504,-0.5511,-0.5611,-0.5865,-0.65,-0.6299,0.0,0.0,0.0,0.0,0.0,0.0,0.0,0.0,0.0,0.0,0.0,0.0,0.0,0.0,0.0,0.0,0.0,0.0,-1.859,-1.5859,-1.5038,-1.4144,-1.2841,-1.2441,-1.3146,-1.524,-1.6826,-1.9676,-2.4034,-2.6685,-2.9045,-3.1213,-3.1344,-3.1467,-3.1577,-3.2628,-3.309,-3.3027,-3.2655,-3.1951,-3.0914,-3.0299,-2.9872,-2.9633,-3.0,-3.0143,-3.0225,-3.0944,-3.1851,-3.2882,-3.3951,-3.5196,-3.6453,-3.7454,-3.7822,-3.7822,-3.7822,-3.8035,-3.8246,-3.7921,-3.8596,-3.9368,-3.9016,-3.9489,-4.007,-4.007,-3.9782,-3.9542,-4.002,-3.9454,-3.8941,-3.9385,-3.887,-3.8414,-3.8799,-3.8302,-3.7921,-3.8318,-3.7716,-3.7024,-3.6676,-3.6275,-3.5894,-3.5554,-3.5504,-3.5504,-3.5504,-3.5504,-3.5504,-3.5504,-3.5504,-3.5504,-3.5504,-3.5894,-3.6228,-3.6615,-3.6275,-3.6275,-3.66,-3.5894,-3.5668,-3.6006,-3.5668,-3.5668,-3.6006,-3.5683,-3.5504,-0.5833,-0.5865,-0.6096,-0.6865,0.0,0.0,0.0,0.0,0.0,0.0,0.0,0.0,0.0,0.0,0.0,0.0,0.0,0.0,0.0,0.0,0.0,-1.8724,-1.6422,-1.4369,-1.2729,-1.212,-1.1555,-1.0745,-1.1592,-1.3571,-1.6762,-1.9515,-2.2924,-2.7001,-2.9788,-3.2033,-3.381,-3.451,-3.4294,-3.324,-3.431,-3.4454,-3.3722,-3.3275,-3.2294,-3.0985,-3.0487,-3.0286,-3.034,-3.0865,-3.1145,-3.1397,-3.2424,-3.3361,-3.4426,-3.6567,-3.7329,-3.7374,-3.8068,-3.8318,-3.8318,-3.8318,-3.8318,-3.8318,-3.8318,-3.8761,-3.9193,-3.9193,-3.961,-4.007,-4.007,-3.9662,-3.9315,-3.9952,-3.9226,-3.843,-3.8799,-3.8469,-3.8246,-3.8799,-3.8302,-3.7978,-3.8525,-3.7541,-3.6554,-3.6399,-3.5831,-3.5504,-3.5504,-3.5504,-3.5504,-3.5504,-3.5504,-3.5504,-3.5504,-3.5683,-3.5782,-3.5782,-3.6275,-3.6661,-3.6843,-3.6737,-3.6615,-3.6615,-3.5894,-3.5504,-3.5504,-3.5504,-3.5504,-3.5504,-3.5504,-3.5504,-0.619,-0.6357,-0.6429,-0.5953,0.0,0.0,0.0,0.0,0.0,0.0,0.0,0.0,0.0,0.0,0.0,0.0,0.0,0.0,0.0,0.0,-1.859,-1.603,-1.4586,-1.2652,-0.9548,-1.0173,-1.0804,-1.104,-1.2816,-1.579,-2.0355,-2.2206,-2.5563,-3.0675,-3.1829,-3.3371,-3.5391,-3.5515,-3.5481,-3.5369,-3.5481,-3.5174,-3.451,-3.4462,-3.3724,-3.2447,-3.2392,-3.2392,-3.2392,-3.2447,-3.2845,-3.3387,-3.3486,-3.435,-3.5808,-3.8002,-3.8787,-3.8842,-3.9662,-3.9952,-3.9952,-3.9952,-3.9952,-3.9952,-3.9952,-3.9969,-4.002,-4.002,-4.007,-4.007,-4.007,-4.007,-4.002,-4.007,-4.002,-3.9731,-3.9032,-3.8854,-3.8854,-3.8908,-3.8302,-3.7822,-3.7863,-3.7144,-3.6399,-3.5668,-3.5504,-3.5504,-3.5504,-3.5504,-3.5504,-3.5504,-3.5504,-3.5504,-3.5504,-3.6117,-3.6492,-3.6492,-3.6554,-3.6904,-3.769,-3.6964,-3.6615,-3.6615,-3.5894,-3.5504,-3.5504,-3.5504,-3.5504,-3.5504,-3.5504,-3.5504,-0.6546,-0.7757,-0.9125,-0.933,0.0,0.0,0.0,0.0,0.0,0.0,0.0,0.0,0.0,0.0,0.0,0.0,0.0,0.0,0.0,0.0,-1.4721,-1.2407,-1.1072,-0.9883,-0.8619,-0.9873,-1.1594,-1.3572,-1.6203,-1.9575,-2.4019,-2.6343,-2.9146,-3.2595,-3.3848,-3.4827,-3.556,-3.5622,-3.5622,-3.5622,-3.5622,-3.5253,-3.4576,-3.4576,-3.4087,-3.3235,-3.3235,-3.3235,-3.3235,-3.3684,-3.4246,-3.5052,-3.6439,-3.7302,-3.7935,-3.9227,-3.9665,-3.9662,-4.0003,-4.007,-4.007,-4.007,-4.007,-4.007,-4.007,-4.007,-4.007,-4.007,-4.007,-4.007,-4.007,-4.007,-4.007,-4.007,-3.9731,-3.9139,-3.8358,-3.7831,-3.7467,-3.7467,-3.6859,-3.6538,-3.698,-3.6399,-3.5831,-3.5569,-3.5504,-3.5504,-3.5504,-3.5504,-3.5504,-3.5504,-3.5504,-3.5668,-3.6165,-3.6446,-3.7008,-3.7987,-3.8044,-3.8173,-3.8469,-3.7732,-3.7338,-3.7338,-3.6133,-3.5504,-3.5504,-3.5504,-3.5504,-3.5504,-3.5504,-3.5504,-0.706,-0.8881,-1.0973,0.0,0.0,0.0,0.0,0.0,0.0,0.0,0.0,0.0,0.0,0.0,0.0,0.0,0.0,0.0,0.0,-1.3142,-1.1564,-1.0199,-0.9585,-0.9342,-0.948,-1.1486,-1.3969,-1.6944,-1.9857,-2.3285,-2.7295,-2.9635,-3.1675,-3.3478,-3.4667,-3.5267,-3.5267,-3.5267,-3.5385,-3.5622,-3.5622,-3.5253,-3.4624,-3.483,-3.4431,-3.3582,-3.3836,-3.3937,-3.3937,-3.4431,-3.5033,-3.5856,-3.7896,-3.865,-3.8768,-3.9715,-4.007,-4.007,-4.007,-4.007,-4.007,-4.007,-4.007,-4.007,-4.007,-4.007,-4.007,-4.007,-4.007,-4.007,-4.007,-4.007,-4.007,-4.007,-3.9662,-3.9032,-3.8035,-3.7397,-3.6904,-3.6661,-3.6165,-3.6006,-3.6492,-3.6165,-3.5782,-3.5569,-3.5504,-3.5504,-3.5504,-3.5504,-3.5504,-3.5504,-3.5733,-3.6054,-3.6554,-3.7068,-3.7758,-3.8854,-3.9139,-3.9139,-3.8908,-3.8189,-3.769,-3.7456,-3.6133,-3.5504,-3.5504,-3.5504,-3.5504,-3.5504,-3.5504,-3.5504,-0.7788,-0.9553,0.0,0.0,0.0,0.0,0.0,0.0,0.0,0.0,0.0,0.0,0.0,0.0,0.0,0.0,0.0,-1.2988,-1.3287,-1.1138,-0.9607,-0.9903,-1.0696,-1.1587,-1.235,-1.5056,-1.7992,-2.0985,-2.369,-2.6635,-3.0112,-3.1716,-3.2779,-3.3364,-3.4117,-3.4489,-3.4506,-3.4489,-3.4878,-3.5622,-3.5622,-3.5253,-3.4624,-3.5316,-3.4864,-3.3649,-3.4333,-3.4624,-3.4624,-3.4657,-3.5021,-3.5791,-3.733,-3.7922,-3.8108,-3.9546,-4.007,-4.007,-4.007,-4.007,-4.007,-4.007,-4.007,-4.007,-4.007,-4.007,-4.007,-4.007,-4.007,-4.007,-4.007,-4.007,-4.007,-4.007,-4.007,-3.9679,-3.8149,-3.7822,-3.7573,-3.6737,-3.6615,-3.6615,-3.6615,-3.6615,-3.6337,-3.5619,-3.5504,-3.5504,-3.5504,-3.5504,-3.5504,-3.5504,-3.6165,-3.6615,-3.6615,-3.7987,-3.8908,-3.8908,-3.9662,-3.9731,-3.8908,-3.8189,-3.7456,-3.6615,-3.5894,-3.5504,-3.5504,-3.5504,-3.5504,-3.5504,-3.5504,-3.5504,-1.0243,0.0,0.0,0.0,0.0,0.0,0.0,0.0,0.0,0.0,0.0,0.0,0.0,0.0,0.0,-1.6548,-1.4832,-1.3483,-1.2795,-1.2412,-1.2284,-1.2372,-1.3121,-1.4269,-1.5661,-1.8162,-2.0784,-2.3467,-2.6323,-2.8889,-3.0952,-3.1907,-3.29,-3.4134,-3.388,-3.4218,-3.5267,-3.4759,-3.4878,-3.5622,-3.5622,-3.5515,-3.5316,-3.5515,-3.5362,-3.5005,-3.5207,-3.5316,-3.54,-3.6458,-3.7023,-3.7381,-3.8853,-3.9428,-3.9478,-3.9918,-4.007,-4.007,-4.007,-4.007,-4.007,-4.007,-4.007,-4.007,-4.007,-4.007,-4.007,-4.007,-4.007,-4.007,-4.007,-4.007,-4.007,-4.007,-4.007,-3.9679,-3.8149,-3.7822,-3.7413,-3.607,-3.5846,-3.5846,-3.5846,-3.5846,-3.5718,-3.5504,-3.5504,-3.5504,-3.5504,-3.5504,-3.5504,-3.5504,-3.6165,-3.6843,-3.7397,-3.8358,-3.9139,-3.9714,-3.9437,-3.9139,-3.8908,-3.8189,-3.7456,-3.6615,-3.5894,-3.5504,-3.5504,-3.5504,-3.5504,-3.5504,-3.5504,-3.5504,-1.1985,0.0,0.0,0.0,0.0,0.0,0.0,0.0,0.0,0.0,0.0,0.0,0.0,0.0,0.0,-1.8349,-1.6338,-1.4812,-1.4395,-1.4673,-1.4924,-1.4924,-1.637,-1.8019,-1.9672,-2.1719,-2.4054,-2.6724,-2.8888,-3.0773,-3.2412,-3.2925,-3.3549,-3.4353,-3.4041,-3.4269,-3.5165,-3.4726,-3.4878,-3.5622,-3.5622,-3.5622,-3.5622,-3.5622,-3.5622,-3.5622,-3.5622,-3.5622,-3.5723,-3.6958,-3.7449,-3.7601,-3.9073,-3.9648,-3.9681,-3.9969,-4.007,-4.007,-4.007,-4.007,-4.007,-4.007,-4.007,-4.007,-4.007,-4.007,-4.007,-4.007,-4.007,-4.007,-4.007,-4.007,-4.007,-4.007,-4.007,-3.9731,-3.8486,-3.8035,-3.7413,-3.618,-3.5733,-3.5504,-3.5504,-3.5504,-3.5504,-3.5504,-3.5504,-3.5504,-3.5504,-3.5504,-3.5619,-3.5894,-3.6631,-3.7381,-3.8189,-3.8924,-3.9594,-4.007,-3.9315,-3.8745,-3.8469,-3.7732,-3.698,-3.6165,-3.5733,-3.5504,-3.5504,-3.5504,-3.5504,-3.5504,-3.5504,-3.5504,0.0,0.0,0.0,0.0,0.0,0.0,0.0,0.0,0.0,0.0,0.0,0.0,0.0,0.0,-2.1948,-2.168,-1.8989,-1.7105,-1.774,-1.7855,-1.791,-1.791,-2.0234,-2.2405,-2.3912,-2.5533,-2.7605,-3.036,-3.126,-3.2412,-3.4172,-3.4442,-3.4487,-3.4384,-3.4453,-3.461,-3.4746,-3.4678,-3.5018,-3.5739,-3.5694,-3.5694,-3.5739,-3.565,-3.5622,-3.5622,-3.5622,-3.5622,-3.569,-3.6535,-3.6874,-3.7026,-3.8514,-3.9089,-3.9174,-3.9834,-4.007,-4.007,-4.007,-4.007,-4.007,-4.007,-4.007,-4.007,-4.007,-4.007,-4.007,-4.007,-4.007,-4.007,-4.007,-4.007,-4.007,-4.007,-4.007,-3.9901,-3.9086,-3.8302,-3.7573,-3.6737,-3.6006,-3.5504,-3.5504,-3.5504,-3.5504,-3.5504,-3.5504,-3.5504,-3.5504,-3.5554,-3.5831,-3.6554,-3.7381,-3.8149,-3.8854,-3.961,-4.007,-4.007,-3.9262,-3.8525,-3.7822,-3.7024,-3.6275,-3.5504,-3.5504,-3.5504,-3.5504,-3.5504,-3.5504,-3.5504,-3.5504,-3.5504,0.0,0.0,0.0,0.0,0.0,0.0,0.0,0.0,0.0,0.0,0.0,0.0,0.0,0.0,-2.4164,-2.3593,-2.2315,-2.144,-2.1608,-2.2186,-2.2639,-2.2639,-2.4166,-2.5859,-2.7319,-2.8636,-3.0298,-3.2495,-3.3247,-3.3921,-3.4694,-3.478,-3.508,-3.5611,-3.5097,-3.5392,-3.6601,-3.5987,-3.6075,-3.6865,-3.6416,-3.6457,-3.6825,-3.5968,-3.5622,-3.5622,-3.5622,-3.5622,-3.5723,-3.7094,-3.7669,-3.7804,-3.9276,-3.9834,-3.9868,-4.002,-4.007,-4.007,-4.007,-4.007,-4.007,-4.007,-4.007,-4.007,-4.007,-4.007,-4.007,-4.007,-4.007,-4.007,-4.007,-4.007,-4.007,-4.007,-4.007,-3.9901,-3.9086,-3.8302,-3.7573,-3.6737,-3.6006,-3.5504,-3.5504,-3.5504,-3.5504,-3.5504,-3.5504,-3.5504,-3.5504,-3.6006,-3.6446,-3.6615,-3.7831,-3.8745,-3.8908,-3.961,-4.007,-4.007,-3.8816,-3.7978,-3.7822,-3.7024,-3.6275,-3.5504,-3.5504,-3.5504,-3.5504,-3.5504,-3.5504,-3.5504,-3.5504,-3.5504,0.0,0.0,0.0,0.0,0.0,0.0,0.0,0.0,0.0,0.0,0.0,0.0,0.0,-2.7078,-2.707,-2.6696,-2.5449,-2.464,-2.4943,-2.5368,-2.5793,-2.6184,-2.7447,-2.8873,-3.0273,-3.1229,-3.2426,-3.4127,-3.4749,-3.5435,-3.6307,-3.6114,-3.6274,-3.6881,-3.6328,-3.6183,-3.6551,-3.6571,-3.6571,-3.6569,-3.6728,-3.6803,-3.6803,-3.6249,-3.5854,-3.5639,-3.6011,-3.596,-3.5774,-3.7652,-3.8227,-3.8058,-3.9512,-4.007,-4.007,-4.007,-4.007,-4.007,-4.007,-4.007,-4.007,-4.007,-4.007,-4.007,-4.007,-4.007,-4.007,-4.007,-4.007,-4.007,-4.007,-4.007,-4.007,-4.007,-4.007,-4.002,-3.9558,-3.8596,-3.7706,-3.7279,-3.6243,-3.5504,-3.5504,-3.5504,-3.5504,-3.5504,-3.5504,-3.5619,-3.6006,-3.6384,-3.6888,-3.7642,-3.8398,-3.9086,-3.9437,-3.9489,-3.9542,-3.9542,-3.806,-3.7219,-3.7219,-3.6461,-3.5894,-3.5504,-3.5504,-3.5504,-3.5504,-3.5504,-3.5504,-3.5504,-3.5504,-3.5504,0.0,0.0,0.0,0.0,0.0,0.0,0.0,0.0,0.0,0.0,0.0,0.0,0.0,-3.0477,-2.9611,-2.9446,-2.8,-2.7091,-2.7682,-2.7849,-2.8156,-2.8753,-3.0037,-3.1359,-3.2713,-3.3296,-3.4174,-3.544,-3.5913,-3.6577,-3.7579,-3.7255,-3.722,-3.7615,-3.7255,-3.6684,-3.5972,-3.6827,-3.6898,-3.6203,-3.7059,-3.7114,-3.6416,-3.6498,-3.6165,-3.5656,-3.6299,-3.6282,-3.5977,-3.7973,-3.8531,-3.8227,-3.9546,-4.007,-4.007,-4.007,-4.007,-4.007,-4.007,-4.007,-4.007,-4.007,-4.007,-4.007,-4.007,-4.007,-4.007,-4.007,-4.007,-4.007,-4.007,-4.007,-4.007,-4.007,-4.007,-4.007,-3.9901,-3.8778,-3.7748,-3.7632,-3.6492,-3.5504,-3.5504,-3.5504,-3.5554,-3.5668,-3.5554,-3.5846,-3.6676,-3.6783,-3.7365,-3.8745,-3.9016,-3.9368,-4.002,-3.9368,-3.8908,-3.8908,-3.7467,-3.6615,-3.6615,-3.5894,-3.5504,-3.5504,-3.5504,-3.5504,-3.5504,-3.5504,-3.5504,-3.5504,-3.5504,-3.5564,0.0,0.0,0.0,0.0,0.0,0.0,0.0,0.0,0.0,0.0,0.0,0.0,-3.1614,-3.083,-3.0132,-2.9574,-2.9202,-2.9037,-2.9148,-2.9656,-3.0116,-3.0195,-3.144,-3.2729,-3.3997,-3.4682,-3.543,-3.6432,-3.6586,-3.657,-3.6527,-3.6461,-3.6431,-3.6509,-3.6461,-3.6376,-3.6236,-3.7052,-3.74,-3.7308,-3.8112,-3.7756,-3.6416,-3.6882,-3.6563,-3.5622,-3.5723,-3.6096,-3.6688,-3.7652,-3.8362,-3.8937,-3.9749,-4.007,-4.007,-4.007,-4.007,-4.007,-4.007,-4.007,-4.007,-4.007,-4.007,-4.007,-4.007,-4.007,-4.007,-4.007,-4.007,-4.007,-4.007,-4.007,-4.007,-4.007,-4.007,-3.9901,-3.9193,-3.843,-3.7573,-3.6919,-3.6054,-3.5504,-3.5504,-3.5504,-3.5733,-3.6337,-3.5894,-3.6022,-3.7472,-3.7632,-3.7962,-3.8799,-3.9542,-3.9952,-4.007,-3.9368,-3.8908,-3.8908,-3.7467,-3.6615,-3.6615,-3.5894,-3.5504,-3.5504,-3.5504,-3.5504,-3.5504,-3.5504,-3.5504,-3.5504,-3.5504,-3.5804,0.0,0.0,0.0,0.0,0.0,0.0,0.0,0.0,0.0,0.0,0.0,0.0,-3.1502,-3.1191,-3.0859,-3.0539,-3.0186,-3.0038,-3.0473,-3.0782,-3.1316,-3.2131,-3.3305,-3.4286,-3.4802,-3.5595,-3.6078,-3.6023,-3.63,-3.6407,-3.6321,-3.6303,-3.6303,-3.6303,-3.6303,-3.6064,-3.5587,-3.6835,-3.7716,-3.8175,-3.8524,-3.8201,-3.723,-3.721,-3.6586,-3.5639,-3.6079,-3.6214,-3.6248,-3.7855,-3.8464,-3.8497,-3.9631,-4.007,-4.007,-4.007,-4.007,-4.007,-4.007,-4.007,-4.007,-4.007,-4.007,-4.007,-4.007,-4.007,-4.007,-4.007,-4.007,-4.007,-4.007,-4.007,-4.007,-4.007,-4.007,-3.9782,-3.8541,-3.8035,-3.7472,-3.6243,-3.5733,-3.5619,-3.607,-3.6117,-3.6399,-3.716,-3.6631,-3.6523,-3.7632,-3.7397,-3.76,-3.8799,-3.9209,-3.9437,-3.9437,-3.8707,-3.8076,-3.7642,-3.6569,-3.6006,-3.6006,-3.5668,-3.5504,-3.5504,-3.5504,-3.5504,-3.5504,-3.5504,-3.5504,-3.5504,-3.5504,-3.5863,0.0,0.0,0.0,0.0,0.0,0.0,0.0,0.0,0.0,0.0,0.0,0.0,-3.0879,-3.1053,-3.1149,-3.1303,-3.0856,-3.0701,-3.1274,-3.1523,-3.2064,-3.3305,-3.4353,-3.5057,-3.5273,-3.5954,-3.6107,-3.5421,-3.5743,-3.5881,-3.5679,-3.5661,-3.5661,-3.5661,-3.5661,-3.5349,-3.4706,-3.6358,-3.7698,-3.8707,-3.8707,-3.8415,-3.7911,-3.7542,-3.6786,-3.5817,-3.6276,-3.6265,-3.6045,-3.7736,-3.8227,-3.8041,-3.9309,-3.9883,-4.0031,-4.0218,-4.0286,-4.0286,-4.0286,-4.0204,-4.007,-4.007,-4.007,-4.007,-4.007,-4.007,-4.007,-4.007,-4.007,-4.007,-4.007,-4.007,-4.007,-4.007,-4.007,-3.9679,-3.8149,-3.7472,-3.6906,-3.5733,-3.5668,-3.5943,-3.6508,-3.6615,-3.6843,-3.769,-3.6995,-3.6692,-3.769,-3.71,-3.7128,-3.8469,-3.8635,-3.869,-3.8908,-3.8246,-3.7515,-3.6964,-3.618,-3.5668,-3.5504,-3.5668,-3.5668,-3.5504,-3.5668,-3.5668,-3.5504,-3.5504,-3.5504,-3.5504,-3.5669,-3.6103,0.0,0.0,0.0,0.0,0.0,0.0,0.0,0.0,0.0,0.0,0.0,0.0,-2.9614,-3.0025,-3.0573,-3.1221,-3.1224,-3.1168,-3.1202,-3.1793,-3.2451,-3.2955,-3.3688,-3.4524,-3.5388,-3.5519,-3.5403,-3.5044,-3.5045,-3.4743,-3.3972,-3.3935,-3.3935,-3.3935,-3.3935,-3.3917,-3.3862,-3.5514,-3.7147,-3.8707,-3.8707,-3.8415,-3.7893,-3.7859,-3.7305,-3.6333,-3.5861,-3.6079,-3.6721,-3.6857,-3.7297,-3.799,-3.8751,-3.9375,-3.9887,-4.0597,-4.0856,-4.0856,-4.0856,-4.0546,-4.007,-4.007,-4.007,-4.007,-4.007,-4.007,-4.007,-4.007,-4.007,-4.007,-4.007,-4.007,-4.007,-4.007,-4.007,-3.9679,-3.8149,-3.6662,-3.5619,-3.5504,-3.6054,-3.6554,-3.66,-3.6615,-3.6843,-3.769,-3.6538,-3.6085,-3.7589,-3.71,-3.6904,-3.7748,-3.7863,-3.8133,-3.8854,-3.8246,-3.7748,-3.7748,-3.698,-3.6228,-3.5504,-3.6165,-3.6228,-3.5504,-3.6165,-3.6228,-3.5504,-3.5504,-3.5504,-3.5519,-3.6148,-3.6761,0.0,0.0,0.0,0.0,0.0,0.0,0.0,0.0,0.0,0.0,0.0,0.0,-2.9375,-2.998,-3.0612,-3.1199,-3.165,-3.1901,-3.1901,-3.2527,-3.3083,-3.323,-3.4226,-3.4631,-3.3951,-3.4162,-3.4207,-3.3851,-3.3826,-3.3832,-3.3807,-3.3807,-3.3807,-3.3807,-3.3807,-3.4321,-3.5385,-3.5459,-3.656,-3.8689,-3.8175,-3.8114,-3.8382,-3.8065,-3.7702,-3.7342,-3.6825,-3.6613,-3.6603,-3.7453,-3.7927,-3.8216,-3.8584,-3.9152,-3.9738,-3.9675,-3.9958,-4.0368,-4.0368,-4.0237,-4.007,-4.007,-4.007,-4.007,-4.007,-4.007,-4.007,-4.007,-4.007,-4.007,-4.007,-4.007,-4.007,-4.007,-3.9731,-3.9193,-3.8635,-3.769,-3.6829,-3.629,-3.6874,-3.7499,-3.7987,-3.7658,-3.779,-3.9049,-3.7541,-3.6737,-3.8302,-3.7365,-3.7068,-3.8358,-3.8525,-3.8635,-3.8854,-3.8635,-3.8302,-3.7806,-3.7515,-3.7219,-3.7011,-3.7219,-3.7235,-3.7011,-3.7235,-3.6768,-3.5504,-3.5504,-3.5729,-3.6148,-3.6372,-3.7045,0.0,0.0,0.0,0.0,0.0,0.0,0.0,0.0,0.0,0.0,0.0,0.0,-2.9772,-3.0964,-3.1715,-3.1508,-3.1975,-3.232,-3.2144,-3.281,-3.3162,-3.2889,-3.3864,-3.4085,-3.2946,-3.3107,-3.3199,-3.2988,-3.3105,-3.3302,-3.3578,-3.3734,-3.3807,-3.3807,-3.3807,-3.4596,-3.6266,-3.5734,-3.6541,-3.8689,-3.8157,-3.8175,-3.8707,-3.8332,-3.8065,-3.7893,-3.7773,-3.7285,-3.6719,-3.7584,-3.7931,-3.7962,-3.8356,-3.8938,-3.9625,-3.956,-3.9864,-4.0334,-4.0095,-4.0033,-4.0037,-3.9783,-3.9884,-4.007,-4.007,-4.007,-4.007,-4.007,-4.007,-4.007,-4.007,-4.007,-4.007,-4.007,-3.9662,-3.9262,-3.8962,-3.8302,-3.7632,-3.7084,-3.7616,-3.8262,-3.8469,-3.8133,-3.8149,-3.9172,-3.7774,-3.7068,-3.8358,-3.7658,-3.7381,-3.8414,-3.8525,-3.8635,-3.8854,-3.8908,-3.869,-3.8189,-3.8149,-3.8035,-3.7806,-3.8334,-3.8447,-3.8158,-3.8689,-3.8162,-3.6643,-3.6341,-3.629,-3.6492,-3.6926,-3.7895,0.0,0.0,0.0,0.0,0.0,0.0,0.0,0.0,0.0,0.0,0.0,0.0,-3.0788,-3.2863,-3.385,-3.2187,-3.2283,-3.2404,-3.193,-3.2533,-3.274,-3.191,-3.2515,-3.2873,-3.2506,-3.2451,-3.2484,-3.2484,-3.2921,-3.3184,-3.3214,-3.3578,-3.3807,-3.3807,-3.3807,-3.4596,-3.6248,-3.6266,-3.7055,-3.8634,-3.8652,-3.867,-3.867,-3.867,-3.8378,-3.791,-3.841,-3.8062,-3.7195,-3.723,-3.7248,-3.7299,-3.7984,-3.8744,-3.9545,-4.0223,-4.0639,-4.0683,-4.0019,-3.9877,-3.9901,-3.9225,-3.9462,-4.0054,-4.007,-4.007,-4.007,-4.007,-4.007,-4.007,-4.007,-4.007,-4.002,-4.007,-4.007,-3.985,-3.9086,-3.8358,-3.7863,-3.7806,-3.8414,-3.869,-3.7978,-3.7806,-3.7822,-3.7806,-3.7144,-3.6904,-3.7748,-3.7879,-3.7806,-3.7879,-3.7879,-3.8149,-3.8854,-3.8908,-3.8908,-3.8908,-3.8978,-3.8668,-3.7953,-3.9388,-3.982,-3.9039,-4.0451,-4.0484,-3.898,-3.8074,-3.7254,-3.6603,-3.7823,-3.9282,-0.6181,0.0,0.0,0.0,0.0,0.0,0.0,0.0,0.0,0.0,0.0,0.0,-3.1941,-3.3753,-3.4656,-3.4561,-3.4534,-3.4265,-3.363,-3.3865,-3.3598,-3.2327,-3.2815,-3.2844,-3.1682,-3.1562,-3.1823,0.0,-3.2616,-3.2965,-3.3606,-3.3734,-3.3807,-3.3807,-3.3807,-3.4302,-3.5367,-3.5367,-3.5899,-3.6964,-3.7551,-3.7826,-3.7826,-3.7826,-3.7747,-3.7582,-3.7143,-3.6826,-3.6648,-3.7812,-3.8285,-3.8219,-3.77,-3.7987,-3.8576,-3.8027,-3.8225,-3.8717,-3.8512,-3.8455,-3.8565,-3.8886,-3.914,-3.9394,-3.9918,-4.007,-4.007,-4.007,-4.007,-3.9969,-3.9368,-3.8816,-3.8541,-3.9102,-3.9262,-3.9315,-3.9662,-3.961,-3.9279,-3.869,-3.9209,-3.9489,-3.8745,-3.8133,-3.7978,-3.8525,-3.7483,-3.7306,-3.9226,-3.8978,-3.8816,-3.9401,-3.9454,-3.9558,-3.9731,-3.9782,-3.9782,-3.9782,-4.0286,-4.0484,-4.0254,-4.1188,-4.1573,-4.1376,-4.1774,-4.1538,-4.0574,-3.9108,-3.8268,-3.8019,-3.8777,-4.0002,0.0,0.0,0.0,0.0,0.0,0.0,-0.9444,-1.1827,-1.5471,0.0,-2.3759,0.0,-3.1139,-3.1551,-3.1794,-3.3882,-3.4091,-3.4117,-3.4419,-3.4392,-3.3826,-3.2449,-3.2662,-3.2476,-3.1309,-3.119,-3.1389,-3.1932,-3.2282,-3.2872,-3.3762,-3.3807,-3.3807,-3.3807,-3.3807,-3.4192,-3.499,-3.499,-3.5459,-3.6303,-3.678,-3.6982,-3.6982,-3.6982,-3.6982,-3.6964,-3.6486,-3.6303,-3.6395,-3.7442,-3.7858,-3.7845,-3.7612,-3.7689,-3.7918,-3.7317,-3.7444,-3.7872,-3.755,-3.7652,-3.7922,-3.8041,-3.8481,-3.9073,-3.9495,-3.9834,-4.002,-3.9662,-3.9385,-3.9049,-3.858,-3.8358,-3.8358,-3.8799,-3.9139,-3.9542,-4.002,-3.9833,-3.9437,-3.8962,-3.9262,-3.9262,-3.8157,-3.7847,-3.7921,-3.8358,-3.7946,-3.8157,-3.9901,-3.9662,-3.961,-4.007,-4.007,-4.007,-4.007,-4.007,-4.0206,-4.0527,-4.0967,-4.1339,-4.1644,-4.2371,-4.276,-4.276,-4.3081,-4.2685,-4.1531,-4.0229,-3.956,-3.9477,-3.9818,-4.0894,0.0,0.0,0.0,0.0,0.0,0.0,-0.7547,-1.0565,-1.4839,-2.0029,-2.1336,0.0,0.0,-2.756,-2.697,-3.0884,-3.1747,-3.2649,-3.4783,-3.4591,-3.3773,-3.2574,-3.2364,-3.1985,-3.1258,-3.119,-3.123,-3.1329,-3.2144,-3.2996,-3.3762,-3.3807,-3.3807,-3.3807,-3.3807,-3.4137,-3.4844,-3.4954,-3.532,-3.5952,-3.6182,-3.6219,-3.608,-3.6127,-3.6156,-3.6156,-3.6064,-3.6009,-3.6054,-3.6463,-3.6666,-3.6777,-3.7449,-3.758,-3.7361,-3.7318,-3.7449,-3.7567,-3.6874,-3.7094,-3.755,-3.6975,-3.7669,-3.8785,-3.8822,-3.9328,-3.9681,-3.8962,-3.8246,-3.769,-3.769,-3.8076,-3.8564,-3.8619,-3.9262,-3.985,-3.9952,-3.9489,-3.9032,-3.8908,-3.8908,-3.8453,-3.6948,-3.7381,-3.7921,-3.7921,-3.8469,-3.9193,-4.002,-4.007,-4.007,-4.007,-4.007,-4.007,-4.007,-4.007,-4.0392,-4.1153,-4.1288,-4.1644,-4.2388,-4.3149,-4.3538,-4.3538,-4.4231,-4.3798,-4.2125,-4.1372,-4.0943,-4.069,-4.0811,-4.1739,0.0,0.0,0.0,0.0,0.0,0.0,-1.111,-1.0538,-1.1758,0.0,-1.9745,0.0,0.0,0.0,-2.4793,-2.6322,-2.8513,-3.1603,-3.6109,-3.5766,-3.4588,-3.3354,-3.2645,-3.1985,-3.1258,-3.119,-3.1487,-3.2179,-3.3057,-3.3606,-3.3788,-3.3807,-3.3807,-3.3807,-3.3807,-3.388,-3.4027,-3.466,-3.4593,-3.3821,-3.5499,-3.5773,-3.4782,-3.5115,-3.5247,-3.5238,-3.4578,-3.4284,-3.4394,-3.5795,-3.6503,-3.671,-3.6682,-3.665,-3.6558,-3.612,-3.6017,-3.6045,-3.5893,-3.5943,-3.6146,-3.662,-3.6975,-3.732,-3.7851,-3.8127,-3.8253,-3.8044,-3.744,-3.6843,-3.6843,-3.6523,-3.629,-3.6904,-3.7674,-3.843,-3.9032,-3.9542,-3.9662,-3.9032,-3.8908,-3.8635,-3.7748,-3.8189,-3.869,-3.869,-3.8799,-3.9193,-4.002,-4.007,-4.007,-4.007,-4.007,-4.007,-4.007,-4.007,-4.0392,-4.1153,-4.1762,-4.2422,-4.3166,-4.3944,-4.435,-4.435,-4.4502,-4.4064,-4.3047,-4.231,-4.1498,-4.069,-4.1412,-4.2316,0.0,0.0,0.0,-0.8129,0.0,0.0,0.0,-1.0163,-1.1567,-1.8521,0.0,0.0,0.0,0.0,-1.8255,-2.0887,-2.246,-2.4788,-2.8793,-3.2245,-3.425,-3.399,-3.2966,-3.229,-3.2307,-3.2307,-3.2676,-3.3581,-3.4308,-3.46,-3.4403,-3.4412,-3.4211,-3.3807,-3.3807,-3.3807,-3.3807,-3.4211,-3.411,-3.3494,-3.4549,-3.4733,-3.4095,-3.4311,-3.4412,-3.4394,-3.3972,-3.3807,-3.389,-3.5319,-3.5814,-3.5775,-3.6524,-3.6661,-3.635,-3.5827,-3.5622,-3.5622,-3.5622,-3.5622,-3.569,-3.6079,-3.6468,-3.6882,-3.7151,-3.7254,-3.7211,-3.7227,-3.6631,-3.6054,-3.6054,-3.6054,-3.6165,-3.6492,-3.7483,-3.8358,-3.8358,-3.8978,-3.9262,-3.8469,-3.8635,-3.869,-3.7921,-3.8414,-3.8908,-3.8908,-3.9262,-3.9662,-4.007,-4.007,-4.007,-4.007,-4.007,-4.007,-4.007,-4.0426,-4.095,-4.1694,-4.2439,-4.32,-4.3961,-4.4367,-4.4587,-4.4587,-4.4587,-4.4196,-4.3306,-4.3373,-4.2927,-4.1997,-4.2442,-4.3108,0.0,0.0,0.0,0.0,0.0,-0.9099,0.0,0.0,0.0,0.0,0.0,0.0,0.0,0.0,0.0,0.0,0.0,0.0,0.0,-2.645,0.0,-3.1873,-3.1055,-3.0948,-3.2269,-3.3123,-3.3917,-3.4748,-3.5238,-3.5412,-3.5265,-3.5082,-3.4697,-3.4045,-3.388,-3.3733,-3.3568,-3.3568,-3.3542,-3.3442,-3.3542,-3.3615,-3.368,-3.3762,-3.3807,-3.3807,-3.3807,-3.3807,-3.389,-3.5023,-3.5232,-3.4978,-3.6478,-3.6724,-3.6182,-3.5783,-3.5622,-3.5622,-3.5622,-3.5622,-3.5577,-3.547,-3.5773,-3.6156,-3.6263,-3.622,-3.6215,-3.6338,-3.5943,-3.5504,-3.5504,-3.5943,-3.6446,-3.6554,-3.7642,-3.858,-3.8092,-3.858,-3.8978,-3.8374,-3.8707,-3.8908,-3.8149,-3.8635,-3.9139,-3.9139,-3.9662,-4.007,-4.007,-4.007,-4.007,-4.007,-4.007,-4.0138,-4.029,-4.0865,-4.1508,-4.2236,-4.2861,-4.3538,-4.4333,-4.4502,-4.4587,-4.4587,-4.4587,-4.4253,-4.3562,-4.4253,-4.4121,-4.3306,-4.3502,-4.3948,0.0,0.0,0.0,0.0,-1.0169,0.0,0.0,0.0,-1.1171,-1.2135,0.0,0.0,0.0,0.0,0.0,0.0,0.0,0.0,-1.5046,-1.9489,-2.2719,-2.2801,-2.3276,-2.4979,-2.8459,-3.2113,-3.4431,-3.4765,-3.4974,-3.5384,-3.6119,-3.544,-3.4954,-3.4862,-3.4174,-3.3458,-3.2742,-3.2742,-3.2565,-3.2213,-3.2565,-3.2931,-3.3273,-3.3652,-3.3807,-3.3807,-3.3807,-3.3807,-3.389,-3.5023,-3.5465,-3.5477,-3.619,-3.6182,-3.5694,-3.5622,-3.5622,-3.5622,-3.5622,-3.5622,-3.5515,-3.4894,-3.4339,-3.3991,-3.4566,-3.4712,-3.4886,-3.5439,-3.5554,-3.5504,-3.5504,-3.5554,-3.5782,-3.6446,-3.7263,-3.8092,-3.8635,-3.9385,-3.9952,-3.985,-3.9901,-3.9731,-3.8908,-3.9437,-3.9952,-3.9952,-4.002,-4.007,-4.007,-4.007,-4.007,-4.007,-4.007,-4.0375,-4.1034,-4.1135,-4.1508,-4.2236,-4.2371,-4.276,-4.3521,-4.4215,-4.4587,-4.4587,-4.4587,-4.457,-4.4457,-4.457,-4.4121,-4.3306,-4.4064,-4.4514,0.0,0.0,0.0,0.0,0.0,0.0,-1.223,0.0,-1.1515,0.0,0.0,0.0,0.0,0.0,0.0,0.0,-0.8873,0.0,0.0,0.0,-1.6324,0.0,0.0,0.0,-2.9262,-2.9854,-3.0945,-3.3397,-3.3586,-3.3734,-3.3972,-3.5127,-3.5532,-3.5009,-3.4229,-3.3642,-3.3311,-3.3311,-3.3086,-3.2697,-3.2871,-3.3052,-3.3214,-3.3361,-3.3578,-3.3807,-3.3807,-3.3807,-3.3853,-3.4564,-3.4684,-3.4442,-3.492,-3.5531,-3.5959,-3.5246,-3.525,-3.5622,-3.5622,-3.5362,-3.4894,-3.4235,-3.3784,-3.3615,-3.4295,-3.4501,-3.4622,-3.531,-3.5504,-3.5504,-3.5504,-3.5846,-3.6228,-3.6554,-3.7541,-3.8414,-3.8318,-3.9226,-3.9952,-3.9489,-3.9782,-4.0003,-3.9662,-3.9901,-4.007,-4.007,-4.007,-4.007,-4.007,-4.007,-4.007,-4.007,-4.0493,-4.0865,-4.115,-4.198,-4.2439,-4.2303,-4.2286,-4.2625,-4.3386,-4.3724,-4.4113,-4.457,-4.4587,-4.4587,-4.4587,-4.4587,-4.4384,-4.4064,-4.444,-4.4587,-1.6208,0.0,0.0,0.0,0.0,0.0,0.0,0.0,0.0,0.0,0.0,0.0,0.0,0.0,0.0,0.0,0.0,-0.6867,0.0,0.0,0.0,0.0,0.0,0.0,0.0,-2.677,-2.7353,-3.0588,-3.0703,-3.1176,-3.2452,-3.3853,-3.489,-3.545,-3.4375,-3.3697,-3.3476,-3.3351,-3.3166,-3.2859,-3.2859,-3.2859,-3.2859,-3.3212,-3.3395,-3.3476,-3.3697,-3.3734,-3.3679,-3.4032,-3.3888,-3.3441,-3.3609,-3.4571,-3.5761,-3.4848,-3.4844,-3.5351,-3.5554,-3.5144,-3.4528,-3.4037,-3.3604,-3.3352,-3.4032,-3.4226,-3.4352,-3.504,-3.5355,-3.5504,-3.5504,-3.6054,-3.6676,-3.6843,-3.7946,-3.8799,-3.8486,-3.9279,-3.9952,-3.9315,-3.9731,-4.007,-4.007,-4.007,-4.007,-4.007,-4.007,-4.007,-4.007,-4.007,-4.007,-4.007,-4.0561,-4.1066,-4.1466,-4.2466,-4.2878,-4.232,-4.21,-4.2236,-4.2794,-4.32,-4.3673,-4.4248,-4.4468,-4.4587,-4.4587,-4.4587,-4.4587,-4.4587,-4.4587,-4.4587,0.0,0.0,0.0,-1.9455,0.0,0.0,0.0,0.0,-1.1679,0.0,0.0,0.0,0.0,0.0,-0.6276,-0.6465,0.0,0.0,0.0,0.0,0.0,0.0,0.0,0.0,0.0,-2.2844,-2.4756,-2.5936,-2.5772,-2.7793,-3.2791,-3.1381,-3.233,-3.6509,-3.4784,-3.344,-3.2669,-3.2264,-3.2047,-3.2047,-3.2047,-3.2047,-3.2083,-3.3232,-3.334,-3.2687,-3.3458,-3.3578,-3.3238,-3.3499,-3.3389,-3.2983,-3.2514,-3.3262,-3.4566,-3.4506,-3.4506,-3.4641,-3.5368,-3.5144,-3.4592,-3.4576,-3.37,-3.2741,-3.3321,-3.3526,-3.3664,-3.4322,-3.4996,-3.5504,-3.5504,-3.6054,-3.6798,-3.7573,-3.8358,-3.9086,-3.985,-4.007,-4.007,-4.007,-4.007,-4.007,-4.007,-4.007,-4.007,-4.007,-4.007,-4.007,-4.007,-4.007,-4.007,-4.007,-4.0104,-4.0693,-4.2167,-4.229,-4.232,-4.2286,-4.1627,-4.1255,-4.1271,-4.2658,-4.3436,-4.3453,-4.4198,-4.4587,-4.4587,-4.4587,-4.4587,-4.4587,-4.4587,-4.4587,-2.3922,-2.4787,-2.5122,-2.4437,0.0,0.0,0.0,0.0,0.0,0.0,0.0,0.0,0.0,0.0,0.0,-0.7329,-0.7608,0.0,0.0,0.0,0.0,0.0,0.0,0.0,0.0,0.0,-1.9524,-2.2475,-2.2352,-2.3968,-2.8109,-3.0033,-3.239,-3.5486,-3.4945,-3.4101,-3.3009,-3.2846,-3.2478,-3.1878,-3.2193,-3.2321,-3.2353,-3.2516,-3.2912,-3.3385,-3.3128,-3.3076,-3.3172,-3.2965,-3.2599,-3.215,-3.1725,-3.2171,-3.3085,-3.3592,-3.4404,-3.5222,-3.5015,-3.4783,-3.4528,-3.4087,-3.3339,-3.271,-3.3305,-3.3887,-3.4434,-3.5078,-3.6104,-3.7011,-3.7011,-3.7557,-3.8213,-3.8469,-3.9156,-3.9782,-4.002,-4.007,-4.007,-4.007,-4.007,-4.007,-4.007,-4.007,-4.007,-4.007,-4.007,-4.007,-4.007,-4.007,-4.007,-4.007,-4.0561,-4.1032,-4.155,-4.1555,-4.1576,-4.1576,-4.0865,-4.0899,-4.188,-4.2405,-4.3149,-4.4164,-4.4451,-4.4587,-4.4587,-4.4587,-4.4587,-4.4587,-4.5094,-4.5331,-2.7748,-2.8703,-2.9123,-2.8423,-2.5961,-2.2996,-2.0389,0.0,-1.3732,0.0,0.0,0.0,0.0,0.0,0.0,-0.8218,-0.8509,0.0,0.0,-1.1886,0.0,0.0,0.0,0.0,0.0,0.0,-1.5627,-1.8448,-1.8397,-2.062,-2.6008,-2.8182,-3.1219,-3.5467,-3.5072,-3.4284,-3.3214,-3.2872,-3.2258,-3.1409,-3.186,-3.1936,-3.1668,-3.1737,-3.2383,-3.3348,-3.2834,-3.2821,-3.3154,-3.2681,-3.223,-3.1752,-3.1351,-3.1799,-3.2747,-3.322,-3.4336,-3.5532,-3.5098,-3.4941,-3.4894,-3.4447,-3.3853,-3.3366,-3.3779,-3.4265,-3.4783,-3.5441,-3.6479,-3.7502,-3.7742,-3.8358,-3.8908,-3.8908,-3.9489,-4.007,-4.007,-4.007,-4.007,-4.007,-4.007,-4.007,-4.007,-4.007,-4.007,-4.007,-4.007,-4.007,-4.007,-4.007,-4.007,-4.007,-4.0544,-4.0915,-4.1186,-4.1169,-4.1204,-4.1204,-4.0493,-4.0629,-4.1863,-4.2151,-4.3014,-4.4553,-4.4587,-4.4705,-4.4976,-4.4705,-4.4722,-4.4993,-4.5483,-4.5991]},{"header":{"parameterUnit":"m.s-1","parameterCategory":1,"la1":30.6,"la2":29.2853,"lo1":-89.7004,"lo2":-87.6739,"dy":0.0162,"dx":0.0183,"nx":112,"ny":82,"refTime":"2023-03-28T06:00:00:Z","depth":0,"parameterNumber":3,"parameterNumberName":"V-component_of_WINDS"},"data":[0.0,0.0,0.0,0.0,0.0,0.0,0.0,0.0,0.0,0.0,0.0,0.0,0.0,0.0,0.0,0.0,0.0,0.0,0.0,0.0,0.0,0.0,0.0,0.0,0.0,0.0,0.0,0.0,0.0,0.0,0.0,0.0,0.0,0.0,0.0,0.0,0.0,0.0,0.0,0.0,0.0,0.0,0.0,0.0,0.0,0.0,0.0,0.0,0.0,0.0,0.0,0.0,0.0,0.0,0.0,0.0,0.0,0.0,0.0,0.0,0.0,0.0,0.0,0.0,0.0,0.0,0.0,0.0,0.0,0.0,0.0,0.0,0.0,0.0,0.0,0.0,0.0,0.0,0.0,0.0,0.0,0.0,0.0,0.0,0.0,0.0,0.0,0.0,0.0,0.0,-1.9633,-2.093,-2.0817,-2.0446,-2.0003,-2.1569,-2.1181,-1.8056,0.0,0.0,0.0,0.0,0.0,0.0,0.0,0.0,0.0,0.0,0.0,0.0,0.0,0.0,0.0,0.0,0.0,0.0,0.0,0.0,0.0,0.0,0.0,0.0,0.0,0.0,0.0,0.0,0.0,0.0,0.0,0.0,0.0,0.0,0.0,0.0,0.0,0.0,0.0,0.0,0.0,0.0,0.0,0.0,0.0,0.0,0.0,0.0,0.0,0.0,0.0,0.0,0.0,0.0,0.0,0.0,0.0,0.0,0.0,0.0,0.0,0.0,0.0,0.0,0.0,0.0,0.0,0.0,0.0,0.0,0.0,0.0,0.0,0.0,0.0,0.0,0.0,0.0,0.0,0.0,0.0,0.0,0.0,0.0,0.0,0.0,0.0,0.0,0.0,0.0,0.0,0.0,0.0,0.0,0.0,0.0,0.0,0.0,0.0,0.0,0.0,0.0,0.0,0.0,-1.8111,-1.9849,-1.9956,-2.0144,-2.0597,-2.1375,-2.0923,-1.8698,0.0,0.0,0.0,0.0,0.0,0.0,0.0,0.0,0.0,0.0,0.0,0.0,0.0,0.0,0.0,0.0,0.0,0.0,0.0,0.0,0.0,0.0,0.0,0.0,0.0,0.0,0.0,0.0,0.0,0.0,0.0,0.0,0.0,0.0,0.0,0.0,0.0,0.0,0.0,0.0,0.0,0.0,0.0,0.0,0.0,0.0,0.0,0.0,0.0,0.0,0.0,0.0,0.0,0.0,0.0,0.0,0.0,0.0,0.0,0.0,0.0,0.0,0.0,0.0,0.0,0.0,0.0,0.0,0.0,0.0,0.0,0.0,0.0,0.0,0.0,0.0,0.0,0.0,0.0,0.0,0.0,0.0,0.0,0.0,0.0,0.0,0.0,0.0,0.0,0.0,0.0,0.0,0.0,0.0,0.0,0.0,0.0,0.0,0.0,0.0,0.0,0.0,0.0,-1.7854,-1.8952,-1.9724,-2.0134,-2.0488,-2.0769,-2.1342,-2.1054,-1.963,-2.0002,0.0,0.0,0.0,0.0,0.0,0.0,0.0,0.0,0.0,0.0,0.0,0.0,0.0,0.0,0.0,0.0,0.0,0.0,0.0,0.0,0.0,0.0,0.0,0.0,0.0,0.0,0.0,0.0,0.0,0.0,0.0,0.0,0.0,0.0,0.0,0.0,0.0,0.0,0.0,0.0,0.0,0.0,0.0,0.0,0.0,0.0,0.0,0.0,0.0,0.0,0.0,0.0,0.0,0.0,0.0,0.0,0.0,0.0,0.0,0.0,0.0,0.0,0.0,0.0,0.0,0.0,0.0,0.0,0.0,0.0,0.0,0.0,0.0,0.0,0.0,0.0,0.0,0.0,0.0,0.0,0.0,0.0,0.0,0.0,0.0,0.0,0.0,0.0,0.0,0.0,0.0,0.0,0.0,0.0,0.0,0.0,0.0,0.0,0.0,0.0,0.0,0.0,-1.8619,-2.0242,-2.002,-2.0605,-2.1101,-2.1232,-2.1277,-2.0965,-2.0102,-1.9562,0.0,0.0,0.0,0.0,0.0,0.0,0.0,0.0,0.0,0.0,0.0,0.0,0.0,0.0,0.0,0.0,0.0,0.0,0.0,0.0,0.0,0.0,0.0,0.0,0.0,0.0,0.0,0.0,0.0,0.0,0.0,0.0,0.0,0.0,0.0,0.0,0.0,0.0,0.0,0.0,0.0,0.0,0.0,0.0,0.0,0.0,0.0,0.0,0.0,0.0,0.0,0.0,0.0,0.0,0.0,0.0,0.0,0.0,0.0,0.0,0.0,0.0,0.0,0.0,0.0,0.0,0.0,0.0,0.0,0.0,0.0,0.0,0.0,0.0,0.0,0.0,0.0,0.0,0.0,0.0,0.0,0.0,0.0,0.0,0.0,0.0,0.0,0.0,0.0,0.0,0.0,0.0,0.0,0.0,0.0,0.0,0.0,0.0,0.0,0.0,0.0,0.0,-1.9508,-2.1129,-2.0667,-2.1223,-2.1904,-2.2498,-2.1122,-2.0042,-1.9672,-1.8792,0.0,0.0,0.0,0.0,0.0,0.0,0.0,0.0,0.0,0.0,0.0,0.0,0.0,0.0,0.0,0.0,0.0,0.0,0.0,0.0,0.0,0.0,0.0,0.0,0.0,0.0,0.0,0.0,0.0,0.0,0.0,0.0,0.0,0.0,0.0,0.0,0.0,0.0,0.0,0.0,0.0,0.0,0.0,0.0,0.0,0.0,0.0,0.0,0.0,0.0,0.0,0.0,0.0,0.0,0.0,0.0,0.0,0.0,0.0,0.0,0.0,0.0,0.0,0.0,0.0,0.0,0.0,0.0,0.0,0.0,0.0,0.0,0.0,0.0,0.0,0.0,0.0,0.0,0.0,0.0,0.0,0.0,0.0,0.0,0.0,0.0,0.0,0.0,0.0,0.0,0.0,0.0,0.0,0.0,0.0,0.0,0.0,0.0,0.0,0.0,0.0,0.0,-1.8869,-2.0285,0.0,-2.1296,-2.1979,-2.2665,-2.212,-2.1317,-2.0348,0.0,0.0,0.0,0.0,0.0,0.0,0.0,0.0,0.0,0.0,0.0,0.0,0.0,0.0,0.0,0.0,0.0,0.0,0.0,0.0,0.0,0.0,0.0,0.0,0.0,0.0,0.0,0.0,0.0,0.0,0.0,0.0,0.0,0.0,0.0,0.0,0.0,0.0,0.0,0.0,0.0,0.0,0.0,0.0,0.0,0.0,0.0,0.0,0.0,0.0,0.0,0.0,0.0,0.0,0.0,0.0,0.0,0.0,0.0,0.0,0.0,0.0,0.0,0.0,0.0,0.0,0.0,0.0,0.0,0.0,0.0,0.0,0.0,0.0,0.0,0.0,0.0,0.0,0.0,0.0,0.0,0.0,0.0,0.0,0.0,0.0,0.0,0.0,0.0,0.0,0.0,0.0,0.0,0.0,0.0,0.0,0.0,0.0,0.0,0.0,0.0,0.0,-1.6978,-1.8647,-2.0112,0.0,-2.1596,-2.2294,-2.2921,-2.2498,-2.1704,-2.051,0.0,0.0,0.0,0.0,0.0,0.0,0.0,0.0,0.0,0.0,0.0,0.0,0.0,0.0,0.0,0.0,0.0,0.0,0.0,0.0,0.0,0.0,0.0,0.0,0.0,0.0,0.0,0.0,0.0,0.0,0.0,0.0,0.0,0.0,0.0,0.0,0.0,0.0,0.0,0.0,0.0,0.0,0.0,0.0,0.0,0.0,0.0,0.0,0.0,0.0,0.0,0.0,0.0,0.0,0.0,0.0,0.0,0.0,0.0,0.0,0.0,0.0,0.0,0.0,0.0,0.0,0.0,0.0,0.0,0.0,0.0,0.0,0.0,0.0,0.0,0.0,0.0,0.0,0.0,0.0,0.0,0.0,0.0,0.0,0.0,0.0,0.0,0.0,0.0,0.0,0.0,0.0,0.0,0.0,0.0,0.0,0.0,0.0,0.0,0.0,0.0,0.0,-1.6797,-1.9083,-2.0976,-2.162,-2.2293,-2.2936,-2.355,-2.2091,-2.0794,0.0,0.0,0.0,0.0,0.0,0.0,0.0,0.0,0.0,0.0,0.0,0.0,0.0,0.0,0.0,0.0,0.0,0.0,0.0,0.0,0.0,0.0,0.0,0.0,0.0,0.0,0.0,0.0,0.0,0.0,0.0,0.0,0.0,0.0,0.0,0.0,0.0,0.0,0.0,0.0,0.0,0.0,0.0,0.0,0.0,0.0,0.0,0.0,0.0,0.0,0.0,0.0,0.0,0.0,0.0,0.0,0.0,0.0,0.0,0.0,0.0,0.0,0.0,0.0,0.0,0.0,0.0,0.0,0.0,0.0,0.0,0.0,0.0,0.0,0.0,0.0,0.0,0.0,0.0,0.0,0.0,0.0,0.0,0.0,0.0,0.0,0.0,0.0,0.0,0.0,0.0,0.0,0.0,0.0,0.0,0.0,0.0,0.0,0.0,0.0,0.0,0.0,0.0,-1.6328,-1.925,-2.1352,-2.1152,-2.2443,-2.3556,-2.4101,-2.3727,-2.2561,-2.0582,0.0,0.0,0.0,0.0,0.0,0.0,0.0,0.0,0.0,0.0,0.0,0.0,0.0,0.0,0.0,0.0,0.0,0.0,0.0,0.0,0.0,0.0,0.0,0.0,0.0,0.0,0.0,0.0,0.0,0.0,0.0,0.0,0.0,0.0,0.0,0.0,0.0,0.0,0.0,0.0,0.0,0.0,0.0,0.0,0.0,0.0,0.0,0.0,0.0,0.0,0.0,0.0,0.0,0.0,0.0,0.0,0.0,0.0,0.0,0.0,0.0,0.0,0.0,0.0,0.0,0.0,0.0,0.0,0.0,0.0,0.0,0.0,0.0,0.0,0.0,0.0,0.0,0.0,0.0,0.0,0.0,0.0,0.0,0.0,0.0,0.0,0.0,0.0,0.0,0.0,0.0,0.0,0.0,0.0,0.0,0.0,0.0,0.0,0.0,0.0,0.0,0.0,-1.6663,-1.9353,-2.1382,-2.1586,-2.2768,-2.3743,-2.4374,-2.4592,-2.3907,-2.1933,0.0,0.0,0.0,0.0,0.0,0.0,0.0,0.0,0.0,0.0,0.0,0.0,0.0,0.0,0.0,0.0,0.0,0.0,0.0,0.0,0.0,0.0,0.0,0.0,0.0,0.0,0.0,0.0,0.0,0.0,0.0,0.0,0.0,0.0,0.0,0.0,0.0,0.0,0.0,0.0,0.0,0.0,0.0,0.0,0.0,0.0,0.0,0.0,0.0,0.0,0.0,0.0,0.0,0.0,0.0,0.0,0.0,0.0,0.0,0.0,0.0,0.0,0.0,0.0,0.0,0.0,0.0,0.0,0.0,0.0,0.0,0.0,0.0,0.0,0.0,0.0,0.0,0.0,0.0,0.0,0.0,0.0,0.0,0.0,0.0,0.0,0.0,0.0,0.0,0.0,0.0,0.0,0.0,0.0,0.0,0.0,0.0,0.0,0.0,0.0,0.0,0.0,-1.7343,-1.9356,-2.1276,-2.2559,-2.3222,-2.3811,-2.4554,-2.5073,-2.4872,-2.3698,0.0,0.0,0.0,0.0,0.0,0.0,0.0,0.0,0.0,0.0,0.0,0.0,0.0,0.0,0.0,0.0,0.0,0.0,0.0,0.0,0.0,0.0,0.0,0.0,0.0,0.0,0.0,0.0,0.0,0.0,0.0,0.0,0.0,0.0,0.0,0.0,0.0,0.0,0.0,0.0,0.0,0.0,0.0,0.0,0.0,0.0,0.0,0.0,0.0,0.0,0.0,0.0,0.0,0.0,0.0,0.0,0.0,0.0,0.0,0.0,-1.4754,0.0,0.0,0.0,0.0,0.0,0.0,0.0,0.0,0.0,0.0,0.0,0.0,0.0,0.0,0.0,0.0,0.0,0.0,0.0,0.0,0.0,0.0,0.0,0.0,0.0,0.0,0.0,0.0,0.0,0.0,0.0,0.0,0.0,0.0,0.0,0.0,0.0,0.0,0.0,0.0,0.0,-1.6135,-1.9206,-2.1794,-2.2525,-2.3842,-2.5051,-2.5957,-2.6454,-2.6083,-2.4604,-2.4023,0.0,0.0,0.0,0.0,0.0,0.0,0.0,0.0,0.0,0.0,0.0,0.0,0.0,0.0,0.0,0.0,0.0,0.0,0.0,0.0,0.0,0.0,0.0,0.0,0.0,0.0,0.0,0.0,0.0,0.0,0.0,0.0,0.0,0.0,0.0,0.0,0.0,0.0,0.0,0.0,0.0,0.0,0.0,0.0,0.0,0.0,0.0,0.0,0.0,0.0,0.0,0.0,0.0,0.0,0.0,0.0,0.0,0.0,0.0,0.0,-1.4186,0.0,0.0,0.0,0.0,0.0,0.0,0.0,0.0,0.0,0.0,0.0,0.0,0.0,0.0,0.0,0.0,0.0,0.0,0.0,0.0,0.0,0.0,0.0,0.0,0.0,0.0,0.0,0.0,0.0,0.0,0.0,0.0,0.0,0.0,0.0,0.0,0.0,0.0,0.0,0.0,-1.8866,-2.128,-2.3203,-2.4074,-2.5082,-2.6048,-2.6864,-2.7356,-2.7406,-2.6915,-2.5764,0.0,0.0,0.0,0.0,0.0,0.0,0.0,0.0,0.0,0.0,0.0,0.0,0.0,0.0,0.0,0.0,0.0,0.0,0.0,0.0,0.0,0.0,0.0,0.0,0.0,0.0,0.0,0.0,0.0,0.0,0.0,0.0,0.0,0.0,0.0,0.0,0.0,0.0,0.0,0.0,0.0,0.0,0.0,0.0,0.0,0.0,0.0,0.0,0.0,0.0,0.0,0.0,0.0,-1.6471,-1.5937,-1.5357,-1.5169,-1.5101,-1.5182,-1.4701,-1.552,-1.7,-1.4799,0.0,0.0,0.0,0.0,0.0,0.0,0.0,0.0,0.0,0.0,0.0,0.0,0.0,0.0,0.0,0.0,0.0,0.0,0.0,0.0,0.0,0.0,-2.4464,-2.6792,-2.6791,-2.5655,-2.3503,0.0,0.0,0.0,0.0,0.0,0.0,0.0,0.0,0.0,0.0,0.0,-2.2219,-2.3583,-2.4736,-2.5909,-2.6471,-2.7043,-2.7816,-2.8363,-2.8888,-2.9397,-2.7549,-2.6222,0.0,0.0,0.0,0.0,0.0,0.0,0.0,0.0,0.0,0.0,0.0,0.0,0.0,0.0,0.0,0.0,0.0,0.0,0.0,0.0,0.0,0.0,0.0,0.0,0.0,0.0,0.0,0.0,0.0,0.0,0.0,0.0,-1.6505,-1.9147,0.0,0.0,0.0,0.0,0.0,0.0,0.0,0.0,0.0,0.0,0.0,0.0,0.0,-1.7792,-2.0838,-1.9903,-2.0686,-2.3172,-2.1166,-1.9836,-1.9127,-1.8161,-1.7952,-1.8305,-1.6518,0.0,-1.7817,-1.7231,0.0,0.0,0.0,0.0,0.0,0.0,0.0,0.0,0.0,0.0,0.0,0.0,0.0,0.0,0.0,0.0,0.0,0.0,0.0,0.0,0.0,0.0,-2.765,-2.7517,-2.7389,-2.6915,-2.5499,-2.3599,-2.1649,-1.9935,-1.9735,-1.9067,0.0,0.0,0.0,0.0,0.0,0.0,-2.2163,-2.3666,-2.528,-2.6759,-2.7441,-2.8322,-2.9643,-3.0288,-3.0659,-3.0734,-3.045,-3.0544,-3.1129,-2.7624,0.0,0.0,0.0,0.0,0.0,0.0,0.0,0.0,0.0,0.0,0.0,0.0,0.0,0.0,0.0,0.0,0.0,0.0,0.0,0.0,0.0,0.0,0.0,0.0,0.0,0.0,0.0,0.0,0.0,-1.7078,-1.9783,-2.1748,-2.0918,-1.9456,0.0,0.0,0.0,0.0,0.0,0.0,0.0,0.0,0.0,-1.9825,-1.9771,-2.1018,-2.3795,-2.2644,-2.2679,-2.4,-2.2204,-2.1,-2.0395,-1.9513,-1.9244,-1.9448,-1.8913,-1.9045,-1.9496,-1.8763,-1.8754,-1.9169,0.0,0.0,0.0,0.0,-1.97,-2.0922,-2.1516,-2.3822,-2.6195,-2.4176,0.0,0.0,0.0,0.0,0.0,0.0,0.0,-1.8993,-2.0691,-2.2913,-2.5114,-2.6534,-2.664,-2.6198,-2.5242,-2.4253,-2.2941,-2.0945,-2.0592,-2.0083,-1.8339,-1.8651,0.0,0.0,0.0,-2.3391,-2.5136,-2.6044,-2.7103,-2.864,-2.9032,-2.9816,-3.1355,-3.1745,-3.1743,-3.1412,-3.1813,-3.1876,-3.1487,-3.0058,-2.8012,0.0,0.0,0.0,0.0,0.0,0.0,0.0,0.0,0.0,0.0,0.0,0.0,0.0,0.0,0.0,0.0,0.0,0.0,0.0,0.0,0.0,0.0,0.0,0.0,0.0,0.0,0.0,0.0,-1.928,-2.2105,-2.3732,-2.3042,-2.1749,0.0,0.0,0.0,0.0,0.0,0.0,-1.983,-2.0864,-2.227,-2.4128,-2.388,-2.4544,-2.6274,-2.5022,-2.4239,-2.3923,-2.2586,-2.1539,-2.0795,-2.0105,-1.9798,-1.9825,-2.0496,-2.0809,-2.0737,-2.015,-2.0001,-2.027,-2.1155,-2.1037,-2.0418,-2.0855,-2.175,-2.2744,-2.2744,-2.4235,-2.5924,-2.4678,-2.4399,-2.4347,-2.3095,0.0,0.0,0.0,0.0,-1.8159,-2.0468,-2.1816,-2.311,-2.5213,-2.5535,-2.5226,-2.4686,-2.4448,-2.3773,-2.1864,-2.1751,-2.1419,-1.9731,-2.0094,0.0,0.0,0.0,-2.527,-2.7708,-2.8198,-2.8828,-3.0088,-3.0465,-3.1254,-3.2781,-3.2924,-3.2722,-3.2275,-3.2732,-3.2588,-3.1581,-3.1973,-3.0246,-2.604,0.0,0.0,0.0,0.0,0.0,0.0,0.0,0.0,0.0,0.0,0.0,0.0,0.0,0.0,0.0,0.0,0.0,0.0,0.0,0.0,0.0,0.0,0.0,0.0,0.0,0.0,0.0,0.0,0.0,-2.32,-2.7167,0.0,0.0,0.0,0.0,-1.8072,-1.9084,-2.0671,-2.2499,-2.4332,-2.6212,-2.8146,-2.8674,-2.8773,-2.8467,-2.7038,-2.5804,-2.4621,-2.3294,-2.201,-2.0795,-2.0105,-1.9798,-1.9825,-2.0496,-2.0809,-2.0876,-2.1789,-2.2844,-2.3787,-2.2351,-2.2456,-2.3481,-2.3509,-2.356,-2.3949,-2.6212,-2.6756,-2.6453,-2.6386,-2.5877,-2.4756,-2.1542,-1.9922,0.0,0.0,-1.731,-1.8248,-1.8674,-2.1549,-2.4258,-2.3941,-2.4246,-2.4627,-2.4597,-2.4118,-2.3445,-2.2753,-2.3483,-2.3304,-2.0368,0.0,-2.6211,-2.3457,-2.6267,-2.8603,-2.8414,-2.9025,-2.978,-3.0488,-3.1504,-3.2542,-3.3653,-3.3748,-3.3732,-3.371,-3.3486,-3.3335,-3.3278,-3.2641,-3.1465,-2.9668,-2.6857,0.0,0.0,0.0,0.0,0.0,0.0,0.0,0.0,0.0,0.0,0.0,0.0,0.0,0.0,0.0,0.0,0.0,0.0,0.0,0.0,0.0,0.0,0.0,0.0,0.0,0.0,0.0,0.0,-2.4962,-2.6444,0.0,-2.4077,-2.342,-2.2889,-2.2297,-2.4527,-2.6623,-2.8184,-2.9772,-3.0931,-3.1624,-3.1007,-3.0386,-2.9831,-2.755,-2.5836,-2.4679,-2.3224,-2.2112,-2.1325,-2.1036,-2.0891,-2.0986,-2.2103,-2.2622,-2.2665,-2.3437,-2.3683,-2.3462,-2.3145,-2.3809,-2.4951,-2.5205,-2.5587,-2.6074,-2.6595,-2.6944,-2.6939,-2.5623,-2.4147,-2.2524,-2.0548,-1.9764,-1.9297,-1.8225,-1.8821,-1.9927,-2.0417,-2.1909,-2.3322,-2.3545,-2.3758,-2.3969,-2.3969,-2.3774,-2.3528,-2.3218,-2.3819,-2.4351,-2.4166,-2.5664,-2.6967,-2.7219,-2.847,-2.9611,-3.0268,-3.0567,-3.117,-3.2274,-3.275,-3.3485,-3.4779,-3.4729,-3.4399,-3.3846,-3.3562,-3.297,-3.2015,-3.1291,-2.9935,-2.7947,-2.6821,-2.4121,0.0,0.0,0.0,0.0,0.0,0.0,0.0,0.0,0.0,0.0,0.0,0.0,0.0,0.0,0.0,0.0,0.0,0.0,0.0,0.0,0.0,0.0,0.0,0.0,0.0,0.0,-2.3168,-2.5781,-2.6978,-2.7279,-2.6522,-2.5642,-2.5492,-2.6484,-2.887,-3.0563,-3.1287,-3.289,-3.366,-3.3406,-3.278,-3.2027,-3.1229,-2.8682,-2.656,-2.4946,-2.3433,-2.2309,-2.1561,-2.1526,-2.1648,-2.1966,-2.3121,-2.3742,-2.4019,-2.464,-2.467,-2.4214,-2.422,-2.4944,-2.5996,-2.6267,-2.6825,-2.7363,-2.6687,-2.6307,-2.5873,-2.4103,-2.2524,-2.1092,-2.0283,-1.9803,-1.9629,-1.9879,-2.0374,-2.1015,-2.1758,-2.2401,-2.2951,-2.3183,-2.3406,-2.3595,-2.3595,-2.3595,-2.3658,-2.3959,-2.4484,-2.4874,-2.4846,-2.5598,-2.6271,-2.6532,-2.7104,-2.7723,-2.8257,-2.9654,-3.0973,-3.1958,-3.3204,-3.4387,-3.5422,-3.4012,-3.3201,-3.3486,-3.2006,-3.1149,-3.1247,-2.9809,-2.8082,-2.6106,-2.4648,-2.2639,-2.0137,0.0,0.0,0.0,0.0,0.0,0.0,0.0,0.0,0.0,0.0,0.0,0.0,0.0,0.0,0.0,0.0,0.0,0.0,0.0,0.0,0.0,0.0,0.0,-2.0634,-2.4607,-2.6707,-2.5702,-2.9341,-3.1207,-2.9425,-2.9846,-3.0322,-3.0463,-3.1681,-3.2142,-3.1539,-3.3409,-3.4201,-3.3491,-3.4134,-3.386,-3.2592,-3.0443,-2.8066,-2.5481,-2.4104,-2.2782,-2.15,-2.1581,-2.2001,-2.2711,-2.3412,-2.4067,-2.4785,-2.5393,-2.594,-2.6357,-2.5536,-2.5815,-2.6691,-2.6657,-2.7079,-2.7561,-2.6594,-2.5056,-2.3303,-2.2132,-2.1321,-2.0828,-2.0729,-2.0104,-1.9848,-2.1818,-2.1783,-2.1399,-2.2373,-2.3027,-2.3363,-2.2867,-2.3216,-2.3595,-2.3595,-2.3595,-2.3921,-2.4989,-2.5517,-2.4957,-2.2269,-2.3981,-2.4597,-2.1412,-2.2498,0.0,-2.2726,-2.6472,-2.9219,-2.9382,-3.2821,-3.5168,-3.5292,-3.1608,-3.0317,-3.2776,-2.9054,-2.8145,-3.1257,-2.856,-2.6266,-2.4778,-2.0677,-2.0269,-2.3737,0.0,0.0,0.0,0.0,0.0,0.0,0.0,0.0,0.0,0.0,0.0,0.0,0.0,0.0,0.0,0.0,0.0,0.0,0.0,0.0,0.0,0.0,-2.3825,-2.5863,-2.6483,-2.7963,-3.1283,-3.2027,-3.2276,-3.2224,-3.1583,-3.1533,-3.2555,-3.3017,-3.3403,-3.3716,-3.4734,-3.5216,-3.5013,-3.4196,-3.3381,-3.2592,-2.9856,-2.7326,-2.5065,-2.4593,-2.3667,-2.227,-2.3381,-2.408,-2.4424,-2.5157,-2.5685,-2.6,-2.6253,-2.6637,-2.7025,-2.5819,-2.5767,-2.6292,-2.5793,-2.5486,-2.5377,-2.5591,-2.4712,-2.3435,-2.3216,-2.2297,-2.122,-2.0742,-2.0436,-2.0411,-2.0935,-2.1302,-2.1857,-2.3054,-2.3159,-2.3132,-2.3894,-2.3822,-2.3595,-2.3595,-2.3595,-2.3921,-2.4989,-2.5517,-2.5977,-2.6447,-2.7137,-2.7796,-2.8282,-2.9084,-2.9836,-3.0421,-3.1837,-3.1933,-2.9719,-3.2838,-3.4025,-3.1377,-3.2392,-3.324,-3.3407,-3.1592,-3.0629,-3.0869,-2.9538,-2.8665,-2.8373,-2.4426,-2.3183,0.0,0.0,0.0,0.0,0.0,0.0,0.0,0.0,0.0,0.0,0.0,0.0,0.0,0.0,0.0,0.0,0.0,0.0,0.0,0.0,0.0,0.0,-2.461,-2.7748,-3.0435,-3.0285,-3.0881,-3.3558,-3.3523,-3.3357,-3.3449,-3.2805,-3.2821,-3.3886,-3.4013,-3.4157,-3.4522,-3.5239,-3.547,-3.5165,-3.4376,-3.368,-3.304,-3.0053,-2.7591,-2.5638,-2.5052,-2.4103,-2.2906,-2.4193,-2.5241,-2.5961,-2.6116,-2.6665,-2.7348,-2.7125,-2.7173,-2.7359,0.0,0.0,0.0,0.0,-2.5377,-2.4498,-2.5195,-2.4447,-2.3195,-2.3241,-2.251,-2.1511,-2.1161,-2.104,-2.1151,-2.139,-2.1763,-2.237,-2.3371,-2.3596,-2.3598,-2.4075,-2.4279,-2.4271,-2.4024,-2.4116,-2.4511,-2.5373,-2.5959,0.0,-2.8374,-2.7991,-2.7552,-2.776,-2.8557,-2.9331,-2.9828,-3.142,-3.1827,-2.9978,-3.2883,-3.4055,-3.1864,-3.1829,0.0,0.0,0.0,-2.9636,-2.974,-2.9419,0.0,0.0,0.0,-2.3839,-2.525,-2.2526,0.0,0.0,-2.0588,-1.8585,0.0,0.0,0.0,0.0,0.0,0.0,0.0,0.0,0.0,0.0,0.0,0.0,0.0,0.0,0.0,0.0,-2.6097,-2.982,-3.4049,-3.4692,-3.4516,-3.3809,-3.4244,-3.4382,-3.3887,-3.3735,-3.3987,-3.4688,-3.4736,-3.4705,-3.4614,0.0,0.0,0.0,0.0,-3.417,-3.3463,-3.0499,-2.8182,-2.6465,-2.5329,-2.4303,-2.3388,-2.4374,-2.5712,-2.7166,-2.65,-2.7058,-2.8442,-2.7829,-2.7625,-2.754,-2.6734,-2.6614,-2.6904,-2.6973,-2.5884,-2.44,-2.5045,0.0,0.0,-2.2785,-2.2392,-2.1885,-2.1885,-2.1885,-2.2039,-2.2634,-2.2785,-2.2963,-2.3643,-2.4223,-2.4507,-2.4131,-2.4795,-2.5381,-2.4828,-2.5092,-2.5577,-2.6061,-2.666,-2.7519,-2.88,-2.7691,-2.6026,-2.4232,-2.5132,-2.5965,-2.5768,-2.8589,-3.0434,-3.0042,-3.2801,0.0,-3.3923,-3.0729,-2.962,-3.1654,-2.8763,-2.7568,-2.8932,-2.9262,-2.828,-2.5915,-2.3999,-2.3837,-2.5467,-2.378,-2.372,-2.4948,-2.0241,-1.8797,0.0,0.0,0.0,0.0,0.0,0.0,0.0,0.0,0.0,0.0,0.0,0.0,0.0,0.0,0.0,-2.6166,-3.0308,-3.3668,-3.5199,-3.5943,-3.605,-3.529,-3.4858,-3.4736,-3.5161,-3.4736,-3.4688,-3.5362,-3.5407,-3.5402,-3.5402,-3.5537,-3.5554,-3.5402,-3.4365,-3.3415,-3.2569,-2.9434,-2.6895,-2.518,-2.5033,0.0,-2.3512,-2.4871,-2.605,-2.7006,-2.6428,-2.6802,-2.7754,-2.7619,-2.7625,-2.7535,-2.6838,-2.5968,-2.5106,-2.5106,-2.4532,-2.3782,-2.3902,-2.3743,-2.3421,-2.3421,-2.3319,-2.3216,-2.3216,-2.3216,0.0,-2.3377,-2.3421,-2.3718,-2.4896,-2.4926,-2.4987,-2.6427,-2.6499,-2.6377,-2.6729,-2.6903,-2.6985,-2.7042,-2.7154,-2.7669,-2.9016,-2.9314,-2.9576,-3.036,-3.082,-3.1359,-3.2098,-3.2657,-3.188,-2.9113,-3.2217,-3.2921,-2.9126,-3.1285,-3.2559,-3.1847,-3.1367,-3.1516,-3.2411,-3.251,-3.1901,-3.0511,-2.9342,-2.816,-2.7059,-2.5917,-2.4801,-2.3697,-2.3199,-2.2671,0.0,0.0,0.0,0.0,0.0,0.0,0.0,0.0,0.0,0.0,0.0,-2.3277,0.0,0.0,-2.6486,-2.8364,-3.2251,-3.5318,-3.6096,-3.6535,-3.6485,-3.5723,-3.5299,-3.5207,-3.5577,-3.5316,-3.5253,-3.5577,-3.5622,-3.5622,-3.5622,-3.5622,-3.5622,-3.5622,-3.4301,-3.3192,-3.2307,-2.9119,-2.6611,-2.479,-2.4933,-2.448,-2.3576,-2.4929,-2.631,-2.7459,-2.6565,-2.6916,-2.8038,-2.7365,-2.6886,-2.6557,-2.6228,-2.5899,-2.554,-2.4821,-2.458,-2.442,-2.3801,-2.3752,-2.3964,-2.3681,-2.3595,-2.3595,-2.3595,-2.3595,-2.367,-2.4029,-2.4118,-2.4343,-2.5345,-2.5615,-2.5815,-2.6778,-2.6946,-2.7032,-2.7274,-2.732,-2.7294,-2.7269,-2.7844,-2.8503,-2.9175,-3.0129,-3.1196,-3.247,-3.2723,-3.3136,-3.4211,-3.3939,-3.3116,-3.1744,-3.2763,-3.2739,-3.0699,-3.2351,-3.3277,-3.2713,-3.3136,-3.3583,-3.3979,-3.3846,-3.3104,-3.1706,-3.025,-2.8546,-2.6559,-2.5503,-2.4266,-2.2877,-2.3244,-2.3035,0.0,0.0,0.0,0.0,0.0,0.0,0.0,0.0,-3.3335,-3.1658,-3.2065,-3.0993,-2.5146,-2.6791,-2.9389,-3.0627,-3.3804,-3.6333,-3.6751,-3.6915,-3.6703,-3.5883,-3.5593,-3.547,-3.5577,-3.547,-3.547,-3.5577,-3.5622,-3.569,-3.5825,-3.5842,-3.591,-3.6062,-3.4725,-3.3398,-3.213,-2.899,-2.6425,-2.4385,-2.4636,-2.4264,-2.3565,-2.5,-2.6425,-2.7795,-2.6872,-2.7118,-2.8113,-2.6901,-2.6093,-2.5585,-2.5315,-2.5704,-2.6258,-2.5076,-2.479,-2.4909,-2.3947,-2.3879,-2.4184,-2.3767,-2.3595,-2.3625,-2.3759,-2.3789,-2.3939,-2.4627,-2.4776,-2.4971,-2.563,-2.6198,-2.666,-2.6856,-2.7271,-2.7611,-2.7694,-2.7684,-2.7631,-2.7644,-2.8534,-2.9405,-2.9533,-3.0478,-3.1598,-3.2752,-3.2864,-3.3194,-3.4262,-3.3778,-3.3579,-3.4109,-3.3277,-3.288,-3.3437,-3.3018,-3.2885,-3.3285,-3.3815,-3.4114,-3.4154,-3.3991,-3.2919,-3.0817,-2.9334,-2.748,-2.5314,-2.4303,-2.3372,-2.2637,-2.2637,-2.2412,-0.4324,-1.6086,-2.7209,-2.2566,-2.6006,-2.9983,0.0,0.0,-3.4126,-3.5362,-3.4981,-3.4127,-3.3135,-3.357,-3.4216,-3.4614,-3.6671,-3.7909,-3.6932,-3.7303,-3.7395,-3.6669,-3.5481,-3.4941,-3.5515,-3.5052,-3.4941,-3.5577,-3.5622,-3.5926,-3.662,-3.6654,-3.6958,-3.7635,-3.6228,-3.4156,-3.1453,-2.8519,-2.5697,-2.2924,-2.342,-2.3599,-2.3554,-2.5169,-2.6294,-2.712,-2.7345,-2.7184,-2.6752,-2.6019,-2.5674,-2.5495,-2.4298,-2.4597,-2.563,-2.4851,-2.4282,-2.3786,-2.3668,-2.3638,-2.3681,-2.3638,-2.3595,-2.3714,-2.4328,-2.4462,-2.4657,-2.5315,-2.5495,-2.5644,-2.6303,-2.6542,-2.6901,-2.8013,-2.8341,-2.8513,-2.9048,-2.9166,-2.9178,-2.9214,-2.935,-2.9647,-3.028,-3.0503,-3.1052,-3.2364,-3.2283,-3.2373,-3.3168,-3.2628,-3.2215,-3.2304,-3.2414,-3.2546,-3.2644,-3.1967,-3.1871,-3.2576,-3.2657,-3.2697,-3.256,-3.2959,-3.1678,-2.8359,-2.8119,-2.6752,-2.4175,-2.3509,-2.3153,-2.3066,-2.3066,-2.2842,-1.0391,-1.8077,0.0,0.0,-3.26,-3.5695,-3.4992,-3.5761,-3.6637,-3.6615,-3.6497,-3.624,-3.5466,-3.5847,-3.6176,0.0,-3.743,-3.8174,-3.6933,-3.7366,-3.7538,-3.6798,-3.5475,-3.4704,-3.4971,-3.5096,-3.5161,-3.5052,-3.5828,-3.6582,-3.7212,-3.6968,-3.706,-3.7702,-3.54,-3.2922,-3.0284,-2.7528,-2.4888,-2.2321,-2.3097,-2.3369,-2.3138,-2.5021,-2.6202,-2.6707,-2.6909,-2.6632,-2.5974,-2.5315,-2.4807,-2.4388,-2.3819,-2.3939,-2.4462,-2.4582,-2.4852,-2.5179,-2.4852,-2.4715,-2.4676,-2.4732,-2.4507,-2.4328,-2.5001,-2.5196,-2.533,-2.5989,-2.6452,-2.6901,-2.759,-2.8038,-2.8589,-2.9443,-2.9419,-2.9164,-2.923,-2.9392,-2.9378,-2.8889,-2.9492,-3.0174,-3.0458,-3.0836,-3.1261,-3.1842,-3.216,-3.2583,-3.3322,-3.2798,-3.2167,-3.1753,-3.2201,-3.2367,-3.1951,-3.2048,-3.2212,-3.2562,-3.2468,-3.2299,-3.2167,-3.144,-2.9859,-2.7372,-2.6823,-2.555,-2.3453,-2.3221,-2.3135,-2.3135,-2.3135,-2.3047,-1.4498,0.0,0.0,-3.0247,-3.5018,-3.7887,-3.8532,-3.8703,-3.8615,-3.8221,-3.8095,-3.7826,-3.7027,-3.7148,-3.721,-3.6684,-3.7748,-3.8168,-3.6902,-3.7324,-3.7551,-3.68,-3.5428,-3.4571,-3.4622,-3.502,-3.5207,-3.4894,-3.5987,-3.6966,-3.7637,-3.7421,-3.7492,-3.7918,-3.5409,-3.2676,-2.9791,-2.716,-2.4665,-2.2405,-2.2988,-2.3338,-2.3503,-2.5432,-2.6368,-2.6535,-2.6584,-2.6108,-2.53,-2.4776,-2.4223,-2.3595,-2.3595,-2.3714,-2.3969,-2.4642,-2.5289,-2.5878,-2.5679,-2.5561,-2.5481,-2.5589,-2.5285,-2.5016,-2.5674,-2.5884,-2.6048,-2.6901,-2.7485,-2.8008,-2.8697,-2.922,-2.9726,-3.0158,-2.9925,-2.9495,-2.9034,-2.9094,-2.9031,-2.8368,-2.929,-3.0214,-3.0377,-3.1023,-3.1482,-3.1482,-3.1951,-3.2477,-3.2971,-3.2571,-3.212,-3.1582,-3.1951,-3.1992,-3.1204,-3.1637,-3.189,-3.1634,-3.1622,-3.1456,-3.1112,-3.0248,-2.875,-2.6601,-2.6132,-2.4952,-2.3135,-2.3135,-2.3135,-2.3135,-2.3135,-2.3135,0.0,0.0,-2.1597,-2.7858,-3.3268,-3.7628,-3.9909,-3.9578,-3.9297,-4.1094,-4.0164,-3.9053,-3.9016,-3.8394,-3.772,-3.7248,-3.7982,-3.8168,-3.6902,-3.7324,-3.7518,-3.6774,-3.5419,-3.4561,0.0,-3.4609,-3.4894,-3.5515,-3.6071,-3.6827,-3.7835,-3.8311,-3.8632,-3.8846,-3.7186,-3.4436,-3.0513,-2.7866,-2.5429,-2.3269,-2.2892,-2.3607,-2.5303,-2.6648,-2.7021,-2.6617,-2.6602,-2.5854,-2.4612,-2.4597,-2.4223,-2.3595,-2.3595,-2.4014,-2.4627,-2.533,-2.5181,-2.4747,-2.539,-2.56,-2.5585,-2.56,-2.56,-2.5704,-2.6363,-2.6557,-2.6841,-2.8173,-2.8547,-2.8727,-2.9385,-2.9564,-2.9579,-2.9633,-2.9633,-2.9347,-2.8495,-2.8325,-2.8268,-2.8028,-2.8697,-2.952,-3.0199,-3.0955,-3.1482,-3.1482,-3.1524,-3.1524,-3.1582,-3.1539,-3.1524,-3.1482,-3.1524,-3.1219,-3.0389,-3.0329,-3.0011,-2.9178,-2.9605,-2.9465,-2.8663,-2.9649,-2.875,-2.5699,-2.6203,-2.5378,-2.3135,-2.3135,-2.3135,-2.3135,-2.3135,-2.3135,0.0,0.0,-2.7604,-3.3215,-3.6684,-3.8937,-3.9716,-3.9789,-3.968,-3.9715,-3.6406,-3.3417,-3.3245,-3.0656,-2.9313,-3.169,-3.3244,-3.4573,-3.5811,-3.6633,-3.6793,-3.6059,-3.5511,0.0,0.0,0.0,0.0,-3.5436,-3.6491,-3.7471,-3.8203,-3.7665,-3.7235,-3.7058,-3.5034,-3.1991,-2.7977,-2.6387,-2.4238,-2.1509,-2.249,-2.3957,-2.5942,-2.6483,-2.6718,-2.6572,-2.6123,-2.5435,-2.4552,-2.4133,-2.3804,-2.364,-2.4103,-2.4373,-2.4716,-2.5854,-2.6123,-2.6019,-2.6677,-2.6632,-2.6333,-2.6767,-2.6617,-2.6378,-2.7036,-2.756,-2.8023,-2.8472,-2.9205,-2.9909,-3.0133,-3.0537,-3.0881,-3.0881,-3.0881,-3.0624,-2.9827,-3.0075,-3.0061,-2.8906,-2.9832,-3.0646,-3.036,-3.097,-3.1482,-3.1482,-3.1482,-3.1482,-3.1482,-3.1482,-3.1482,-3.1482,-3.1482,-3.1161,-3.0389,-3.0329,-2.995,-2.9066,-2.8969,-2.9012,-2.9065,-2.922,-2.8329,-2.6214,-2.6393,-2.54,-2.3135,-2.3135,-2.3135,-2.3135,-2.3135,-2.3135,0.0,-2.8948,-3.1596,-3.6844,-3.9098,-4.0111,-4.0391,-4.0125,-3.9372,-3.7773,-3.3791,-3.0144,-2.8648,-2.5811,-2.4656,-2.7579,-2.9214,-3.105,-3.3762,-3.4841,-3.5399,-3.5563,-3.558,-3.5585,0.0,0.0,0.0,-3.548,-3.6671,-3.7502,-3.7793,-3.6947,-3.6254,-3.5763,-3.3701,-3.0791,-2.7124,-2.5816,-2.3799,-2.111,-2.2784,-2.4249,-2.5563,-2.6182,-2.6224,-2.5854,-2.5605,-2.5048,-2.4223,-2.3789,-2.3595,-2.367,-2.4358,-2.4731,-2.5106,-2.6198,-2.6737,-2.7006,-2.7475,-2.734,-2.7006,-2.749,-2.729,-2.7066,-2.7739,-2.8248,-2.8697,-2.9146,-2.9879,-3.0567,-3.0806,-3.121,-3.1482,-3.1482,-3.1482,-3.1278,-3.0464,-3.0703,-3.0584,-2.8876,-2.9889,-3.0837,-2.995,-3.0967,-3.1958,-3.2198,-3.1916,-3.1767,-3.1855,-3.1884,-3.1973,-3.2213,-3.2228,-3.1721,-3.0557,-3.0282,-2.9736,-2.8719,-2.8481,-2.8601,-2.9197,-2.9212,-2.8504,-2.7116,-2.6719,-2.5557,-2.3714,-2.3299,-2.3135,-2.3135,-2.3135,-2.3135,-2.7106,-3.1031,-3.3582,-3.8537,-4.0289,-4.0995,-4.1716,-4.0392,-3.8212,-3.5337,-3.2139,-2.8802,0.0,0.0,-2.3499,-2.5048,-2.6137,-2.7981,-3.1292,-3.2433,-3.3561,0.0,0.0,0.0,0.0,0.0,0.0,-3.5616,0.0,-3.6945,-3.6635,-3.6097,-3.5578,-3.5006,-3.3194,-3.0803,-2.7802,-2.5959,-2.391,-2.1909,-2.3703,-2.4514,-2.4431,-2.5792,-2.5741,-2.4627,-2.5129,-2.4689,-2.3595,-2.3551,-2.3551,-2.3626,-2.4343,-2.5015,-2.5642,-2.6378,-2.7066,-2.7619,-2.7619,-2.7655,-2.7625,-2.77,-2.77,-2.7754,-2.8442,-2.8697,-2.8996,-3.0178,-3.0552,-3.0746,-3.1317,-3.1482,-3.1482,-3.1482,-3.1482,-3.1278,-3.0464,-3.0329,-2.9766,-2.8051,-2.9093,-2.9931,-2.917,-3.0906,-3.2646,-3.3272,-3.2616,-3.213,-3.2512,-3.2497,-3.2736,-3.3425,-3.3499,-3.2757,-3.0932,-3.0339,-2.947,-2.8205,-2.8134,-2.8386,-2.89,-2.9478,-2.9275,-2.8096,-2.7046,-2.5964,-2.4787,-2.3637,-2.3135,-2.3135,-2.3135,-2.3222,-3.344,-3.6512,-3.837,-4.034,-4.0818,-4.0698,-4.0299,-3.7567,-3.4416,-3.1876,-2.5395,-1.9797,0.0,0.0,0.0,-2.1921,-2.5084,0.0,-3.3211,-3.3992,0.0,-3.6253,0.0,-3.6653,-3.7266,-3.7271,0.0,0.0,-3.5447,-3.5463,-3.5353,-3.4206,-3.3147,-3.2216,-3.1738,-2.9808,-2.636,-2.361,-2.2098,-2.1909,-2.3482,-2.43,-2.4445,-2.5909,-2.5845,-2.4627,-2.4747,-2.4356,-2.3551,-2.3098,-2.2934,-2.3036,-2.4203,-2.479,-2.5131,-2.6738,-2.7754,-2.8338,-2.8338,-2.8008,-2.779,-2.8742,-2.8742,-2.8457,-2.9131,-3.0013,-3.0746,-3.0552,-3.1225,-3.1928,-3.1614,-3.1482,-3.1482,-3.1482,-3.1482,-3.1278,-3.0464,-3.0329,-2.9766,-2.8051,-2.8385,-2.9064,-2.9536,-3.0438,-3.1148,-3.1316,-3.1132,-3.1551,-3.3062,-3.2647,-3.2566,-3.3408,-3.3499,-3.2757,-3.0932,-3.066,-2.9902,-2.823,-2.8499,-2.8787,-2.8925,-2.9478,-2.9275,-2.8096,-2.7046,-2.5964,-2.4787,-2.3637,-2.3135,-2.3135,-2.3963,-2.4382,-3.6965,-3.9364,-4.0566,-4.0996,-4.071,-3.9675,-3.7257,-3.4352,-3.0767,-2.5861,-2.0073,0.0,0.0,0.0,0.0,0.0,0.0,0.0,-3.1706,-3.2645,-3.3698,0.0,-3.6507,0.0,-3.69,-3.664,-3.6033,0.0,-3.4838,-3.4422,-3.3276,-3.2023,-3.0878,-2.9805,-2.9365,-2.7746,-2.485,-2.287,-2.1897,-2.1909,-2.2756,-2.3609,-2.4445,-2.555,-2.5508,-2.4627,-2.4836,-2.4297,-2.3201,-2.283,-2.2558,-2.2381,-2.3688,-2.4433,-2.4887,-2.6498,-2.7543,-2.8188,-2.8502,-2.8353,-2.8188,-2.925,-2.9146,-2.8771,-2.9699,-3.0717,-3.1452,-3.142,-3.2138,-3.2796,-3.2138,-3.1958,-3.1884,-3.1541,-3.1219,-3.0837,-3.0389,-3.0164,-2.9855,-2.9092,-2.893,-2.9236,-3.0377,-3.0828,-3.1144,-3.1406,-3.1113,-3.1378,-3.2895,-3.2745,-3.2818,-3.3627,-3.4085,-3.3607,-3.1722,-3.135,-3.0562,-2.8975,-2.89,-2.9038,-2.9302,-2.9616,-2.9534,-2.8858,-2.7302,-2.6378,-2.6273,-2.4628,-2.4135,-2.4648,-2.5221,-2.5546,-3.8648,-4.0448,-4.1172,-4.1055,-4.0351,-3.8495,-3.3906,-3.1079,-2.7241,-1.9395,0.0,-1.4296,-1.4347,0.0,-1.5364,-2.0482,0.0,-2.4609,-2.9416,-3.0644,-3.2173,-3.5348,-3.6301,-3.6413,-3.5752,-3.5365,-3.479,-3.3706,-3.4,-3.3199,-3.0951,-2.9804,-2.8775,-2.7929,-2.6989,-2.5595,-2.3743,-2.304,-2.2403,-2.1702,-2.193,-2.2739,-2.4096,-2.4953,-2.4991,-2.4458,-2.506,-2.4343,-2.2801,-2.2623,-2.2226,-2.1801,-2.2981,-2.3932,-2.4739,-2.6035,-2.7041,-2.785,-2.8397,-2.8667,-2.8831,-2.949,-2.9325,-2.9086,-3.0387,-3.124,-3.1913,-3.2482,-3.3125,-3.3469,-3.2826,-3.2512,-3.2303,-3.1738,-3.0951,-3.033,-3.0192,-2.9845,-2.9712,-3.0161,-2.9784,-2.9729,-3.0986,-3.1289,-3.1591,-3.2167,-3.1536,-3.1328,-3.2105,-3.2597,-3.31,-3.3751,-3.4624,-3.4409,-3.2607,-3.1983,-3.1146,-2.9908,-2.9315,-2.9264,-2.9779,-2.9792,-2.9792,-2.9792,-2.7799,-2.7209,-2.8096,-2.6025,-2.5546,-2.6483,-2.6637,-2.6719,-3.9459,-4.0524,-4.1191,-4.1172,-4.0388,-3.8291,-3.3243,-2.8714,0.0,0.0,0.0,-1.1213,-1.3678,-1.3521,0.0,-2.3323,0.0,0.0,0.0,0.0,-3.3878,0.0,0.0,0.0,0.0,0.0,0.0,0.0,-3.0764,-3.0259,-2.9757,-2.8047,-2.737,-2.8048,-2.7035,-2.6001,-2.4937,-2.352,-2.2199,-2.0875,-2.1775,-2.2321,-2.2458,-2.4556,-2.4783,-2.3649,-2.4345,-2.4126,-2.3202,-2.2204,-2.1699,-2.1663,-2.2458,-2.3198,-2.4109,-2.5864,-2.7348,-2.8442,-2.8562,-2.8951,-2.952,-3.0133,-3.0268,-3.0417,-3.1764,-3.2632,-3.3185,-3.329,-3.3799,-3.4158,-3.3499,-3.272,-3.2159,-3.2043,-3.1282,-3.0361,-2.9685,-2.8974,-2.8392,-2.8494,-2.8743,-2.9098,-2.9323,-2.9744,-3.0177,-3.0266,-3.0152,-3.0075,-3.0292,-3.104,-3.1852,-3.2735,-3.3031,-3.2678,-3.1536,-3.1369,-3.0865,-2.9856,-2.9691,-2.9691,-2.9792,-2.9792,-2.9792,-2.9792,-2.8518,-2.7924,-2.8096,-2.6789,-2.6307,-2.6554,-2.7452,-2.7844,-3.776,-3.924,-4.0979,-4.05,-3.9292,-3.6495,-2.9788,0.0,0.0,0.0,0.0,-1.051,-1.382,0.0,0.0,0.0,0.0,0.0,0.0,0.0,0.0,0.0,0.0,0.0,0.0,0.0,0.0,0.0,-2.8782,-2.7669,-2.7082,-2.5597,-2.5221,-2.6356,-2.6121,-2.5732,-2.5093,-2.4653,-2.3356,-2.1355,-2.2361,-2.273,-2.2552,-2.4129,-2.4557,-2.3912,-2.4277,-2.3837,-2.2804,-2.2273,-2.181,-2.1607,-2.2227,-2.2918,-2.3702,-2.4902,-2.6034,-2.7054,-2.7793,-2.8429,-2.9116,-3.0171,-3.0746,-3.1225,-3.2213,-3.3215,-3.4008,-3.4008,-3.4125,-3.4061,-3.3445,-3.2579,-3.1738,-3.1415,-3.0596,-2.9811,-2.9287,-2.8807,-2.8624,-2.8925,-2.9202,-2.9377,-2.9377,-2.9616,-2.9792,-2.9792,-2.9792,-2.9792,-2.9792,-3.0216,-3.0833,-3.1742,-3.2321,-3.2249,-3.1241,-3.118,-3.0833,-2.9869,-2.9792,-2.9792,-2.9792,-2.9792,-2.9792,-2.9792,-2.8676,-2.8426,-2.8937,-2.7867,-2.7626,-2.8211,-2.8779,-2.8937,-3.6526,-3.852,-4.0766,-3.983,-3.828,-3.4861,-2.6756,-2.3474,0.0,0.0,-1.0363,-1.067,-1.4217,0.0,0.0,0.0,0.0,0.0,0.0,0.0,0.0,0.0,0.0,0.0,0.0,0.0,0.0,0.0,-2.7302,-2.5587,-2.4407,-2.366,-2.3791,-2.4828,-2.5444,-2.5565,-2.5156,-2.5468,-2.447,-2.2192,-2.2884,-2.3115,-2.2946,-2.3897,-2.4243,-2.4108,-2.4273,-2.3688,-2.2509,-2.2447,-2.2078,-2.1707,-2.2146,-2.2744,-2.3448,-2.4068,-2.4818,-2.5716,-2.6819,-2.781,-2.8756,-2.9864,-3.0785,-3.1586,-3.205,-3.306,-3.3947,-3.3938,-3.3819,-3.3557,-3.31,-3.2263,-3.1276,-3.0298,-2.9737,-2.9246,-2.8509,-2.8785,-2.9163,-2.9369,-2.9624,-2.9792,-2.9792,-2.9792,-2.9792,-2.9792,-2.9792,-2.9792,-2.9792,-2.9792,-3.0075,-3.0833,-3.1536,-3.1683,-3.097,-3.0895,-3.0558,-2.9869,-2.9792,-2.9792,-2.9792,-2.9792,-2.9792,-2.9792,-2.8937,-2.8937,-2.9792,-2.8937,-2.8937,-2.9792,-2.9792,-2.9792,-3.8151,-4.0084,-4.077,-3.9827,-3.824,-3.4815,-2.674,0.0,0.0,0.0,-1.0494,-1.0947,-1.4807,-1.1844,0.0,0.0,0.0,0.0,0.0,0.0,0.0,0.0,0.0,0.0,0.0,0.0,0.0,0.0,-2.6191,-2.4291,-2.2834,-2.3469,-2.4246,-2.4993,-2.5881,-2.6221,-2.5739,-2.5373,-2.4449,-2.2801,-2.2776,-2.2738,-2.2747,-2.3795,-2.3917,-2.3289,-2.3968,-2.3826,-2.2997,-2.2493,-2.2292,-2.2234,-2.2297,-2.2744,-2.3448,-2.4068,-2.5074,-2.6169,-2.6282,-2.7581,-2.9246,-2.9362,-3.0367,-3.147,-3.1372,-3.1792,-3.2277,-3.2089,-3.2347,-3.2735,-3.268,-3.1951,-3.0764,-2.8795,-2.909,-2.9217,-2.714,-2.8311,-2.9471,-2.8426,-2.9106,-2.9792,-2.9792,-2.9792,-2.9792,-2.9792,-2.9792,-2.9792,-2.9792,-2.9792,-2.9869,-2.9934,-2.9998,-2.9998,-2.9934,-2.9934,-2.9856,-2.9792,-2.9792,-2.9792,-2.9792,-2.9792,-2.9792,-2.9792,-2.9714,-2.9714,-2.9792,-2.9702,-2.9714,-2.9792,-2.9792,-2.9792,-3.378,-3.7341,-4.0466,-3.9003,-3.6848,-3.3245,-2.6209,0.0,0.0,-1.3731,-1.1902,-1.1802,-1.3442,-1.1397,-1.0538,0.0,0.0,0.0,0.0,0.0,0.0,0.0,0.0,0.0,0.0,0.0,0.0,-2.8243,-2.6707,-2.5304,-2.4073,-2.399,-2.4568,-2.5889,-2.6271,-2.6809,-2.7437,-2.6781,-2.6057,-2.5319,-2.4823,-2.448,-2.4147,-2.4269,-2.4118,-2.3826,-2.3662,-2.3424,-2.3053,-2.2899,-2.2811,-2.2811,-2.2811,-2.2964,-2.3321,-2.391,-2.4438,-2.5014,-2.6249,-2.7155,-2.7975,-2.8828,-2.9492,-3.0125,-3.0974,-3.1547,-3.1867,-3.1833,-3.1785,-3.1742,-3.1742,-3.053,-2.9098,-2.8323,-2.7947,-2.7557,-2.673,-2.7706,-2.8597,-2.8176,-2.9028,-2.9792,-2.9792,-2.9792,-2.9792,-2.9792,-2.9792,-2.9792,-2.9792,-2.9792,-2.9792,-2.9792,-2.9792,-2.9792,-2.9792,-2.9792,-2.9792,-2.9792,-2.9792,-2.9792,-2.9792,-2.9792,-2.9792,-2.9792,-2.9792,-2.9792,-2.9792,-2.9792,-2.9792,-2.9792,-2.9792,-2.9792,-3.0301,-3.4586,-3.857,-3.7338,-3.4843,-3.1153,0.0,0.0,0.0,-1.431,-1.2861,-1.2456,-1.2771,-1.1628,-1.0742,0.0,0.0,0.0,0.0,0.0,0.0,0.0,0.0,0.0,0.0,0.0,0.0,-2.7695,-2.7071,-2.6371,-2.5515,-2.5083,-2.5338,-2.6382,-2.6749,-2.7402,-2.8639,-2.8072,-2.7616,-2.7225,-2.6578,-2.5868,-2.5051,-2.4562,-2.4176,-2.3884,-2.3365,-2.3078,-2.3078,-2.3078,-2.3078,-2.3078,-2.3078,-2.3078,-2.314,-2.3791,-2.4104,-2.4431,-2.5975,-2.6791,-2.7324,-2.8292,-2.8729,-2.9077,-3.0121,-3.0724,-3.106,-3.0956,-3.0877,-3.0758,-3.0758,-2.9422,-2.8004,-2.7683,-2.7046,-2.6307,-2.5641,-2.6625,-2.7602,-2.7602,-2.853,-2.9365,-2.9714,-2.9792,-2.9792,-2.9792,-2.9792,-2.9792,-2.9792,-2.9792,-2.9792,-2.9792,-2.9792,-2.9792,-2.9792,-2.9792,-2.9792,-2.9792,-2.9792,-2.9792,-2.9792,-2.9792,-2.9792,-2.9792,-2.9792,-2.9792,-2.9792,-2.9792,-2.9792,-2.9792,-2.9792,-2.9792,-2.9306,-3.2625,-3.4596,-3.4711,-3.2277,-2.8669,0.0,0.0,0.0,-1.4191,-1.3011,-1.2716,-1.3446,-1.2543,-1.1971,-1.2824,-1.3045,0.0,0.0,0.0,0.0,0.0,0.0,0.0,0.0,0.0,0.0,-2.6565,-2.6976,0.0,-2.6522,-2.6712,-2.6702,-2.6314,-2.7178,-2.813,-2.9016,-2.9016,-2.8636,-2.7968,-2.7423,-2.6476,-2.5064,-2.4556,-2.3884,-2.3138,-2.3078,-2.3078,-2.3078,-2.3078,-2.3078,-2.3078,-2.3078,-2.3078,-2.314,-2.3791,-2.4343,-2.4895,-2.541,-2.6539,-2.7657,-2.7736,-2.8092,-2.8541,-2.8541,-2.8976,-2.9385,-2.9048,-2.934,-2.9792,-2.9792,-2.8937,-2.7844,-2.6801,-2.6472,-2.5891,-2.3637,-2.4893,-2.6483,-2.6483,-2.736,-2.8518,-2.9624,-2.9792,-2.9792,-2.9792,-2.9792,-2.9792,-2.9792,-2.9792,-2.9792,-2.9792,-2.9792,-2.9792,-2.9792,-2.9792,-2.9792,-2.9792,-2.9792,-2.9792,-2.9792,-2.9792,-2.9792,-2.9792,-2.9792,-2.9792,-2.9792,-2.9792,-2.9792,-2.9792,-2.9792,-2.9792,-2.5171,-2.8258,-3.0406,-2.9902,-2.8004,-2.5264,-2.1502,0.0,0.0,0.0,-1.3113,-1.2926,-1.3672,-1.3249,-1.2669,-1.2314,-1.2342,0.0,0.0,0.0,0.0,0.0,0.0,0.0,0.0,0.0,-2.7574,-2.7621,-2.8299,-2.8443,-2.7882,-2.847,-2.8385,-2.7311,-2.809,-2.9002,-2.9889,-2.8836,-2.8774,-2.971,-2.8498,-2.7183,-2.5813,-2.5172,-2.419,-2.2977,-2.2482,-2.2567,-2.3078,-2.3078,-2.3078,-2.3078,-2.3078,-2.3376,-2.3791,-2.4356,-2.4895,-2.5485,-2.6427,-2.681,-2.6914,-2.7283,-2.7525,-2.7729,-2.8112,-2.8635,-2.9134,-2.9428,-2.9654,-2.9624,-2.8858,-2.7867,-2.6707,-2.563,-2.4713,-2.3973,-2.3222,-2.4893,-2.6483,-2.6483,-2.7959,-2.9365,-2.9714,-2.9792,-2.9792,-2.9792,-2.9792,-2.9792,-2.9792,-2.9792,-2.9792,-2.9792,-2.9792,-2.9792,-2.9792,-2.9792,-2.9792,-2.9792,-2.9792,-2.9792,-2.9792,-2.9792,-2.9792,-2.9792,-2.9792,-2.9792,-2.9792,-2.9792,-2.9792,-2.9792,-2.9792,-2.9792,0.0,-2.4411,-2.6326,-2.6277,-2.4173,0.0,0.0,0.0,0.0,0.0,0.0,0.0,0.0,0.0,0.0,0.0,0.0,0.0,0.0,0.0,0.0,0.0,0.0,0.0,0.0,0.0,-2.7191,-2.7601,-2.855,-2.9116,-2.9345,-2.9981,-3.0049,-2.9473,-2.9448,-2.9775,-3.0397,-2.9638,-2.9433,-2.9774,-2.8807,-2.7284,-2.5361,-2.4635,-2.365,-2.2555,-2.2101,-2.2384,0.0,-2.3078,-2.3078,-2.3103,-2.3376,-2.3678,-2.4092,-2.4845,-2.5322,-2.5749,-2.6892,-2.7055,-2.6866,-2.7419,-2.7733,-2.7923,-2.8076,-2.8648,-2.9327,-2.9691,-2.9792,-2.9534,-2.8426,-2.7279,-2.6224,-2.5041,-2.3963,-2.3135,-2.3135,-2.4553,-2.5975,-2.6389,-2.7959,-2.9287,-2.9714,-2.9443,-2.9275,-2.9714,-2.9443,-2.9275,-2.9714,-2.9792,-2.9792,-2.9792,-2.9792,-2.9792,-2.9792,-2.9792,-2.9792,-2.9792,-2.9792,-2.9792,-2.9792,-2.9365,-2.9365,-2.9792,-2.9365,-2.9365,-2.9792,-2.9792,-2.9611,-2.9197,-2.9624,-2.9792,0.0,0.0,0.0,0.0,0.0,0.0,0.0,0.0,0.0,0.0,0.0,0.0,0.0,0.0,0.0,0.0,0.0,0.0,0.0,0.0,0.0,0.0,0.0,0.0,0.0,-2.48,-2.6712,-2.71,-2.8085,-2.9378,-3.0892,-3.1366,-3.186,-3.24,-3.12,-3.0529,-3.0563,-3.1098,-3.0387,-2.854,-2.8338,-2.6737,-2.3922,-2.3179,-2.2506,-2.1815,-2.1815,-2.2322,-2.3078,-2.3078,-2.3078,-2.3188,-2.3728,-2.3991,-2.418,-2.5172,-2.5611,-2.5875,-2.6967,-2.7344,-2.7431,-2.7984,-2.8437,-2.871,-2.8349,-2.8937,-2.9624,-2.9624,-2.9546,-2.9287,-2.8176,-2.7116,-2.6058,-2.4957,-2.3887,-2.3135,-2.3135,-2.4049,-2.521,-2.6307,-2.7371,-2.8426,-2.9534,-2.8767,-2.8347,-2.9534,-2.8767,-2.8505,-2.9624,-2.9792,-2.9792,-2.9792,-2.9792,-2.9792,-2.9792,-2.9792,-2.9792,-2.9792,-2.9792,-2.9792,-2.9792,-2.8688,-2.8597,-2.9792,-2.8767,-2.8688,-2.9702,-2.9792,-2.9197,-2.8096,-2.9275,-2.9792,-1.6529,0.0,-1.9047,-1.869,0.0,0.0,0.0,0.0,0.0,0.0,0.0,0.0,0.0,0.0,0.0,0.0,0.0,0.0,0.0,0.0,0.0,0.0,0.0,0.0,0.0,-2.6025,-2.7668,-2.9164,-3.0046,-3.1116,-3.2491,-3.3631,-3.4118,-3.3811,-3.3034,-3.2182,-3.1366,-3.0969,-2.9757,-2.7733,-2.7028,-2.5175,-2.2262,-2.1902,-2.1481,-2.091,-2.091,-2.1741,-2.3078,-2.3078,-2.3078,-2.309,-2.3288,-2.3866,-2.4657,-2.4908,-2.5799,-2.6992,-2.767,-2.7908,-2.8009,-2.8561,-2.826,-2.7895,-2.9024,-2.8937,-2.8347,-2.7545,-2.7302,-2.7046,-2.587,-2.5368,-2.4872,-2.38,-2.3299,-2.3135,-2.3135,-2.4723,-2.6141,-2.6472,-2.7371,-2.8176,-2.8426,-2.7614,-2.7209,-2.8347,-2.8255,-2.8505,-2.9624,-2.9792,-2.9792,-2.9792,-2.9792,-2.9792,-2.9792,-2.9792,-2.9792,-2.9792,-2.9792,-2.9792,-2.9792,-2.8688,-2.8597,-2.9792,-2.9534,-2.9106,-2.8518,-2.9365,-2.9197,-2.8096,-2.9275,-2.9792,-1.568,-1.6334,-1.6885,-1.6463,-1.5802,-1.5013,0.0,0.0,0.0,0.0,0.0,0.0,0.0,0.0,0.0,0.0,0.0,0.0,0.0,0.0,0.0,0.0,0.0,0.0,0.0,-2.8274,-2.9929,-3.1477,-3.2206,-3.317,-3.4606,-3.5154,-3.5246,-3.4848,-3.3827,-3.2621,-3.1151,-3.0661,-2.9163,-2.6694,-2.6106,-2.4253,-2.136,-2.1334,-2.1048,-2.0655,-2.1037,-2.1928,-2.3078,-2.3078,-2.3078,-2.3128,-2.3715,-2.428,-2.4883,-2.5385,-2.6302,-2.7369,-2.7908,-2.8448,-2.8925,-2.9227,-2.8919,-2.8558,-2.8929,-2.8279,-2.736,-2.729,-2.6883,-2.6224,-2.5126,-2.521,-2.5136,-2.3474,-2.3464,-2.3714,-2.3222,-2.4467,-2.5714,-2.5714,-2.6625,-2.7371,-2.7371,-2.6883,-2.6883,-2.7924,-2.8096,-2.8505,-2.9624,-2.9792,-2.9792,-2.9792,-2.9792,-2.9792,-2.9792,-2.9792,-2.9792,-2.9792,-2.9792,-2.9792,-2.9792,-2.8688,-2.8426,-2.9028,-2.9534,-2.9275,-2.8096,-2.9275,-2.9197,-2.8096,-2.9275,-2.9792,-1.5509,-1.56,-1.5692,-1.5692,-1.4676,-1.3629,0.0,0.0,0.0,0.0,0.0,0.0,0.0,0.0,0.0,0.0,0.0,0.0,0.0,0.0,0.0,0.0,0.0,0.0,-2.8907,-3.1,-3.2724,-3.3962,-3.4421,-3.5248,-3.6521,-3.6127,-3.5542,-3.4824,-3.3437,-3.1815,-2.9939,-2.9818,-2.8297,-2.536,-2.4974,-2.3381,-2.0952,-2.1107,-2.0997,-2.0879,-2.1788,-2.2627,-2.3328,-2.3328,-2.3328,-2.3489,-2.4443,-2.4741,-2.4863,-2.6088,-2.6714,-2.7038,-2.7668,-2.8509,-2.93,-2.93,-2.9209,-2.887,-2.8108,-2.6953,-2.6224,-2.7267,-2.6789,-2.5724,-2.4798,-2.5221,-2.5473,-2.356,-2.38,-2.4296,-2.3299,-2.3963,-2.4787,-2.4787,-2.5714,-2.6483,-2.6483,-2.6483,-2.6883,-2.7924,-2.8096,-2.8505,-2.9624,-2.9792,-2.9792,-2.9792,-2.9792,-2.9792,-2.9792,-2.9792,-2.9792,-2.9792,-2.9792,-2.9702,-2.9534,-2.8767,-2.8267,-2.8096,-2.9197,-2.9275,-2.8096,-2.9275,-2.9197,-2.8096,-2.9275,-2.9792,-1.4683,-1.5178,-1.5692,-1.5692,-1.5509,-1.5141,0.0,0.0,0.0,0.0,0.0,0.0,0.0,0.0,0.0,0.0,0.0,0.0,0.0,0.0,0.0,0.0,0.0,-3.1185,-3.1883,-3.3301,-3.4814,-3.6451,-3.6485,-3.6453,-3.6492,-3.6384,-3.5016,-3.219,-3.082,-2.9107,-2.683,-2.758,-2.6436,-2.3429,-2.2619,-2.1663,-2.0677,-2.0769,-2.1224,-2.1812,-2.2854,-2.3745,-2.4556,-2.4556,-2.4556,-2.4582,-2.4757,-2.4624,-2.447,-2.594,-2.5973,-2.5481,-2.6417,-2.6839,-2.6976,-2.6976,-2.6378,-2.5703,-2.6554,-2.5305,-2.3887,-2.4957,-2.4457,-2.3551,-2.3387,-2.3474,-2.356,-2.3222,-2.3222,-2.3299,-2.3135,-2.3963,-2.4787,-2.4787,-2.5714,-2.6483,-2.6483,-2.6483,-2.6883,-2.7924,-2.8096,-2.8505,-2.9624,-2.9792,-2.9792,-2.9792,-2.9792,-2.9792,-2.9792,-2.9792,-2.9792,-2.9792,-2.9792,-2.9365,-2.8426,-2.9106,-2.9106,-2.8096,-2.9197,-2.9275,-2.8096,-2.9275,-2.9197,-2.8096,-2.9275,-2.9792,-1.5141,-1.5417,-1.6114,-1.7858,-1.7307,0.0,0.0,0.0,0.0,0.0,0.0,0.0,0.0,0.0,0.0,0.0,0.0,0.0,0.0,0.0,0.0,0.0,0.0,-3.3196,-3.5206,-3.6305,-3.7332,-3.8377,-3.7728,-3.6867,-3.5903,-3.4689,-3.2746,-2.9946,-2.8367,-2.6614,-2.4607,-2.4599,-2.3928,-2.2628,-2.2111,-2.1592,-2.1041,-2.1614,-2.2165,-2.2875,-2.3779,-2.4406,-2.4755,-2.4186,-2.3976,-2.3935,-2.3744,-2.3677,-2.389,-2.5468,-2.5689,-2.5407,-2.6225,-2.6483,-2.6483,-2.6483,-2.6141,-2.5797,-2.6307,-2.5305,-2.4125,-2.4617,-2.3963,-2.3135,-2.3135,-2.3551,-2.3877,-2.3222,-2.4059,-2.4808,-2.4135,-2.4882,-2.5546,-2.4957,-2.5714,-2.6307,-2.5724,-2.6532,-2.7522,-2.8016,-2.8597,-2.9197,-2.9702,-2.9792,-2.9792,-2.9792,-2.9792,-2.9792,-2.9792,-2.9792,-2.9792,-2.9792,-2.9197,-2.8688,-2.8096,-2.8597,-2.8597,-2.8084,-2.9197,-2.9534,-2.9028,-2.9534,-2.9534,-2.9028,-2.9546,-2.9792,-1.5918,-1.6114,-1.6862,-1.9387,0.0,0.0,0.0,0.0,0.0,0.0,0.0,0.0,0.0,0.0,0.0,0.0,0.0,0.0,0.0,0.0,0.0,-3.2761,-3.367,-3.5123,-3.8044,-3.8734,-3.9008,-3.9077,-3.7916,-3.6296,-3.4177,-3.2159,-2.9875,-2.7357,-2.578,-2.4248,-2.2698,-2.1985,-2.1742,-2.1897,-2.1753,-2.1634,-2.1587,-2.2234,-2.3035,-2.3883,-2.4578,-2.4855,-2.4789,-2.4006,-2.3576,-2.3339,-2.3021,-2.3251,-2.3771,-2.4549,-2.506,-2.5447,-2.5677,-2.5724,-2.5724,-2.5724,-2.5724,-2.5724,-2.5724,-2.5052,-2.4372,-2.4372,-2.38,-2.3135,-2.3135,-2.3714,-2.4211,-2.3299,-2.4392,-2.5557,-2.4957,-2.5462,-2.5797,-2.4957,-2.5714,-2.6224,-2.5378,-2.6778,-2.8176,-2.8438,-2.9275,-2.9792,-2.9792,-2.9792,-2.9792,-2.9792,-2.9792,-2.9792,-2.9792,-2.9546,-2.9365,-2.9365,-2.8597,-2.8004,-2.7763,-2.7936,-2.8096,-2.8096,-2.9197,-2.9792,-2.9792,-2.9792,-2.9792,-2.9792,-2.9792,-2.9792,-1.6556,-1.7348,-1.8029,-1.8458,0.0,0.0,0.0,0.0,0.0,0.0,0.0,0.0,0.0,0.0,0.0,0.0,0.0,0.0,0.0,0.0,-3.371,-3.6647,-3.7267,-3.809,-3.9768,-3.9694,-3.8959,-3.7572,-3.6445,-3.425,-3.0607,-2.9071,-2.682,-2.3645,-2.2913,-2.1983,-2.0847,-2.0712,-2.0692,-2.073,-2.0692,-2.1135,-2.1985,-2.206,-2.3069,-2.4897,-2.4968,-2.4968,-2.4968,-2.4897,-2.4304,-2.3486,-2.3447,-2.4052,-2.4726,-2.3288,-2.3652,-2.4745,-2.3714,-2.3299,-2.3299,-2.3299,-2.3299,-2.3299,-2.3299,-2.3309,-2.3222,-2.3222,-2.3135,-2.3135,-2.3135,-2.3135,-2.3222,-2.3135,-2.3222,-2.3637,-2.4628,-2.4872,-2.4872,-2.4787,-2.5714,-2.6483,-2.6389,-2.736,-2.8438,-2.9534,-2.9792,-2.9792,-2.9792,-2.9792,-2.9792,-2.9792,-2.9792,-2.9792,-2.9792,-2.8858,-2.8255,-2.8255,-2.8176,-2.7683,-2.6637,-2.7602,-2.8096,-2.8096,-2.9197,-2.9792,-2.9792,-2.9792,-2.9792,-2.9792,-2.9792,-2.9792,-1.7508,-1.8498,-1.9795,-2.1458,0.0,0.0,0.0,0.0,0.0,0.0,0.0,0.0,0.0,0.0,0.0,0.0,0.0,0.0,0.0,0.0,-3.5105,-3.6813,-3.7379,-3.7872,-3.848,-3.7835,-3.677,-3.5356,-3.3037,-3.058,-2.7876,-2.5775,-2.3813,-2.1985,-2.146,-2.103,-2.0634,-2.0566,-2.0566,-2.0566,-2.0566,-2.1078,-2.2027,-2.2027,-2.2776,-2.4036,-2.4036,-2.4036,-2.4036,-2.3368,-2.3099,-2.2981,-2.2881,-2.3083,-2.336,-2.2992,-2.3248,-2.3714,-2.3212,-2.3135,-2.3135,-2.3135,-2.3135,-2.3135,-2.3135,-2.3135,-2.3135,-2.3135,-2.3135,-2.3135,-2.3135,-2.3135,-2.3135,-2.3135,-2.3637,-2.4457,-2.563,-2.6367,-2.6849,-2.6849,-2.7775,-2.8291,-2.7614,-2.8438,-2.9275,-2.9714,-2.9792,-2.9792,-2.9792,-2.9792,-2.9792,-2.9792,-2.9792,-2.9534,-2.8767,-2.8347,-2.751,-2.6108,-2.6025,-2.587,-2.5462,-2.6543,-2.7128,-2.7128,-2.887,-2.9792,-2.9792,-2.9792,-2.9792,-2.9792,-2.9792,-2.9792,-1.8273,-1.9155,-2.0422,0.0,0.0,0.0,0.0,0.0,0.0,0.0,0.0,0.0,0.0,0.0,0.0,0.0,0.0,0.0,0.0,-3.5622,-3.5857,-3.6776,-3.7062,-3.7124,-3.6988,-3.5882,-3.4359,-3.2377,-2.9718,-2.7143,-2.4793,-2.2946,-2.1567,-2.0616,-2.042,-2.0361,-2.0361,-2.0361,-2.043,-2.0566,-2.0566,-2.1078,-2.1952,-2.1659,-2.2253,-2.3514,-2.3147,-2.2999,-2.2999,-2.2253,-2.1998,-2.208,-2.2211,-2.2314,-2.2383,-2.293,-2.3135,-2.3135,-2.3135,-2.3135,-2.3135,-2.3135,-2.3135,-2.3135,-2.3135,-2.3135,-2.3135,-2.3135,-2.3135,-2.3135,-2.3135,-2.3135,-2.3135,-2.3135,-2.3714,-2.4628,-2.6141,-2.7046,-2.7683,-2.8004,-2.8767,-2.9028,-2.8255,-2.8767,-2.9365,-2.9714,-2.9792,-2.9792,-2.9792,-2.9792,-2.9792,-2.9792,-2.9456,-2.8937,-2.8176,-2.7429,-2.6438,-2.4872,-2.4457,-2.4457,-2.4787,-2.588,-2.6637,-2.6964,-2.887,-2.9792,-2.9792,-2.9792,-2.9792,-2.9792,-2.9792,-2.9792,-1.8802,-1.9265,0.0,0.0,0.0,0.0,0.0,0.0,0.0,0.0,0.0,0.0,0.0,0.0,0.0,0.0,0.0,-3.4971,-3.5776,-3.5869,-3.6168,-3.6958,-3.6696,-3.6198,-3.5615,-3.4217,-3.1964,-2.8619,-2.6659,-2.43,-2.1183,-2.0695,-2.0186,-1.936,-1.9697,-1.9912,-1.9922,-1.9912,-2.0137,-2.0566,-2.0566,-2.1078,-2.1952,-2.1011,-2.168,-2.3452,-2.2403,-2.1952,-2.1952,-2.1973,-2.1461,-2.0664,-2.1553,-2.1894,-2.2002,-2.2832,-2.3135,-2.3135,-2.3135,-2.3135,-2.3135,-2.3135,-2.3135,-2.3135,-2.3135,-2.3135,-2.3135,-2.3135,-2.3135,-2.3135,-2.3135,-2.3135,-2.3135,-2.3135,-2.3135,-2.3724,-2.5975,-2.6483,-2.6801,-2.7936,-2.8096,-2.8096,-2.8096,-2.8096,-2.8518,-2.9624,-2.9792,-2.9792,-2.9792,-2.9792,-2.9792,-2.9792,-2.8767,-2.8096,-2.8096,-2.6108,-2.4787,-2.4787,-2.3714,-2.3637,-2.4787,-2.588,-2.6964,-2.8096,-2.9197,-2.9792,-2.9792,-2.9792,-2.9792,-2.9792,-2.9792,-2.9792,-1.9063,0.0,0.0,0.0,0.0,0.0,0.0,0.0,0.0,0.0,0.0,0.0,0.0,0.0,0.0,-3.0797,-3.2734,-3.4448,-3.4917,-3.41,-3.3523,-3.3762,-3.331,-3.2621,-3.1758,-3.0078,-2.8088,-2.5835,-2.3391,-2.1474,-2.0293,-1.9553,-1.938,-1.9707,-1.9561,-1.9756,-2.0361,-2.0068,-2.0137,-2.0566,-2.0566,-2.0712,-2.1011,-2.0712,-2.0934,-2.1451,-2.1155,-2.1011,-2.1061,-2.169,-2.1808,-2.1582,-2.2432,-2.2764,-2.2793,-2.3047,-2.3135,-2.3135,-2.3135,-2.3135,-2.3135,-2.3135,-2.3135,-2.3135,-2.3135,-2.3135,-2.3135,-2.3135,-2.3135,-2.3135,-2.3135,-2.3135,-2.3135,-2.3135,-2.3135,-2.3724,-2.5975,-2.6483,-2.7058,-2.8949,-2.9287,-2.9287,-2.9287,-2.9287,-2.9443,-2.9792,-2.9792,-2.9792,-2.9792,-2.9792,-2.9792,-2.9792,-2.8767,-2.7763,-2.7046,-2.563,-2.4457,-2.3627,-2.4049,-2.4457,-2.4787,-2.588,-2.6964,-2.8096,-2.9197,-2.9792,-2.9792,-2.9792,-2.9792,-2.9792,-2.9792,-2.9792,-1.8904,0.0,0.0,0.0,0.0,0.0,0.0,0.0,0.0,0.0,0.0,0.0,0.0,0.0,0.0,-2.9942,-3.1218,-3.2314,-3.2715,-3.2012,-3.1464,-3.1464,-3.0626,-2.9549,-2.8356,-2.6821,-2.5127,-2.3231,-2.1279,-1.9889,-1.9092,-1.9105,-1.9078,-1.9042,-1.9358,-1.9785,-2.0303,-2.0049,-2.0137,-2.0566,-2.0566,-2.0566,-2.0566,-2.0566,-2.0566,-2.0566,-2.0566,-2.0566,-2.0625,-2.1338,-2.1621,-2.1709,-2.2559,-2.2891,-2.291,-2.3076,-2.3135,-2.3135,-2.3135,-2.3135,-2.3135,-2.3135,-2.3135,-2.3135,-2.3135,-2.3135,-2.3135,-2.3135,-2.3135,-2.3135,-2.3135,-2.3135,-2.3135,-2.3135,-2.3135,-2.3637,-2.5473,-2.6141,-2.7058,-2.8779,-2.9456,-2.9792,-2.9792,-2.9792,-2.9792,-2.9792,-2.9792,-2.9792,-2.9792,-2.9792,-2.9624,-2.9197,-2.8108,-2.7035,-2.588,-2.4798,-2.379,-2.3135,-2.4211,-2.5041,-2.5462,-2.6543,-2.7614,-2.8767,-2.9456,-2.9792,-2.9792,-2.9792,-2.9792,-2.9792,-2.9792,-2.9792,0.0,0.0,0.0,0.0,0.0,0.0,0.0,0.0,0.0,0.0,0.0,0.0,0.0,0.0,-2.6507,-2.7501,-2.8419,-2.9185,-2.9671,-2.9716,-2.966,-2.966,-2.8367,-2.6939,-2.5531,-2.4336,-2.2857,-2.0964,-2.0107,-1.9092,-1.7599,-1.8798,-1.892,-1.7614,-1.8901,-1.9581,-1.9658,-1.962,-1.9812,-2.0323,-2.0401,-2.0401,-2.0323,-2.0479,-2.0566,-2.0566,-2.0566,-2.0566,-2.0605,-2.1094,-2.1289,-2.1377,-2.2236,-2.2568,-2.2617,-2.2998,-2.3135,-2.3135,-2.3135,-2.3135,-2.3135,-2.3135,-2.3135,-2.3135,-2.3135,-2.3135,-2.3135,-2.3135,-2.3135,-2.3135,-2.3135,-2.3135,-2.3135,-2.3135,-2.3135,-2.3387,-2.4542,-2.5714,-2.6801,-2.7936,-2.9028,-2.9792,-2.9792,-2.9792,-2.9792,-2.9792,-2.9792,-2.9792,-2.9792,-2.9702,-2.9275,-2.8176,-2.7035,-2.5975,-2.4872,-2.38,-2.3135,-2.3135,-2.4296,-2.5378,-2.6483,-2.7522,-2.8597,-2.9792,-2.9792,-2.9792,-2.9792,-2.9792,-2.9792,-2.9792,-2.9792,-2.9792,0.0,0.0,0.0,0.0,0.0,0.0,0.0,0.0,0.0,0.0,0.0,0.0,0.0,0.0,-2.6837,-2.6667,-2.7191,-2.769,-2.7781,-2.7397,-2.71,-2.71,-2.5802,-2.4646,-2.4064,-2.2575,-2.1019,-1.9525,-1.8619,-1.7658,-1.6455,-1.6683,-1.6826,-1.6891,-1.6835,-1.7167,-1.7852,-1.7552,-1.7595,-1.798,-1.8957,-1.8877,-1.806,-1.9835,-2.0566,-2.0566,-2.0566,-2.0566,-2.0625,-2.1416,-2.1748,-2.1826,-2.2676,-2.2998,-2.3018,-2.3105,-2.3135,-2.3135,-2.3135,-2.3135,-2.3135,-2.3135,-2.3135,-2.3135,-2.3135,-2.3135,-2.3135,-2.3135,-2.3135,-2.3135,-2.3135,-2.3135,-2.3135,-2.3135,-2.3135,-2.3387,-2.4542,-2.5714,-2.6801,-2.7936,-2.9028,-2.9792,-2.9792,-2.9792,-2.9792,-2.9792,-2.9792,-2.9792,-2.9792,-2.9028,-2.8347,-2.8096,-2.6367,-2.5041,-2.4787,-2.38,-2.3135,-2.3135,-2.4967,-2.6224,-2.6483,-2.7522,-2.8597,-2.9792,-2.9792,-2.9792,-2.9792,-2.9792,-2.9792,-2.9792,-2.9792,-2.9792,0.0,0.0,0.0,0.0,0.0,0.0,0.0,0.0,0.0,0.0,0.0,0.0,0.0,-2.3539,-2.3844,-2.3619,-2.4255,-2.4856,-2.5162,-2.4929,-2.4799,-2.4956,-2.365,-2.2558,-2.2197,-2.0866,-1.9677,-1.8723,-1.7801,-1.6807,-1.5881,-1.6363,-1.6531,-1.6228,-1.646,-1.6776,-1.7141,-1.7053,-1.7053,-1.715,-1.7814,-1.8149,-1.8149,-1.9274,-2.0079,-2.0576,-2.0791,-2.0762,-2.0654,-2.1738,-2.207,-2.1973,-2.2812,-2.3135,-2.3135,-2.3135,-2.3135,-2.3135,-2.3135,-2.3135,-2.3135,-2.3135,-2.3135,-2.3135,-2.3135,-2.3135,-2.3135,-2.3135,-2.3135,-2.3135,-2.3135,-2.3135,-2.3135,-2.3135,-2.3135,-2.3222,-2.3887,-2.5305,-2.6648,-2.7209,-2.87,-2.9792,-2.9792,-2.9792,-2.9792,-2.9792,-2.9792,-2.9624,-2.9028,-2.8426,-2.7671,-2.6603,-2.5535,-2.4542,-2.4049,-2.3963,-2.3877,-2.3877,-2.6036,-2.729,-2.729,-2.8359,-2.9197,-2.9792,-2.9792,-2.9792,-2.9792,-2.9792,-2.9792,-2.9792,-2.9792,-2.9792,0.0,0.0,0.0,0.0,0.0,0.0,0.0,0.0,0.0,0.0,0.0,0.0,0.0,-2.1241,-2.0638,-2.0907,-2.1485,-2.2036,-2.2517,-2.2652,-2.2801,-2.318,-2.1924,-2.0953,-2.0441,-1.9515,-1.8555,-1.7863,-1.6938,-1.6094,-1.5278,-1.6102,-1.6184,-1.5293,-1.6102,-1.6525,-1.6299,-1.6493,-1.6525,-1.6308,-1.6597,-1.7504,-1.8957,-1.8798,-1.9432,-2.0586,-2.0957,-2.0947,-2.0771,-2.1924,-2.2246,-2.207,-2.2832,-2.3135,-2.3135,-2.3135,-2.3135,-2.3135,-2.3135,-2.3135,-2.3135,-2.3135,-2.3135,-2.3135,-2.3135,-2.3135,-2.3135,-2.3135,-2.3135,-2.3135,-2.3135,-2.3135,-2.3135,-2.3135,-2.3135,-2.3135,-2.3387,-2.5062,-2.6554,-2.6719,-2.8383,-2.9792,-2.9792,-2.9792,-2.9702,-2.9534,-2.9702,-2.9287,-2.8016,-2.7844,-2.7023,-2.5041,-2.4617,-2.4125,-2.3222,-2.4125,-2.4787,-2.4787,-2.6849,-2.8096,-2.8096,-2.9197,-2.9792,-2.9792,-2.9792,-2.9792,-2.9792,-2.9792,-2.9792,-2.9792,-2.9792,-2.9842,0.0,0.0,0.0,0.0,0.0,0.0,0.0,0.0,0.0,0.0,0.0,0.0,-2.2136,-2.1587,-2.1493,-2.2286,-2.151,-2.0808,-2.0887,-2.1251,-2.1481,-2.1538,-2.1007,-2.0452,-1.9826,-1.8929,-1.7665,-1.5841,-1.553,-1.4961,-1.3566,-1.3632,-1.3712,-1.3559,-1.3632,-1.3691,-1.3729,-1.3945,-1.4076,-1.4042,-1.4345,-1.6124,-1.8957,-1.7989,-1.863,-2.0566,-2.0625,-2.084,-2.1182,-2.1738,-2.2148,-2.248,-2.2949,-2.3135,-2.3135,-2.3135,-2.3135,-2.3135,-2.3135,-2.3135,-2.3135,-2.3135,-2.3135,-2.3135,-2.3135,-2.3135,-2.3135,-2.3135,-2.3135,-2.3135,-2.3135,-2.3135,-2.3135,-2.3135,-2.3135,-2.3387,-2.4372,-2.5557,-2.6801,-2.7695,-2.8937,-2.9792,-2.9792,-2.9792,-2.9456,-2.8518,-2.9197,-2.904,-2.6976,-2.6719,-2.6213,-2.4957,-2.3877,-2.3299,-2.3135,-2.4125,-2.4787,-2.4787,-2.6849,-2.8096,-2.8096,-2.9197,-2.9792,-2.9792,-2.9792,-2.9792,-2.9792,-2.9792,-2.9792,-2.9792,-2.9792,-3.0043,0.0,0.0,0.0,0.0,0.0,0.0,0.0,0.0,0.0,0.0,0.0,0.0,-2.1956,-2.1237,-2.0717,-2.1186,-2.0457,-1.9976,-2.0169,-2.0374,-2.0629,-2.1167,-2.0111,-1.9201,-1.8995,-1.7553,-1.6158,-1.5106,-1.4482,-1.3884,-1.322,-1.3213,-1.3213,-1.3213,-1.3213,-1.3126,-1.2953,-1.3407,-1.3728,-1.3895,-1.4021,-1.5144,-1.7163,-1.7253,-1.8541,-2.0576,-2.083,-2.0908,-2.0928,-2.1855,-2.2207,-2.2227,-2.2881,-2.3135,-2.3135,-2.3135,-2.3135,-2.3135,-2.3135,-2.3135,-2.3135,-2.3135,-2.3135,-2.3135,-2.3135,-2.3135,-2.3135,-2.3135,-2.3135,-2.3135,-2.3135,-2.3135,-2.3135,-2.3135,-2.3135,-2.3551,-2.5389,-2.6141,-2.6976,-2.87,-2.9456,-2.9624,-2.8949,-2.8858,-2.8438,-2.7371,-2.8108,-2.8279,-2.6719,-2.7046,-2.6696,-2.4957,-2.4382,-2.4049,-2.4049,-2.5136,-2.6047,-2.6603,-2.8187,-2.9028,-2.9028,-2.9534,-2.9792,-2.9792,-2.9792,-2.9792,-2.9792,-2.9792,-2.9792,-2.9792,-2.9792,-3.0093,0.0,0.0,0.0,0.0,0.0,0.0,0.0,0.0,0.0,0.0,0.0,0.0,-2.2127,-2.0847,-1.9844,-2.0039,-1.9469,-1.9091,-1.9353,-1.9507,-1.9745,-2.0111,-1.9042,-1.8056,-1.7586,-1.6102,-1.4956,-1.4311,-1.3542,-1.306,-1.2986,-1.2979,-1.2979,-1.2979,-1.2979,-1.2866,-1.2632,-1.3233,-1.3721,-1.4088,-1.4088,-1.465,-1.5703,-1.6519,-1.8141,-2.0264,-2.0839,-2.0937,-2.081,-2.1787,-2.207,-2.1963,-2.2695,-2.2795,-2.2533,-2.2639,-2.2677,-2.2677,-2.2677,-2.2862,-2.3135,-2.3135,-2.3135,-2.3135,-2.3135,-2.3135,-2.3135,-2.3135,-2.3135,-2.3135,-2.3135,-2.3135,-2.3135,-2.3135,-2.3135,-2.3724,-2.5975,-2.6976,-2.781,-2.9456,-2.9534,-2.9106,-2.8267,-2.8096,-2.7763,-2.6637,-2.7626,-2.8028,-2.6637,-2.7452,-2.7348,-2.5462,-2.521,-2.5126,-2.4787,-2.5797,-2.6883,-2.7602,-2.8779,-2.9534,-2.9792,-2.9534,-2.9534,-2.9792,-2.9534,-2.9534,-2.9792,-2.9792,-2.9792,-2.9792,-2.993,-3.0294,0.0,0.0,0.0,0.0,0.0,0.0,0.0,0.0,0.0,0.0,0.0,0.0,-2.2621,-2.0829,-1.9477,-1.9986,-1.8947,-1.8086,-1.8105,-1.8448,-1.836,-1.7523,-1.7724,-1.7119,-1.5204,-1.4894,-1.4304,-1.3015,-1.2842,-1.2645,-1.2365,-1.2351,-1.2351,-1.2351,-1.2351,-1.2345,-1.2325,-1.2926,-1.352,-1.4088,-1.4088,-1.465,-1.5696,-1.5779,-1.7001,-1.9116,-2.0186,-2.083,-2.1201,-2.1279,-2.1533,-2.1934,-2.2373,-2.1826,-2.0875,-2.1246,-2.1382,-2.1382,-2.1382,-2.2129,-2.3135,-2.3135,-2.3135,-2.3135,-2.3135,-2.3135,-2.3135,-2.3135,-2.3135,-2.3135,-2.3135,-2.3135,-2.3135,-2.3135,-2.3135,-2.3724,-2.5975,-2.8131,-2.9624,-2.9792,-2.8937,-2.8176,-2.8084,-2.8096,-2.7763,-2.6637,-2.8291,-2.8961,-2.6812,-2.7452,-2.7683,-2.6554,-2.6389,-2.5964,-2.4872,-2.5797,-2.6554,-2.6554,-2.7614,-2.8688,-2.9792,-2.8767,-2.8688,-2.9792,-2.8767,-2.8688,-2.9792,-2.9792,-2.9792,-2.9804,-3.0331,-3.0846,0.0,0.0,0.0,0.0,0.0,0.0,0.0,0.0,0.0,0.0,0.0,0.0,-2.144,-2.0895,-2.0454,-2.0164,-1.9111,-1.8418,-1.8418,-1.8779,-1.8909,-1.861,-1.8294,-1.7645,-1.6468,-1.5749,-1.4785,-1.3505,-1.341,-1.3072,-1.2305,-1.2305,-1.2305,-1.2305,-1.2305,-1.2492,-1.2879,-1.2906,-1.3307,-1.4082,-1.3895,-1.4061,-1.4734,-1.5379,-1.6101,-1.6919,-1.806,-1.8958,-1.9771,-1.929,-1.9221,-1.9472,-2.0624,-2.0927,-2.0907,-2.1767,-2.2263,-2.2492,-2.2492,-2.2765,-2.3135,-2.3135,-2.3135,-2.3135,-2.3135,-2.3135,-2.3135,-2.3135,-2.3135,-2.3135,-2.3135,-2.3135,-2.3135,-2.3135,-2.3637,-2.4372,-2.521,-2.6637,-2.7879,-2.8609,-2.7787,-2.6871,-2.6108,-2.6614,-2.6461,-2.4638,-2.6778,-2.7936,-2.5714,-2.7023,-2.7429,-2.563,-2.5378,-2.521,-2.4872,-2.521,-2.5714,-2.6472,-2.6883,-2.729,-2.7637,-2.729,-2.7302,-2.7637,-2.7302,-2.7959,-2.9792,-2.9792,-2.998,-3.0331,-3.052,-3.1085,0.0,0.0,0.0,0.0,0.0,0.0,0.0,0.0,0.0,0.0,0.0,0.0,-1.9987,-2.0204,-2.0302,-1.912,-1.8091,-1.7549,-1.791,-1.828,-1.8571,-1.8419,-1.8101,-1.7555,-1.6606,-1.588,-1.513,-1.4258,-1.3882,-1.3455,-1.2806,-1.2445,-1.2305,-1.2305,-1.2305,-1.2592,-1.32,-1.3006,-1.33,-1.4082,-1.3888,-1.3895,-1.4088,-1.481,-1.5379,-1.5696,-1.6034,-1.709,-1.8407,-1.7927,-1.7788,-1.7904,-1.9019,-1.9733,-2.019,-2.1034,-2.187,-2.2473,-2.2339,-2.265,-2.3115,-2.2969,-2.3027,-2.3135,-2.3135,-2.3135,-2.3135,-2.3135,-2.3135,-2.3135,-2.3135,-2.3135,-2.3135,-2.3135,-2.3714,-2.4296,-2.4702,-2.5714,-2.6719,-2.7441,-2.6707,-2.5808,-2.5462,-2.5964,-2.5975,-2.4478,-2.6449,-2.7429,-2.563,-2.6614,-2.7035,-2.5546,-2.5378,-2.521,-2.4872,-2.4787,-2.5126,-2.588,-2.5975,-2.6141,-2.6472,-2.6223,-2.63,-2.6718,-2.6466,-2.722,-2.8887,-2.9297,-2.9915,-3.062,-3.0984,-3.1377,0.0,0.0,0.0,0.0,0.0,0.0,0.0,0.0,0.0,0.0,0.0,0.0,-1.8499,-1.8783,-1.886,-1.6845,-1.5833,-1.563,-1.6533,-1.7026,-1.7134,-1.67,-1.7017,-1.675,-1.5417,-1.5305,-1.5234,-1.5234,-1.4314,-1.3745,-1.3673,-1.2806,-1.2305,-1.2305,-1.2305,-1.2592,-1.3193,-1.32,-1.3487,-1.4062,-1.4068,-1.4075,-1.4075,-1.4075,-1.4636,-1.5606,-1.4552,-1.5282,-1.7147,-1.7163,-1.7172,-1.7294,-1.7813,-1.817,-1.844,-1.8971,-2.0041,-2.1291,-2.0833,-2.1764,-2.3037,-2.2646,-2.2783,-2.3125,-2.3135,-2.3135,-2.3135,-2.3135,-2.3135,-2.3135,-2.3135,-2.3135,-2.3222,-2.3135,-2.3135,-2.3474,-2.4542,-2.563,-2.6389,-2.6472,-2.5546,-2.5126,-2.6224,-2.6472,-2.6483,-2.6472,-2.736,-2.7683,-2.6554,-2.64,-2.6472,-2.64,-2.64,-2.5975,-2.4872,-2.4787,-2.4787,-2.4787,-2.4713,-2.5231,-2.6329,-2.5701,-2.586,-2.6956,-2.6395,-2.6416,-2.7041,-2.8302,-2.95,-3.0578,-3.1738,-3.181,-0.8353,0.0,0.0,0.0,0.0,0.0,0.0,0.0,0.0,0.0,0.0,0.0,-1.8815,-1.7852,-1.6716,-1.5388,-1.6472,-1.7459,-1.7414,-1.8387,-1.8912,-1.8104,-1.8471,-1.8299,-1.7292,-1.7226,-1.6655,0.0,-1.495,-1.4163,-1.2732,-1.2445,-1.2305,-1.2305,-1.2305,-1.2485,-1.2872,-1.2872,-1.3066,-1.3454,-1.3667,-1.3768,-1.3768,-1.3768,-1.3926,-1.4145,-1.3703,-1.3769,-1.4344,-1.4799,-1.4985,-1.5151,-1.6884,-1.7714,-1.8297,-2.0007,-2.108,-2.1683,-2.1568,-2.1868,-2.2266,-2.2451,-2.2598,-2.2744,-2.3047,-2.3135,-2.3135,-2.3135,-2.3135,-2.3309,-2.4125,-2.4967,-2.5389,-2.4553,-2.4296,-2.4211,-2.3714,-2.38,-2.4307,-2.5126,-2.4382,-2.3963,-2.5041,-2.5964,-2.6224,-2.5378,-2.686,-2.7105,-2.4392,-2.4713,-2.4967,-2.4145,-2.4059,-2.3887,-2.3637,-2.3551,-2.3551,-2.3551,-2.3849,-2.4205,-2.4547,-2.4626,-2.4856,-2.5108,-2.4977,-2.533,-2.6349,-2.8413,-2.963,-3.0107,-3.1965,-3.1819,0.0,0.0,0.0,0.0,0.0,0.0,-1.0128,-1.1982,-1.3991,0.0,-1.6636,0.0,-1.6819,-1.5903,-1.4911,-1.3948,-1.5716,-1.7103,-1.7067,-1.819,-1.8944,-1.864,-1.8857,-1.875,-1.8076,-1.8008,-1.7579,-1.6446,-1.5658,-1.4378,-1.2372,-1.2305,-1.2305,-1.2305,-1.2305,-1.2445,-1.2822,-1.2822,-1.2906,-1.3213,-1.3387,-1.346,-1.346,-1.346,-1.346,-1.3454,-1.328,-1.3213,-1.3247,-1.4185,-1.4627,-1.4717,-1.6062,-1.7475,-1.8802,-2.0051,-2.1077,-2.1865,-2.168,-2.1738,-2.1894,-2.1963,-2.2217,-2.2559,-2.2803,-2.2998,-2.3222,-2.3714,-2.4135,-2.4638,-2.5294,-2.563,-2.563,-2.4957,-2.4457,-2.3877,-2.3222,-2.3464,-2.4049,-2.4702,-2.4296,-2.4296,-2.5859,-2.6378,-2.6307,-2.563,-2.6202,-2.5859,-2.3387,-2.3714,-2.38,-2.3135,-2.3135,-2.3135,-2.3135,-2.3135,-2.3213,-2.3398,-2.3652,-2.3867,-2.4043,-2.4463,-2.4687,-2.4687,-2.4873,-2.5775,-2.7489,-2.8695,-2.9675,-3.0429,-3.1673,-3.0956,0.0,0.0,0.0,0.0,0.0,0.0,-0.932,-1.1084,-1.273,-1.3194,-1.4122,0.0,0.0,-1.3666,-1.3447,-1.2714,-1.4218,-1.566,-1.622,-1.7247,-1.8147,-1.8618,-1.8592,-1.8467,-1.8047,-1.8008,-1.794,-1.7725,-1.5939,-1.4091,-1.2372,-1.2305,-1.2305,-1.2305,-1.2305,-1.2425,-1.2768,-1.2808,-1.2943,-1.3263,-1.3259,-1.3272,-1.3311,-1.3239,-1.316,-1.316,-1.3126,-1.3106,-1.3212,-1.4547,-1.5188,-1.5328,-1.5896,-1.7524,-1.9553,-1.9634,-2.0545,-2.1689,-2.1289,-2.1416,-2.168,-2.1348,-2.1748,-2.2393,-2.264,-2.2935,-2.3491,-2.4702,-2.5797,-2.6637,-2.6637,-2.6047,-2.5284,-2.5199,-2.4296,-2.3474,-2.3299,-2.3963,-2.4628,-2.4787,-2.4787,-2.5452,-2.7591,-2.7035,-2.6307,-2.6307,-2.5462,-2.4372,-2.3222,-2.3135,-2.3135,-2.3135,-2.3135,-2.3135,-2.3135,-2.3135,-2.332,-2.376,-2.3838,-2.4043,-2.4473,-2.4912,-2.5137,-2.5137,-2.5537,-2.6839,-2.9223,-2.8835,-2.9475,-3.1223,-3.1033,-2.9772,0.0,0.0,0.0,0.0,0.0,0.0,-0.9873,-0.9488,-0.9779,0.0,-1.27,0.0,0.0,0.0,-1.2429,-1.2135,-1.3984,-1.5843,-1.6934,-1.7735,-1.8488,-1.9064,-1.8848,-1.8467,-1.8047,-1.8008,-1.7364,-1.5869,-1.3947,-1.2732,-1.2298,-1.2305,-1.2305,-1.2305,-1.2305,-1.2331,-1.2385,-1.2701,-1.3106,-1.3579,-1.3361,-1.3464,-1.3965,-1.3216,-1.2916,-1.2826,-1.2585,-1.2478,-1.2518,-1.3294,-1.4287,-1.5488,-1.7595,-1.8674,-1.9234,-2.0125,-2.0585,-2.081,-2.0723,-2.0752,-2.0869,-2.1143,-2.1348,-2.1765,-2.3423,-2.394,-2.4252,-2.5782,-2.6953,-2.7763,-2.7763,-2.8279,-2.8609,-2.7683,-2.6625,-2.5557,-2.4628,-2.3877,-2.3714,-2.4628,-2.4787,-2.521,-2.6554,-2.588,-2.5126,-2.5126,-2.4957,-2.4372,-2.3222,-2.3135,-2.3135,-2.3135,-2.3135,-2.3135,-2.3135,-2.3135,-2.332,-2.376,-2.4111,-2.4492,-2.4922,-2.5371,-2.5605,-2.5605,-2.5693,-2.6476,-2.7955,-2.7477,-2.8654,-3.1223,-3.0226,-2.8947,0.0,0.0,0.0,-0.9393,0.0,0.0,0.0,-0.8641,-0.8956,-1.0964,0.0,0.0,0.0,0.0,-1.0646,-1.0931,-1.2578,-1.4096,-1.4989,-1.7235,-1.8985,-1.9525,-1.9033,-1.8643,-1.8652,-1.8652,-1.7834,-1.5838,-1.4298,-1.3195,-1.2607,-1.2525,-1.2452,-1.2305,-1.2305,-1.2305,-1.2305,-1.2452,-1.2668,-1.3025,-1.2832,-1.29,-1.3259,-1.2743,-1.2525,-1.2518,-1.2365,-1.2305,-1.2419,-1.3558,-1.4743,-1.6022,-1.7519,-1.8479,-1.9125,-2.0167,-2.0566,-2.0566,-2.0566,-2.0566,-2.0605,-2.083,-2.1055,-2.1509,-2.3327,-2.4892,-2.6298,-2.7047,-2.8108,-2.8937,-2.8937,-2.8937,-2.8767,-2.8255,-2.686,-2.563,-2.563,-2.4713,-2.4296,-2.5462,-2.521,-2.5126,-2.6307,-2.5546,-2.4787,-2.4787,-2.4296,-2.3714,-2.3135,-2.3135,-2.3135,-2.3135,-2.3135,-2.3135,-2.3135,-2.334,-2.3643,-2.4072,-2.4502,-2.4941,-2.5381,-2.5615,-2.5742,-2.5742,-2.5742,-2.6294,-2.7589,-2.6709,-2.7348,-2.9407,-2.8762,-2.7861,0.0,0.0,0.0,0.0,0.0,-0.902,0.0,0.0,0.0,0.0,0.0,0.0,0.0,0.0,0.0,0.0,0.0,0.0,0.0,-1.5972,0.0,-1.8775,-1.8202,-1.7958,-1.8443,-1.836,-1.775,-1.6295,-1.4958,-1.386,-1.2923,-1.2856,-1.2714,-1.2392,-1.2331,-1.2278,-1.2218,-1.2218,-1.2291,-1.2503,-1.2291,-1.2318,-1.2592,-1.2372,-1.2305,-1.2305,-1.2305,-1.2305,-1.2419,-1.415,-1.5319,-1.6218,-1.7204,-1.831,-1.9441,-2.0245,-2.0566,-2.0566,-2.0566,-2.0566,-2.0644,-2.0789,-2.1389,-2.2374,-2.3662,-2.6074,-2.8294,-2.839,-2.9106,-2.9792,-2.9792,-2.9106,-2.8347,-2.8176,-2.6603,-2.5294,-2.6058,-2.5294,-2.4713,-2.5641,-2.5136,-2.4787,-2.5975,-2.521,-2.4457,-2.4457,-2.3714,-2.3135,-2.3135,-2.3135,-2.3135,-2.3135,-2.3135,-2.3174,-2.3262,-2.3594,-2.3965,-2.4385,-2.4746,-2.5137,-2.5596,-2.5693,-2.5742,-2.5742,-2.5742,-2.6197,-2.722,-2.6197,-2.638,-2.7589,-2.7315,-2.6668,0.0,0.0,0.0,0.0,-0.94,0.0,0.0,0.0,-0.7255,-0.7994,0.0,0.0,0.0,0.0,0.0,0.0,0.0,0.0,-1.2238,-1.371,-1.4683,-1.4736,-1.49,-1.5083,-1.5452,-1.506,-1.515,-1.6119,-1.4219,-1.3054,-1.3146,-1.2899,-1.2808,-1.2775,-1.2438,-1.2178,-1.1917,-1.1917,-1.2338,-1.3179,-1.2338,-1.2476,-1.3528,-1.2666,-1.2305,-1.2305,-1.2305,-1.2305,-1.2419,-1.415,-1.4872,-1.5242,-1.7847,-1.9441,-2.0401,-2.0566,-2.0566,-2.0566,-2.0566,-2.0566,-2.0712,-2.1593,-2.3381,-2.5382,-2.6047,-2.7488,-2.8886,-2.9474,-2.9702,-2.9792,-2.9792,-2.9702,-2.9365,-2.8347,-2.7197,-2.6058,-2.521,-2.4135,-2.3299,-2.3474,-2.3387,-2.3637,-2.4787,-2.4049,-2.3299,-2.3299,-2.3222,-2.3135,-2.3135,-2.3135,-2.3135,-2.3135,-2.3135,-2.331,-2.381,-2.3869,-2.3965,-2.4385,-2.4463,-2.4687,-2.5127,-2.5527,-2.5742,-2.5742,-2.5742,-2.5732,-2.5927,-2.5732,-2.638,-2.7589,-2.6476,-2.583,0.0,0.0,0.0,0.0,0.0,0.0,-0.8133,0.0,-0.7371,0.0,0.0,0.0,0.0,0.0,0.0,0.0,-1.0118,0.0,0.0,0.0,-1.2413,0.0,0.0,0.0,-1.5314,-1.408,-1.3858,-1.5308,-1.3484,-1.2445,-1.2871,-1.2959,-1.2933,-1.2829,-1.2458,-1.2245,-1.2124,-1.2124,-1.2618,-1.3543,-1.3114,-1.3187,-1.3673,-1.331,-1.2806,-1.2305,-1.2305,-1.2305,-1.2405,-1.3877,-1.4812,-1.5605,-1.7506,-1.8793,-1.9728,-2.0043,-2.0352,-2.0566,-2.0566,-2.0934,-2.1593,-2.2553,-2.4209,-2.591,-2.6435,-2.769,-2.9051,-2.9628,-2.9792,-2.9792,-2.9792,-2.9287,-2.8688,-2.8176,-2.6778,-2.5546,-2.5724,-2.4392,-2.3299,-2.3963,-2.3551,-2.3212,-2.3714,-2.3387,-2.3135,-2.3135,-2.3135,-2.3135,-2.3135,-2.3135,-2.3135,-2.3135,-2.3379,-2.3712,-2.3998,-2.4359,-2.4502,-2.4424,-2.4414,-2.4609,-2.5049,-2.5244,-2.5469,-2.5732,-2.5742,-2.5742,-2.5742,-2.5742,-2.6014,-2.6476,-2.5917,-2.5742,-1.1244,0.0,0.0,0.0,0.0,0.0,0.0,0.0,0.0,0.0,0.0,0.0,0.0,0.0,0.0,0.0,0.0,-0.9496,0.0,0.0,0.0,0.0,0.0,0.0,0.0,-1.2697,-1.2178,-1.3699,-1.2172,-1.1424,-1.1972,-1.2405,-1.2527,-1.2466,-1.2342,-1.2265,-1.2184,-1.2469,-1.2898,-1.3611,-1.3611,-1.3611,-1.3611,-1.3418,-1.2903,-1.2184,-1.2265,-1.2445,-1.276,-1.4096,-1.5266,-1.631,-1.7496,-1.8478,-1.9316,-1.9716,-2.0117,-2.041,-2.0527,-2.1221,-2.2103,-2.285,-2.4192,-2.5707,-2.6232,-2.747,-2.8825,-2.9402,-2.9666,-2.9792,-2.9792,-2.8937,-2.8016,-2.7763,-2.6202,-2.4957,-2.5473,-2.4307,-2.3299,-2.4211,-2.3637,-2.3135,-2.3135,-2.3135,-2.3135,-2.3135,-2.3135,-2.3135,-2.3135,-2.3135,-2.3135,-2.3135,-2.3536,-2.3949,-2.4425,-2.4766,-2.4756,-2.4434,-2.4307,-2.4385,-2.4707,-2.4941,-2.5215,-2.5547,-2.5674,-2.5742,-2.5742,-2.5742,-2.5742,-2.5742,-2.5742,-2.5742,0.0,0.0,0.0,-1.0128,0.0,0.0,0.0,0.0,-0.744,0.0,0.0,0.0,0.0,0.0,-0.9711,-0.9539,0.0,0.0,0.0,0.0,0.0,0.0,0.0,0.0,0.0,-0.9815,-0.9627,-1.1277,-1.0087,-0.957,-1.0182,-1.0729,-1.1211,-1.1511,-1.2062,-1.2171,-1.1891,-1.2791,-1.3274,-1.3274,-1.3274,-1.3274,-1.3289,-1.2673,-1.2217,-1.1897,-1.2178,-1.2806,-1.3768,-1.5178,-1.6285,-1.7261,-1.8209,-1.9107,-1.9856,-1.9922,-1.9922,-2.0,-2.042,-2.1221,-2.2038,-2.2027,-2.3379,-2.5123,-2.5683,-2.6907,-2.8247,-2.88,-2.9365,-2.9792,-2.9792,-2.8937,-2.7855,-2.6801,-2.563,-2.4542,-2.3474,-2.3135,-2.3135,-2.3135,-2.3135,-2.3135,-2.3135,-2.3135,-2.3135,-2.3135,-2.3135,-2.3135,-2.3135,-2.3135,-2.3135,-2.3135,-2.3154,-2.3851,-2.5462,-2.4911,-2.4434,-2.4414,-2.4033,-2.3818,-2.3828,-2.4629,-2.5078,-2.5088,-2.5518,-2.5742,-2.5742,-2.5742,-2.5742,-2.5742,-2.5742,-2.5742,-1.0902,-1.0586,-1.0342,-1.031,0.0,0.0,0.0,0.0,0.0,0.0,0.0,0.0,0.0,0.0,0.0,-0.986,-0.927,0.0,0.0,0.0,0.0,0.0,0.0,0.0,0.0,0.0,-0.8037,-0.9831,-0.8805,-0.8842,-1.0649,-1.108,-1.1629,-1.2305,-1.2546,-1.275,-1.3086,-1.3438,-1.4206,-1.5462,-1.4841,-1.456,-1.4489,-1.3469,-1.2634,-1.2151,-1.2058,-1.2697,-1.3825,-1.4936,-1.5988,-1.6915,-1.7858,-1.8574,-1.9102,-1.9394,-1.9863,-2.0438,-2.1247,-2.1735,-2.2103,-2.2776,-2.3891,-2.5099,-2.5672,-2.6356,-2.7146,-2.7654,-2.7703,-2.7637,-2.7637,-2.6789,-2.5775,-2.5462,-2.4467,-2.3551,-2.3222,-2.3135,-2.3135,-2.3135,-2.3135,-2.3135,-2.3135,-2.3135,-2.3135,-2.3135,-2.3135,-2.3135,-2.3135,-2.3135,-2.3135,-2.3135,-2.3418,-2.3929,-2.4475,-2.4234,-2.4004,-2.4004,-2.3594,-2.3613,-2.418,-2.4482,-2.4912,-2.5498,-2.5664,-2.5742,-2.5742,-2.5742,-2.5742,-2.5742,-2.6035,-2.6172,-1.0444,-1.0164,-1.0028,-1.0135,-0.913,-0.8257,-0.8602,0.0,-0.7495,0.0,0.0,0.0,0.0,0.0,0.0,-0.9496,-0.8888,0.0,0.0,-0.7142,0.0,0.0,0.0,0.0,0.0,0.0,-0.6673,-0.7974,-0.7386,-0.7812,-0.9854,-1.0397,-1.1132,-1.2299,-1.2939,-1.3418,-1.3673,-1.4378,-1.53,-1.6351,-1.5453,-1.4977,-1.4767,-1.3308,-1.2431,-1.2138,-1.1951,-1.2599,-1.3818,-1.4807,-1.572,-1.6706,-1.7647,-1.8359,-1.8906,-1.918,-1.9824,-2.0722,-2.1298,-2.1517,-2.1593,-2.2264,-2.3158,-2.402,-2.4317,-2.501,-2.5855,-2.6345,-2.6382,-2.6259,-2.6427,-2.563,-2.4787,-2.4787,-2.3963,-2.3135,-2.3135,-2.3135,-2.3135,-2.3135,-2.3135,-2.3135,-2.3135,-2.3135,-2.3135,-2.3135,-2.3135,-2.3135,-2.3135,-2.3135,-2.3135,-2.3135,-2.3408,-2.3742,-2.3898,-2.3889,-2.3789,-2.3789,-2.3379,-2.3457,-2.417,-2.4336,-2.4834,-2.5723,-2.5742,-2.581,-2.5967,-2.581,-2.582,-2.5977,-2.626,-2.6553]}]]